| time (UTC) | temp F | wind direction | speed MPH | gust MPH | rain 1hr in | rain 24hr in | rain mn in | humidity % | barometer mb |
| 20260507193046 | 54 | 264 | 2.0 | 10.0 | 0.00 | 0.00 | 0.00 | 37 | 1011.5 |
| 20260507192926 | 53 | 268 | 5.0 | 14.0 | 0.00 | 0.00 | 0.00 | 36 | 1011.6 |
| 20260507192811 | 53 | 292 | 7.0 | 14.0 | 0.00 | 0.00 | 0.00 | 36 | 1011.6 |
| 20260507192712 | 53 | 303 | 5.0 | 14.0 | 0.00 | 0.00 | 0.00 | 36 | 1011.6 |
| 20260507192634 | 53 | 286 | 4.0 | 15.0 | 0.00 | 0.00 | 0.00 | 36 | 1011.7 |
| 20260507192535 | 53 | 306 | 5.0 | 17.0 | 0.00 | 0.00 | 0.00 | 35 | 1011.6 |
| 20260507192415 | 53 | 297 | 7.0 | 17.0 | 0.00 | 0.00 | 0.00 | 36 | 1011.7 |
| 20260507192314 | 54 | 298 | 8.0 | 17.0 | 0.00 | 0.00 | 0.00 | 35 | 1011.8 |
| 20260507192238 | 54 | 315 | 10.0 | 17.0 | 0.00 | 0.00 | 0.00 | 35 | 1011.7 |
| 20260507192118 | 54 | 310 | 10.0 | 17.0 | 0.00 | 0.00 | 0.00 | 36 | 1011.7 |
| 20260507192025 | 55 | 313 | 8.0 | 17.0 | 0.00 | 0.00 | 0.00 | 37 | 1011.7 |
| 20260507191929 | 55 | 306 | 9.0 | 17.0 | 0.00 | 0.00 | 0.00 | 37 | 1011.7 |
| 20260507191813 | 55 | 311 | 9.0 | 17.0 | 0.00 | 0.00 | 0.00 | 36 | 1011.7 |
| 20260507191717 | 55 | 303 | 9.0 | 17.0 | 0.00 | 0.00 | 0.00 | 39 | 1011.7 |
| 20260507191621 | 55 | 289 | 11.0 | 17.0 | 0.00 | 0.00 | 0.00 | 37 | 1011.7 |
| 20260507191525 | 55 | 302 | 11.0 | 17.0 | 0.00 | 0.00 | 0.00 | 40 | 1011.6 |
| 20260507191414 | 55 | 292 | 6.0 | 13.0 | 0.00 | 0.00 | 0.00 | 38 | 1011.7 |
| 20260507191318 | 55 | 267 | 5.0 | 10.0 | 0.00 | 0.00 | 0.00 | 37 | 1011.7 |
| 20260507191222 | 55 | 257 | 5.0 | 10.0 | 0.00 | 0.00 | 0.00 | 40 | 1011.6 |
| 20260507191106 | 55 | 300 | 3.0 | 11.0 | 0.00 | 0.00 | 0.00 | 43 | 1011.7 |
| 20260507191010 | 55 | 327 | 6.0 | 12.0 | 0.00 | 0.00 | 0.00 | 39 | 1011.7 |
| 20260507190935 | 55 | 340 | 8.0 | 13.0 | 0.00 | 0.00 | 0.00 | 38 | 1011.8 |
| 20260507190817 | 55 | 302 | 9.0 | 14.0 | 0.00 | 0.00 | 0.00 | 40 | 1011.8 |
| 20260507190705 | 55 | 295 | 6.0 | 14.0 | 0.00 | 0.00 | 0.00 | 36 | 1011.7 |
| 20260507190630 | 55 | 286 | 5.0 | 14.0 | 0.00 | 0.00 | 0.00 | 36 | 1011.7 |
| 20260507190507 | 55 | 333 | 6.0 | 14.0 | 0.00 | 0.00 | 0.00 | 36 | 1011.7 |
| 20260507190413 | 55 | 33 | 7.0 | 14.0 | 0.00 | 0.00 | 0.00 | 35 | 1011.8 |
| 20260507190317 | 55 | 9 | 8.0 | 14.0 | 0.00 | 0.00 | 0.00 | 37 | 1011.8 |
| 20260507190221 | 55 | 17 | 9.0 | 14.0 | 0.00 | 0.00 | 0.00 | 37 | 1011.7 |
| 20260507190110 | 55 | 331 | 9.0 | 15.0 | 0.00 | 0.00 | 0.00 | 37 | 1011.7 |
| 20260507190035 | 55 | 355 | 9.0 | 15.0 | 0.00 | 0.00 | 0.00 | 37 | 1011.7 |
| 20260507185957 | 55 | 342 | 5.0 | 15.0 | 0.00 | 0.00 | 0.00 | 37 | 1011.7 |
| 20260507185731 | 55 | 45 | 5.0 | 15.0 | 0.00 | 0.00 | 0.00 | 36 | 1011.7 |
| 20260507185635 | 55 | 360 | 6.0 | 15.0 | 0.00 | 0.00 | 0.00 | 37 | 1011.7 |
| 20260507185519 | 55 | 284 | 7.0 | 15.0 | 0.00 | 0.00 | 0.00 | 37 | 1011.7 |
| 20260507185422 | 55 | 267 | 9.0 | 15.0 | 0.00 | 0.00 | 0.00 | 37 | 1011.7 |
| 20260507185310 | 55 | 290 | 9.0 | 15.0 | 0.00 | 0.00 | 0.00 | 37 | 1011.7 |
| 20260507185213 | 55 | 24 | 6.0 | 13.0 | 0.00 | 0.00 | 0.00 | 37 | 1011.7 |
| 20260507185117 | 55 | 331 | 4.0 | 13.0 | 0.00 | 0.00 | 0.00 | 38 | 1011.6 |
| 20260507185022 | 55 | 9 | 3.0 | 16.0 | 0.00 | 0.00 | 0.00 | 37 | 1011.7 |
| 20260507184906 | 55 | 336 | 4.0 | 16.0 | 0.00 | 0.00 | 0.00 | 36 | 1011.8 |
| 20260507184810 | 55 | 314 | 6.0 | 16.0 | 0.00 | 0.00 | 0.00 | 37 | 1011.7 |
| 20260507184714 | 55 | 326 | 8.0 | 16.0 | 0.00 | 0.00 | 0.00 | 40 | 1011.7 |
| 20260507184622 | 55 | 288 | 8.0 | 16.0 | 0.00 | 0.00 | 0.00 | 42 | 1011.7 |
| 20260507184506 | 55 | 301 | 7.0 | 16.0 | 0.00 | 0.00 | 0.00 | 36 | 1011.7 |
| 20260507184411 | 55 | 335 | 9.0 | 16.0 | 0.00 | 0.00 | 0.00 | 37 | 1011.8 |
| 20260507184335 | 55 | 12 | 10.0 | 16.0 | 0.00 | 0.00 | 0.00 | 37 | 1011.8 |
| 20260507184218 | 54 | 336 | 10.0 | 16.0 | 0.00 | 0.00 | 0.00 | 39 | 1011.8 |
| 20260507184124 | 54 | 350 | 10.0 | 16.0 | 0.00 | 0.00 | 0.00 | 38 | 1012.0 |
| 20260507184012 | 54 | 321 | 9.0 | 17.0 | 0.00 | 0.00 | 0.00 | 39 | 1011.8 |
| 20260507183916 | 54 | 349 | 10.0 | 19.0 | 0.00 | 0.00 | 0.00 | 36 | 1011.9 |
| 20260507183818 | 54 | 323 | 9.0 | 19.0 | 0.00 | 0.00 | 0.00 | 39 | 1011.8 |
| 20260507183723 | 54 | 300 | 8.0 | 19.0 | 0.00 | 0.00 | 0.00 | 37 | 1011.9 |
| 20260507183646 | 54 | 11 | 9.0 | 19.0 | 0.00 | 0.00 | 0.00 | 38 | 1011.8 |
| 20260507183510 | 54 | 319 | 5.0 | 19.0 | 0.00 | 0.00 | 0.00 | 39 | 1011.7 |
| 20260507183418 | 54 | 32 | 4.0 | 19.0 | 0.00 | 0.00 | 0.00 | 43 | 1011.8 |
| 20260507183322 | 54 | 342 | 9.0 | 19.0 | 0.00 | 0.00 | 0.00 | 40 | 1011.8 |
| 20260507183207 | 54 | 292 | 14.0 | 19.0 | 0.00 | 0.00 | 0.00 | 39 | 1011.9 |
| 20260507183131 | 54 | 290 | 10.0 | 19.0 | 0.00 | 0.00 | 0.00 | 38 | 1011.8 |
| 20260507183014 | 54 | 296 | 5.0 | 13.0 | 0.00 | 0.00 | 0.00 | 37 | 1011.8 |
| 20260507182939 | 54 | 257 | 3.0 | 13.0 | 0.00 | 0.00 | 0.00 | 39 | 1011.9 |
| 20260507182822 | 54 | 40 | 3.0 | 13.0 | 0.00 | 0.00 | 0.00 | 43 | 1011.8 |
| 20260507182710 | 54 | 277 | 6.0 | 13.0 | 0.00 | 0.00 | 0.00 | 41 | 1011.9 |
| 20260507182615 | 54 | 270 | 7.0 | 13.0 | 0.00 | 0.00 | 0.00 | 39 | 1011.9 |
| 20260507182519 | 54 | 267 | 5.0 | 13.0 | 0.00 | 0.00 | 0.00 | 35 | 1011.9 |
| 20260507182421 | 54 | 298 | 5.0 | 13.0 | 0.00 | 0.00 | 0.00 | 37 | 1012.0 |
| 20260507182324 | 54 | 60 | 7.0 | 13.0 | 0.00 | 0.00 | 0.00 | 34 | 1011.9 |
| 20260507182228 | 54 | 17 | 8.0 | 13.0 | 0.00 | 0.00 | 0.00 | 38 | 1012.0 |
| 20260507182115 | 54 | 351 | 6.0 | 13.0 | 0.00 | 0.00 | 0.00 | 40 | 1012.0 |
| 20260507182018 | 54 | 355 | 4.0 | 13.0 | 0.00 | 0.00 | 0.00 | 41 | 1012.0 |
| 20260507181922 | 54 | 11 | 4.0 | 13.0 | 0.00 | 0.00 | 0.00 | 39 | 1012.0 |
| 20260507181806 | 54 | 37 | 8.0 | 13.0 | 0.00 | 0.00 | 0.00 | 39 | 1012.0 |
| 20260507181710 | 53 | 10 | 9.0 | 13.0 | 0.00 | 0.00 | 0.00 | 38 | 1012.1 |
| 20260507181614 | 53 | 349 | 8.0 | 13.0 | 0.00 | 0.00 | 0.00 | 39 | 1012.0 |
| 20260507181522 | 53 | 20 | 6.0 | 10.0 | 0.00 | 0.00 | 0.00 | 38 | 1012.1 |
| 20260507181406 | 53 | 342 | 5.0 | 10.0 | 0.00 | 0.00 | 0.00 | 41 | 1012.0 |
| 20260507181330 | 53 | 13 | 5.0 | 10.0 | 0.00 | 0.00 | 0.00 | 44 | 1012.0 |
| 20260507181207 | 53 | 337 | 5.0 | 10.0 | 0.00 | 0.00 | 0.00 | 41 | 1012.1 |
| 20260507181111 | 53 | 287 | 7.0 | 10.0 | 0.00 | 0.00 | 0.00 | 40 | 1012.1 |
| 20260507181018 | 53 | 307 | 6.0 | 10.0 | 0.00 | 0.00 | 0.00 | 41 | 1012.0 |
| 20260507180907 | 53 | 304 | 3.0 | 9.0 | 0.00 | 0.00 | 0.00 | 39 | 1012.0 |
| 20260507180831 | 53 | 5 | 5.0 | 11.0 | 0.00 | 0.00 | 0.00 | 39 | 1012.0 |
| 20260507180713 | 53 | 280 | 5.0 | 11.0 | 0.00 | 0.00 | 0.00 | 40 | 1012.1 |
| 20260507180617 | 53 | 301 | 4.0 | 11.0 | 0.00 | 0.00 | 0.00 | 41 | 1012.0 |
| 20260507180522 | 52 | 347 | 5.0 | 11.0 | 0.00 | 0.00 | 0.00 | 41 | 1012.0 |
| 20260507180407 | 52 | 355 | 6.0 | 11.0 | 0.00 | 0.00 | 0.00 | 42 | 1012.1 |
| 20260507180330 | 52 | 63 | 5.0 | 11.0 | 0.00 | 0.00 | 0.00 | 41 | 1012.1 |
| 20260507180217 | 52 | 63 | 5.0 | 15.0 | 0.00 | 0.00 | 0.00 | 41 | 1012.2 |
| 20260507180119 | 52 | 32 | 6.0 | 15.0 | 0.00 | 0.00 | 0.00 | 40 | 1012.1 |
| 20260507180020 | 52 | 59 | 6.0 | 15.0 | 0.00 | 0.00 | 0.00 | 38 | 1012.3 |
| 20260507175921 | 52 | 61 | 6.0 | 15.0 | 0.00 | 0.00 | 0.00 | 38 | 1012.3 |
| 20260507175822 | 52 | 27 | 6.0 | 15.0 | 0.00 | 0.00 | 0.00 | 39 | 1012.3 |
| 20260507175724 | 53 | 39 | 6.0 | 15.0 | 0.00 | 0.00 | 0.00 | 38 | 1012.3 |
| 20260507175630 | 53 | 57 | 8.0 | 15.0 | 0.00 | 0.00 | 0.00 | 38 | 1012.3 |
| 20260507175505 | 53 | 11 | 9.0 | 15.0 | 0.00 | 0.00 | 0.00 | 39 | 1012.4 |
| 20260507175410 | 53 | 14 | 8.0 | 15.0 | 0.00 | 0.00 | 0.00 | 40 | 1012.3 |
| 20260507175314 | 53 | 12 | 7.0 | 13.0 | 0.00 | 0.00 | 0.00 | 38 | 1012.4 |
| 20260507175218 | 53 | 345 | 9.0 | 13.0 | 0.00 | 0.00 | 0.00 | 40 | 1012.3 |
| 20260507175122 | 53 | 337 | 7.0 | 13.0 | 0.00 | 0.00 | 0.00 | 38 | 1012.4 |
| 20260507175011 | 53 | 340 | 3.0 | 13.0 | 0.00 | 0.00 | 0.00 | 39 | 1012.3 |
| 20260507174913 | 53 | 5 | 6.0 | 13.0 | 0.00 | 0.00 | 0.00 | 36 | 1012.3 |
| 20260507174815 | 53 | 360 | 9.0 | 13.0 | 0.00 | 0.00 | 0.00 | 38 | 1012.3 |
| 20260507174721 | 53 | 336 | 8.0 | 13.0 | 0.00 | 0.00 | 0.00 | 39 | 1012.5 |
| 20260507174626 | 53 | 13 | 6.0 | 12.0 | 0.00 | 0.00 | 0.00 | 40 | 1012.4 |
| 20260507174550 | 53 | 355 | 6.0 | 11.0 | 0.00 | 0.00 | 0.00 | 37 | 1012.4 |
| 20260507174415 | 53 | 25 | 5.0 | 11.0 | 0.00 | 0.00 | 0.00 | 40 | 1012.4 |
| 20260507174339 | 53 | 343 | 4.0 | 10.0 | 0.00 | 0.00 | 0.00 | 39 | 1012.4 |
| 20260507174224 | 53 | 355 | 4.0 | 10.0 | 0.00 | 0.00 | 0.00 | 38 | 1012.4 |
| 20260507174109 | 53 | 251 | 5.0 | 11.0 | 0.00 | 0.00 | 0.00 | 37 | 1012.3 |
| 20260507174030 | 53 | 276 | 5.0 | 11.0 | 0.00 | 0.00 | 0.00 | 40 | 1012.3 |
| 20260507173907 | 53 | 343 | 5.0 | 11.0 | 0.00 | 0.00 | 0.00 | 42 | 1012.4 |
| 20260507173810 | 53 | 355 | 4.0 | 11.0 | 0.00 | 0.00 | 0.00 | 39 | 1012.4 |
| 20260507173718 | 53 | 9 | 2.0 | 11.0 | 0.00 | 0.00 | 0.00 | 40 | 1012.4 |
| 20260507173620 | 53 | 278 | 4.0 | 11.0 | 0.00 | 0.00 | 0.00 | 44 | 1012.4 |
| 20260507173524 | 52 | 321 | 5.0 | 11.0 | 0.00 | 0.00 | 0.00 | 42 | 1012.4 |
| 20260507173428 | 52 | 5 | 6.0 | 11.0 | 0.00 | 0.00 | 0.00 | 42 | 1012.5 |
| 20260507173309 | 52 | 306 | 5.0 | 11.0 | 0.00 | 0.00 | 0.00 | 39 | 1012.5 |
| 20260507173213 | 52 | 57 | 6.0 | 10.0 | 0.00 | 0.00 | 0.00 | 39 | 1012.5 |
| 20260507173137 | 52 | 18 | 6.0 | 11.0 | 0.00 | 0.00 | 0.00 | 41 | 1012.5 |
| 20260507173023 | 52 | 11 | 5.0 | 12.0 | 0.00 | 0.00 | 0.00 | 43 | 1012.5 |
| 20260507172908 | 52 | 308 | 3.0 | 12.0 | 0.00 | 0.00 | 0.00 | 43 | 1012.5 |
| 20260507172811 | 52 | 17 | 3.0 | 12.0 | 0.00 | 0.00 | 0.00 | 42 | 1012.4 |
| 20260507172715 | 52 | 15 | 4.0 | 12.0 | 0.00 | 0.00 | 0.00 | 39 | 1012.5 |
| 20260507172637 | 52 | 38 | 5.0 | 12.0 | 0.00 | 0.00 | 0.00 | 38 | 1012.5 |
| 20260507172517 | 52 | 46 | 5.0 | 12.0 | 0.00 | 0.00 | 0.00 | 38 | 1012.6 |
| 20260507172417 | 52 | 36 | 6.0 | 12.0 | 0.00 | 0.00 | 0.00 | 39 | 1012.6 |
| 20260507172323 | 52 | 39 | 7.0 | 12.0 | 0.00 | 0.00 | 0.00 | 41 | 1012.6 |
| 20260507172207 | 51 | 344 | 8.0 | 12.0 | 0.00 | 0.00 | 0.00 | 41 | 1012.6 |
| 20260507172131 | 51 | 360 | 8.0 | 12.0 | 0.00 | 0.00 | 0.00 | 41 | 1012.6 |
| 20260507172007 | 51 | 360 | 6.0 | 12.0 | 0.00 | 0.00 | 0.00 | 44 | 1012.6 |
| 20260507171911 | 51 | 341 | 5.0 | 10.0 | 0.00 | 0.00 | 0.00 | 42 | 1012.5 |
| 20260507171816 | 51 | 21 | 5.0 | 10.0 | 0.00 | 0.00 | 0.00 | 42 | 1012.5 |
| 20260507171724 | 51 | 336 | 6.0 | 11.0 | 0.00 | 0.00 | 0.00 | 43 | 1012.5 |
| 20260507171648 | 51 | 54 | 6.0 | 11.0 | 0.00 | 0.00 | 0.00 | 40 | 1012.6 |
| 20260507171507 | 51 | 32 | 6.0 | 11.0 | 0.00 | 0.00 | 0.00 | 43 | 1012.6 |
| 20260507171432 | 51 | 69 | 4.0 | 11.0 | 0.00 | 0.00 | 0.00 | 41 | 1012.6 |
| 20260507171311 | 51 | 65 | 3.0 | 11.0 | 0.00 | 0.00 | 0.00 | 39 | 1012.5 |
| 20260507171235 | 51 | 121 | 5.0 | 12.0 | 0.00 | 0.00 | 0.00 | 38 | 1012.5 |
| 20260507171116 | 51 | 110 | 6.0 | 12.0 | 0.00 | 0.00 | 0.00 | 40 | 1012.5 |
| 20260507171022 | 51 | 88 | 7.0 | 12.0 | 0.00 | 0.00 | 0.00 | 42 | 1012.6 |
| 20260507170905 | 51 | 65 | 8.0 | 12.0 | 0.00 | 0.00 | 0.00 | 41 | 1012.7 |
| 20260507170829 | 51 | 71 | 7.0 | 12.0 | 0.00 | 0.00 | 0.00 | 39 | 1012.6 |
| 20260507170711 | 51 | 87 | 6.0 | 12.0 | 0.00 | 0.00 | 0.00 | 39 | 1012.6 |
| 20260507170612 | 52 | 77 | 5.0 | 12.0 | 0.00 | 0.00 | 0.00 | 39 | 1012.7 |
| 20260507170533 | 52 | 61 | 6.0 | 12.0 | 0.00 | 0.00 | 0.00 | 39 | 1012.7 |
| 20260507170413 | 52 | 58 | 6.0 | 12.0 | 0.00 | 0.00 | 0.00 | 39 | 1012.8 |
| 20260507170317 | 52 | 71 | 5.0 | 12.0 | 0.00 | 0.00 | 0.00 | 41 | 1012.7 |
| 20260507170222 | 52 | 36 | 6.0 | 12.0 | 0.00 | 0.00 | 0.00 | 40 | 1012.7 |
| 20260507170126 | 52 | 320 | 9.0 | 12.0 | 0.00 | 0.00 | 0.00 | 42 | 1012.7 |
| 20260507170008 | 52 | 22 | 7.0 | 12.0 | 0.00 | 0.00 | 0.00 | 43 | 1012.8 |
| 20260507165932 | 52 | 10 | 6.0 | 12.0 | 0.00 | 0.00 | 0.00 | 42 | 1012.7 |
| 20260507165807 | 52 | 335 | 5.0 | 9.0 | 0.00 | 0.00 | 0.00 | 43 | 1012.7 |
| 20260507165711 | 52 | 42 | 5.0 | 9.0 | 0.00 | 0.00 | 0.00 | 44 | 1012.8 |
| 20260507165620 | 52 | 9 | 4.0 | 9.0 | 0.00 | 0.00 | 0.00 | 43 | 1012.8 |
| 20260507165541 | 51 | 290 | 4.0 | 6.0 | 0.00 | 0.00 | 0.00 | 43 | 1012.8 |
| 20260507165424 | 51 | 16 | 3.0 | 5.0 | 0.00 | 0.00 | 0.00 | 44 | 1012.9 |
| 20260507165347 | 51 | 321 | 3.0 | 5.0 | 0.00 | 0.00 | 0.00 | 45 | 1012.7 |
| 20260507165251 | 51 | 5 | 3.0 | 7.0 | 0.00 | 0.00 | 0.00 | 43 | 1012.8 |
| 20260507165107 | 51 | 166 | 1.0 | 8.0 | 0.00 | 0.00 | 0.00 | 46 | 1012.8 |
| 20260507165011 | 51 | 166 | 1.0 | 8.0 | 0.00 | 0.00 | 0.00 | 45 | 1012.8 |
| 20260507164936 | 51 | 166 | 1.0 | 8.0 | 0.00 | 0.00 | 0.00 | 44 | 1012.8 |
| 20260507164822 | 51 | 166 | 1.0 | 8.0 | 0.00 | 0.00 | 0.00 | 45 | 1012.8 |
| 20260507164726 | 51 | 166 | 1.0 | 11.0 | 0.00 | 0.00 | 0.00 | 41 | 1012.8 |
| 20260507164627 | 51 | 142 | 3.0 | 11.0 | 0.00 | 0.00 | 0.00 | 40 | 1012.7 |
| 20260507164509 | 51 | 142 | 5.0 | 12.0 | 0.00 | 0.00 | 0.00 | 41 | 1012.8 |
| 20260507164433 | 51 | 121 | 4.0 | 12.0 | 0.00 | 0.00 | 0.00 | 41 | 1012.8 |
| 20260507164316 | 51 | 96 | 4.0 | 12.0 | 0.00 | 0.00 | 0.00 | 42 | 1013.0 |
| 20260507164240 | 51 | 67 | 5.0 | 12.0 | 0.00 | 0.00 | 0.00 | 44 | 1013.0 |
| 20260507164107 | 51 | 46 | 5.0 | 12.0 | 0.00 | 0.00 | 0.00 | 42 | 1013.1 |
| 20260507164010 | 51 | 355 | 5.0 | 12.0 | 0.00 | 0.00 | 0.00 | 43 | 1013.0 |
| 20260507163934 | 51 | 344 | 8.0 | 12.0 | 0.00 | 0.00 | 0.00 | 41 | 1013.0 |
| 20260507163817 | 51 | 342 | 9.0 | 12.0 | 0.00 | 0.00 | 0.00 | 40 | 1013.1 |
| 20260507163737 | 51 | 360 | 7.0 | 12.0 | 0.00 | 0.00 | 0.00 | 41 | 1013.1 |
| 20260507163621 | 51 | 360 | 3.0 | 11.0 | 0.00 | 0.00 | 0.00 | 43 | 1013.1 |
| 20260507163508 | 51 | 24 | 3.0 | 11.0 | 0.00 | 0.00 | 0.00 | 45 | 1013.0 |
| 20260507163412 | 50 | 14 | 5.0 | 12.0 | 0.00 | 0.00 | 0.00 | 41 | 1013.1 |
| 20260507163313 | 50 | 355 | 6.0 | 12.0 | 0.00 | 0.00 | 0.00 | 41 | 1013.1 |
| 20260507163215 | 50 | 45 | 8.0 | 12.0 | 0.00 | 0.00 | 0.00 | 41 | 1013.1 |
| 20260507163116 | 50 | 360 | 8.0 | 12.0 | 0.00 | 0.00 | 0.00 | 40 | 1013.1 |
| 20260507163017 | 50 | 360 | 6.0 | 12.0 | 0.00 | 0.00 | 0.00 | 41 | 1013.1 |
| 20260507162938 | 50 | 206 | 4.0 | 12.0 | 0.00 | 0.00 | 0.00 | 39 | 1013.1 |
| 20260507162824 | 51 | 12 | 5.0 | 12.0 | 0.00 | 0.00 | 0.00 | 40 | 1013.0 |
| 20260507162723 | 51 | 26 | 7.0 | 12.0 | 0.00 | 0.00 | 0.00 | 43 | 1013.3 |
| 20260507162627 | 51 | 335 | 7.0 | 12.0 | 0.00 | 0.00 | 0.00 | 41 | 1013.2 |
| 20260507162508 | 51 | 338 | 7.0 | 12.0 | 0.00 | 0.00 | 0.00 | 42 | 1013.2 |
| 20260507162413 | 51 | 332 | 7.0 | 12.0 | 0.00 | 0.00 | 0.00 | 44 | 1013.2 |
| 20260507162337 | 51 | 294 | 5.0 | 11.0 | 0.00 | 0.00 | 0.00 | 46 | 1013.2 |
| 20260507162220 | 50 | 355 | 6.0 | 9.0 | 0.00 | 0.00 | 0.00 | 44 | 1013.2 |
| 20260507162127 | 50 | 63 | 6.0 | 9.0 | 0.00 | 0.00 | 0.00 | 43 | 1013.2 |
| 20260507162011 | 50 | 51 | 4.0 | 9.0 | 0.00 | 0.00 | 0.00 | 45 | 1013.2 |
| 20260507161914 | 50 | 69 | 3.0 | 8.0 | 0.00 | 0.00 | 0.00 | 43 | 1013.2 |
| 20260507161839 | 50 | 25 | 5.0 | 8.0 | 0.00 | 0.00 | 0.00 | 42 | 1013.1 |
| 20260507161719 | 50 | 78 | 6.0 | 10.0 | 0.00 | 0.00 | 0.00 | 41 | 1013.2 |
| 20260507161642 | 50 | 79 | 4.0 | 11.0 | 0.00 | 0.00 | 0.00 | 43 | 1013.2 |
| 20260507161545 | 50 | 92 | 3.0 | 11.0 | 0.00 | 0.00 | 0.00 | 41 | 1013.2 |
| 20260507161411 | 50 | 64 | 3.0 | 11.0 | 0.00 | 0.00 | 0.00 | 44 | 1013.2 |
| 20260507161335 | 50 | 110 | 3.0 | 11.0 | 0.00 | 0.00 | 0.00 | 45 | 1013.2 |
| 20260507161239 | 50 | 71 | 3.0 | 11.0 | 0.00 | 0.00 | 0.00 | 45 | 1013.3 |
| 20260507161124 | 50 | 44 | 4.0 | 11.0 | 0.00 | 0.00 | 0.00 | 44 | 1013.2 |
| 20260507161029 | 50 | 30 | 6.0 | 11.0 | 0.00 | 0.00 | 0.00 | 40 | 1013.3 |
| 20260507160931 | 50 | 70 | 5.0 | 11.0 | 0.00 | 0.00 | 0.00 | 43 | 1013.2 |
| 20260507160808 | 50 | 69 | 4.0 | 10.0 | 0.00 | 0.00 | 0.00 | 42 | 1013.2 |
| 20260507160709 | 50 | 60 | 3.0 | 10.0 | 0.00 | 0.00 | 0.00 | 45 | 1013.2 |
| 20260507160617 | 50 | 76 | 3.0 | 10.0 | 0.00 | 0.00 | 0.00 | 43 | 1013.3 |
| 20260507160521 | 50 | 277 | 5.0 | 11.0 | 0.00 | 0.00 | 0.00 | 42 | 1013.2 |
| 20260507160426 | 50 | 30 | 6.0 | 11.0 | 0.00 | 0.00 | 0.00 | 48 | 1013.3 |
| 20260507160328 | 50 | 338 | 6.0 | 11.0 | 0.00 | 0.00 | 0.00 | 46 | 1013.2 |
| 20260507160211 | 50 | 325 | 7.0 | 13.0 | 0.00 | 0.00 | 0.00 | 45 | 1013.2 |
| 20260507160114 | 49 | 297 | 8.0 | 13.0 | 0.00 | 0.00 | 0.00 | 45 | 1013.2 |
| 20260507160022 | 49 | 280 | 7.0 | 13.0 | 0.00 | 0.00 | 0.00 | 44 | 1013.2 |
| 20260507155946 | 49 | 355 | 7.0 | 13.0 | 0.00 | 0.00 | 0.00 | 46 | 1013.1 |
| 20260507155828 | 49 | 304 | 6.0 | 13.0 | 0.00 | 0.00 | 0.00 | 43 | 1013.3 |
| 20260507155752 | 49 | 338 | 8.0 | 13.0 | 0.00 | 0.00 | 0.00 | 45 | 1013.3 |
| 20260507155608 | 49 | 331 | 8.0 | 13.0 | 0.00 | 0.00 | 0.00 | 45 | 1013.3 |
| 20260507155512 | 49 | 321 | 8.0 | 13.0 | 0.00 | 0.00 | 0.00 | 49 | 1013.2 |
| 20260507155416 | 49 | 305 | 7.0 | 13.0 | 0.00 | 0.00 | 0.00 | 46 | 1013.2 |
| 20260507155324 | 49 | 287 | 6.0 | 11.0 | 0.00 | 0.00 | 0.00 | 45 | 1013.2 |
| 20260507155207 | 49 | 298 | 5.0 | 10.0 | 0.00 | 0.00 | 0.00 | 45 | 1013.2 |
| 20260507155110 | 49 | 311 | 3.0 | 8.0 | 0.00 | 0.00 | 0.00 | 47 | 1013.2 |
| 20260507155014 | 49 | 329 | 3.0 | 9.0 | 0.00 | 0.00 | 0.00 | 49 | 1013.3 |
| 20260507154917 | 49 | 86 | 2.0 | 9.0 | 0.00 | 0.00 | 0.00 | 46 | 1013.3 |
| 20260507154821 | 49 | 57 | 3.0 | 9.0 | 0.00 | 0.00 | 0.00 | 46 | 1013.2 |
| 20260507154729 | 49 | 57 | 4.0 | 9.0 | 0.00 | 0.00 | 0.00 | 46 | 1013.3 |
| 20260507154606 | 49 | 65 | 5.0 | 9.0 | 0.00 | 0.00 | 0.00 | 45 | 1013.3 |
| 20260507154510 | 49 | 71 | 5.0 | 9.0 | 0.00 | 0.00 | 0.00 | 47 | 1013.3 |
| 20260507154433 | 49 | 69 | 4.0 | 9.0 | 0.00 | 0.00 | 0.00 | 48 | 1013.3 |
| 20260507154316 | 49 | 47 | 5.0 | 9.0 | 0.00 | 0.00 | 0.00 | 48 | 1013.2 |
| 20260507154239 | 49 | 360 | 4.0 | 9.0 | 0.00 | 0.00 | 0.00 | 49 | 1013.3 |
| 20260507154123 | 49 | 26 | 3.0 | 5.0 | 0.00 | 0.00 | 0.00 | 48 | 1013.3 |
| 20260507154011 | 48 | 325 | 3.0 | 5.0 | 0.00 | 0.00 | 0.00 | 49 | 1013.2 |
| 20260507153914 | 48 | 319 | 4.0 | 5.0 | 0.00 | 0.00 | 0.00 | 49 | 1013.3 |
| 20260507153818 | 48 | 5 | 4.0 | 5.0 | 0.00 | 0.00 | 0.00 | 48 | 1013.3 |
| 20260507153721 | 48 | 338 | 3.0 | 5.0 | 0.00 | 0.00 | 0.00 | 49 | 1013.3 |
| 20260507153605 | 48 | 327 | 2.0 | 5.0 | 0.00 | 0.00 | 0.00 | 48 | 1013.3 |
| 20260507153509 | 48 | 290 | 2.0 | 9.0 | 0.00 | 0.00 | 0.00 | 47 | 1013.3 |
| 20260507153417 | 48 | 338 | 3.0 | 9.0 | 0.00 | 0.00 | 0.00 | 48 | 1013.3 |
| 20260507153321 | 48 | 336 | 3.0 | 9.0 | 0.00 | 0.00 | 0.00 | 48 | 1013.3 |
| 20260507153225 | 48 | 344 | 3.0 | 9.0 | 0.00 | 0.00 | 0.00 | 49 | 1013.3 |
| 20260507153128 | 48 | 246 | 3.0 | 9.0 | 0.00 | 0.00 | 0.00 | 48 | 1013.3 |
| 20260507153012 | 48 | 247 | 2.0 | 10.0 | 0.00 | 0.00 | 0.00 | 51 | 1013.3 |
| 20260507152933 | 48 | 70 | 3.0 | 10.0 | 0.00 | 0.00 | 0.00 | 48 | 1013.3 |
| 20260507152817 | 48 | 70 | 4.0 | 12.0 | 0.00 | 0.00 | 0.00 | 48 | 1013.3 |
| 20260507152744 | 48 | 30 | 5.0 | 13.0 | 0.00 | 0.00 | 0.00 | 49 | 1013.4 |
| 20260507152608 | 48 | 331 | 4.0 | 13.0 | 0.00 | 0.00 | 0.00 | 50 | 1013.3 |
| 20260507152532 | 48 | 300 | 3.0 | 13.0 | 0.00 | 0.00 | 0.00 | 48 | 1013.4 |
| 20260507152414 | 48 | 279 | 5.0 | 13.0 | 0.00 | 0.00 | 0.00 | 47 | 1013.3 |
| 20260507152318 | 48 | 277 | 6.0 | 13.0 | 0.00 | 0.00 | 0.00 | 49 | 1013.3 |
| 20260507152241 | 48 | 275 | 6.0 | 13.0 | 0.00 | 0.00 | 0.00 | 50 | 1013.4 |
| 20260507152144 | 48 | 32 | 7.0 | 13.0 | 0.00 | 0.00 | 0.00 | 47 | 1013.4 |
| 20260507152010 | 48 | 19 | 6.0 | 13.0 | 0.00 | 0.00 | 0.00 | 48 | 1013.4 |
| 20260507151914 | 48 | 5 | 5.0 | 13.0 | 0.00 | 0.00 | 0.00 | 50 | 1013.4 |
| 20260507151818 | 47 | 30 | 6.0 | 11.0 | 0.00 | 0.00 | 0.00 | 49 | 1013.4 |
| 20260507151723 | 47 | 338 | 5.0 | 13.0 | 0.00 | 0.00 | 0.00 | 50 | 1013.3 |
| 20260507151608 | 47 | 19 | 4.0 | 13.0 | 0.00 | 0.00 | 0.00 | 49 | 1013.3 |
| 20260507151511 | 47 | 322 | 3.0 | 13.0 | 0.00 | 0.00 | 0.00 | 50 | 1013.3 |
| 20260507151434 | 47 | 289 | 4.0 | 13.0 | 0.00 | 0.00 | 0.00 | 49 | 1013.4 |
| 20260507151321 | 47 | 28 | 4.0 | 13.0 | 0.00 | 0.00 | 0.00 | 47 | 1013.4 |
| 20260507151206 | 47 | 338 | 3.0 | 13.0 | 0.00 | 0.00 | 0.00 | 51 | 1013.4 |
| 20260507151109 | 47 | 303 | 4.0 | 13.0 | 0.00 | 0.00 | 0.00 | 51 | 1013.4 |
| 20260507151014 | 47 | 325 | 7.0 | 13.0 | 0.00 | 0.00 | 0.00 | 49 | 1013.4 |
| 20260507150918 | 47 | 290 | 8.0 | 13.0 | 0.00 | 0.00 | 0.00 | 51 | 1013.4 |
| 20260507150841 | 47 | 294 | 4.0 | 11.0 | 0.00 | 0.00 | 0.00 | 50 | 1013.4 |
| 20260507150728 | 47 | 329 | 2.0 | 8.0 | 0.00 | 0.00 | 0.00 | 49 | 1013.4 |
| 20260507150630 | 47 | 288 | 1.0 | 8.0 | 0.00 | 0.00 | 0.00 | 49 | 1013.4 |
| 20260507150506 | 47 | 288 | 3.0 | 9.0 | 0.00 | 0.00 | 0.00 | 51 | 1013.4 |
| 20260507150410 | 47 | 292 | 5.0 | 9.0 | 0.00 | 0.00 | 0.00 | 51 | 1013.4 |
| 20260507150333 | 47 | 298 | 5.0 | 9.0 | 0.00 | 0.00 | 0.00 | 50 | 1013.5 |
| 20260507150236 | 47 | 325 | 3.0 | 9.0 | 0.00 | 0.00 | 0.00 | 51 | 1013.5 |
| 20260507150118 | 47 | 342 | 3.0 | 9.0 | 0.00 | 0.00 | 0.00 | 51 | 1013.4 |
| 20260507150006 | 47 | 285 | 5.0 | 10.0 | 0.00 | 0.00 | 0.00 | 49 | 1013.4 |
| 20260507145929 | 47 | 292 | 7.0 | 10.0 | 0.00 | 0.00 | 0.00 | 50 | 1013.4 |
| 20260507145812 | 47 | 298 | 7.0 | 10.0 | 0.00 | 0.00 | 0.00 | 51 | 1013.3 |
| 20260507145736 | 47 | 273 | 6.0 | 10.0 | 0.00 | 0.00 | 0.00 | 50 | 1013.4 |
| 20260507145620 | 47 | 313 | 5.0 | 10.0 | 0.00 | 0.00 | 0.00 | 52 | 1013.4 |
| 20260507145544 | 47 | 339 | 5.0 | 10.0 | 0.00 | 0.00 | 0.00 | 52 | 1013.4 |
| 20260507145407 | 47 | 9 | 7.0 | 10.0 | 0.00 | 0.00 | 0.00 | 50 | 1013.4 |
| 20260507145309 | 47 | 344 | 6.0 | 10.0 | 0.00 | 0.00 | 0.00 | 50 | 1013.4 |
| 20260507145217 | 47 | 294 | 5.0 | 10.0 | 0.00 | 0.00 | 0.00 | 50 | 1013.4 |
| 20260507145121 | 47 | 292 | 5.0 | 8.0 | 0.00 | 0.00 | 0.00 | 51 | 1013.5 |
| 20260507145024 | 47 | 360 | 5.0 | 8.0 | 0.00 | 0.00 | 0.00 | 52 | 1013.5 |
| 20260507144928 | 47 | 5 | 4.0 | 8.0 | 0.00 | 0.00 | 0.00 | 53 | 1013.5 |
| 20260507144805 | 47 | 44 | 2.0 | 8.0 | 0.00 | 0.00 | 0.00 | 53 | 1013.5 |
| 20260507144709 | 46 | 44 | 2.0 | 8.0 | 0.00 | 0.00 | 0.00 | 54 | 1013.5 |
| 20260507144618 | 46 | 71 | 2.0 | 8.0 | 0.00 | 0.00 | 0.00 | 54 | 1013.5 |
| 20260507144523 | 46 | 72 | 2.0 | 8.0 | 0.00 | 0.00 | 0.00 | 51 | 1013.5 |
| 20260507144407 | 46 | 70 | 2.0 | 8.0 | 0.00 | 0.00 | 0.00 | 53 | 1013.4 |
| 20260507144310 | 46 | 44 | 3.0 | 8.0 | 0.00 | 0.00 | 0.00 | 54 | 1013.5 |
| 20260507144214 | 46 | 40 | 4.0 | 8.0 | 0.00 | 0.00 | 0.00 | 51 | 1013.5 |
| 20260507144118 | 46 | 38 | 5.0 | 8.0 | 0.00 | 0.00 | 0.00 | 51 | 1013.6 |
| 20260507144005 | 46 | 55 | 4.0 | 8.0 | 0.00 | 0.00 | 0.00 | 51 | 1013.5 |
| 20260507143909 | 46 | 30 | 4.0 | 8.0 | 0.00 | 0.00 | 0.00 | 54 | 1013.5 |
| 20260507143831 | 46 | 355 | 3.0 | 6.0 | 0.00 | 0.00 | 0.00 | 54 | 1013.6 |
| 20260507143714 | 46 | 16 | 2.0 | 7.0 | 0.00 | 0.00 | 0.00 | 53 | 1013.5 |
| 20260507143618 | 46 | 20 | 2.0 | 6.0 | 0.00 | 0.00 | 0.00 | 52 | 1013.4 |
| 20260507143521 | 46 | 17 | 3.0 | 6.0 | 0.00 | 0.00 | 0.00 | 52 | 1013.5 |
| 20260507143429 | 46 | 5 | 4.0 | 6.0 | 0.00 | 0.00 | 0.00 | 54 | 1013.4 |
| 20260507143306 | 46 | 360 | 3.0 | 6.0 | 0.00 | 0.00 | 0.00 | 54 | 1013.5 |
| 20260507143209 | 46 | 336 | 2.0 | 5.0 | 0.00 | 0.00 | 0.00 | 54 | 1013.4 |
| 20260507143113 | 46 | 46 | 3.0 | 7.0 | 0.00 | 0.00 | 0.00 | 53 | 1013.4 |
| 20260507143038 | 46 | 26 | 4.0 | 7.0 | 0.00 | 0.00 | 0.00 | 53 | 1013.4 |
| 20260507142919 | 46 | 35 | 3.0 | 7.0 | 0.00 | 0.00 | 0.00 | 56 | 1013.5 |
| 20260507142808 | 46 | 360 | 3.0 | 7.0 | 0.00 | 0.00 | 0.00 | 55 | 1013.5 |
| 20260507142732 | 46 | 290 | 4.0 | 7.0 | 0.00 | 0.00 | 0.00 | 55 | 1013.4 |
| 20260507142615 | 46 | 264 | 3.0 | 7.0 | 0.00 | 0.00 | 0.00 | 57 | 1013.5 |
| 20260507142539 | 46 | 276 | 3.0 | 7.0 | 0.00 | 0.00 | 0.00 | 58 | 1013.4 |
| 20260507142422 | 46 | 273 | 4.0 | 7.0 | 0.00 | 0.00 | 0.00 | 57 | 1013.5 |
| 20260507142326 | 45 | 257 | 4.0 | 7.0 | 0.00 | 0.00 | 0.00 | 56 | 1013.5 |
| 20260507142209 | 45 | 241 | 3.0 | 6.0 | 0.00 | 0.00 | 0.00 | 55 | 1013.5 |
| 20260507142133 | 45 | 276 | 3.0 | 6.0 | 0.00 | 0.00 | 0.00 | 56 | 1013.5 |
| 20260507142020 | 45 | 277 | 4.0 | 6.0 | 0.00 | 0.00 | 0.00 | 56 | 1013.5 |
| 20260507141924 | 45 | 292 | 3.0 | 6.0 | 0.00 | 0.00 | 0.00 | 56 | 1013.5 |
| 20260507141806 | 45 | 295 | 1.0 | 6.0 | 0.00 | 0.00 | 0.00 | 56 | 1013.5 |
| 20260507141709 | 45 | 342 | 1.0 | 6.0 | 0.00 | 0.00 | 0.00 | 55 | 1013.5 |
| 20260507141614 | 45 | 341 | 2.0 | 6.0 | 0.00 | 0.00 | 0.00 | 56 | 1013.5 |
| 20260507141518 | 45 | 340 | 3.0 | 6.0 | 0.00 | 0.00 | 0.00 | 55 | 1013.5 |
| 20260507141406 | 45 | 327 | 3.0 | 6.0 | 0.00 | 0.00 | 0.00 | 55 | 1013.5 |
| 20260507141310 | 45 | 321 | 4.0 | 5.0 | 0.00 | 0.00 | 0.00 | 57 | 1013.5 |
| 20260507141213 | 45 | 321 | 4.0 | 5.0 | 0.00 | 0.00 | 0.00 | 57 | 1013.5 |
| 20260507141137 | 45 | 303 | 2.0 | 5.0 | 0.00 | 0.00 | 0.00 | 58 | 1013.5 |
| 20260507141019 | 45 | 236 | 1.0 | 5.0 | 0.00 | 0.00 | 0.00 | 58 | 1013.6 |
| 20260507140922 | 45 | 238 | 2.0 | 5.0 | 0.00 | 0.00 | 0.00 | 59 | 1013.6 |
| 20260507140826 | 44 | 219 | 2.0 | 8.0 | 0.00 | 0.00 | 0.00 | 59 | 1013.6 |
| 20260507140729 | 44 | 217 | 2.0 | 8.0 | 0.00 | 0.00 | 0.00 | 58 | 1013.6 |
| 20260507140616 | 44 | 355 | 3.0 | 8.0 | 0.00 | 0.00 | 0.00 | 58 | 1013.7 |
| 20260507140540 | 44 | 345 | 3.0 | 8.0 | 0.00 | 0.00 | 0.00 | 59 | 1013.7 |
| 20260507140442 | 44 | 336 | 3.0 | 8.0 | 0.00 | 0.00 | 0.00 | 61 | 1013.8 |
| 20260507140305 | 44 | 287 | 2.0 | 8.0 | 0.00 | 0.00 | 0.00 | 58 | 1013.8 |
| 20260507140210 | 44 | 288 | 3.0 | 8.0 | 0.00 | 0.00 | 0.00 | 59 | 1013.7 |
| 20260507140114 | 44 | 281 | 4.0 | 8.0 | 0.00 | 0.00 | 0.00 | 58 | 1013.7 |
| 20260507140017 | 44 | 301 | 4.0 | 8.0 | 0.00 | 0.00 | 0.00 | 59 | 1013.7 |
| 20260507135925 | 44 | 298 | 4.0 | 8.0 | 0.00 | 0.00 | 0.00 | 59 | 1013.7 |
| 20260507135848 | 44 | 289 | 4.0 | 8.0 | 0.00 | 0.00 | 0.00 | 59 | 1013.7 |
| 20260507135752 | 44 | 302 | 4.0 | 8.0 | 0.00 | 0.00 | 0.00 | 60 | 1013.8 |
| 20260507135605 | 44 | 297 | 5.0 | 8.0 | 0.00 | 0.00 | 0.00 | 60 | 1013.7 |
| 20260507135508 | 44 | 297 | 5.0 | 8.0 | 0.00 | 0.00 | 0.00 | 61 | 1013.7 |
| 20260507135411 | 44 | 264 | 6.0 | 8.0 | 0.00 | 0.00 | 0.00 | 60 | 1013.7 |
| 20260507135334 | 44 | 292 | 6.0 | 8.0 | 0.00 | 0.00 | 0.00 | 61 | 1013.7 |
| 20260507135236 | 44 | 273 | 5.0 | 6.0 | 0.00 | 0.00 | 0.00 | 62 | 1013.7 |
| 20260507135121 | 44 | 281 | 4.0 | 6.0 | 0.00 | 0.00 | 0.00 | 62 | 1013.7 |
| 20260507135005 | 44 | 282 | 4.0 | 7.0 | 0.00 | 0.00 | 0.00 | 61 | 1013.8 |
| 20260507134908 | 44 | 308 | 4.0 | 7.0 | 0.00 | 0.00 | 0.00 | 61 | 1013.8 |
| 20260507134811 | 44 | 290 | 3.0 | 7.0 | 0.00 | 0.00 | 0.00 | 62 | 1013.8 |
| 20260507134714 | 43 | 327 | 3.0 | 6.0 | 0.00 | 0.00 | 0.00 | 63 | 1013.8 |
| 20260507134617 | 43 | 291 | 4.0 | 6.0 | 0.00 | 0.00 | 0.00 | 62 | 1013.8 |
| 20260507134524 | 43 | 313 | 3.0 | 7.0 | 0.00 | 0.00 | 0.00 | 63 | 1013.8 |
| 20260507134426 | 43 | 350 | 2.0 | 6.0 | 0.00 | 0.00 | 0.00 | 63 | 1013.8 |
| 20260507134310 | 43 | 304 | 3.0 | 6.0 | 0.00 | 0.00 | 0.00 | 64 | 1013.7 |
| 20260507134213 | 43 | 325 | 3.0 | 6.0 | 0.00 | 0.00 | 0.00 | 65 | 1013.8 |
| 20260507134117 | 43 | 300 | 3.0 | 6.0 | 0.00 | 0.00 | 0.00 | 65 | 1013.8 |
| 20260507134022 | 43 | 279 | 4.0 | 6.0 | 0.00 | 0.00 | 0.00 | 65 | 1013.8 |
| 20260507133944 | 43 | 293 | 2.0 | 9.0 | 0.00 | 0.00 | 0.00 | 65 | 1013.8 |
| 20260507133851 | 42 | 296 | 2.0 | 9.0 | 0.00 | 0.00 | 0.00 | 66 | 1013.8 |
| 20260507133706 | 42 | 345 | 3.0 | 9.0 | 0.00 | 0.00 | 0.00 | 66 | 1013.8 |
| 20260507133609 | 42 | 344 | 3.0 | 9.0 | 0.00 | 0.00 | 0.00 | 66 | 1013.8 |
| 20260507133513 | 42 | 306 | 3.0 | 9.0 | 0.00 | 0.00 | 0.00 | 67 | 1013.8 |
| 20260507133416 | 42 | 318 | 4.0 | 9.0 | 0.00 | 0.00 | 0.00 | 67 | 1013.8 |
| 20260507133320 | 42 | 298 | 4.0 | 9.0 | 0.00 | 0.00 | 0.00 | 67 | 1013.8 |
| 20260507133208 | 42 | 283 | 6.0 | 9.0 | 0.00 | 0.00 | 0.00 | 67 | 1013.8 |
| 20260507133113 | 42 | 302 | 7.0 | 9.0 | 0.00 | 0.00 | 0.00 | 68 | 1013.8 |
| 20260507133037 | 42 | 294 | 6.0 | 8.0 | 0.00 | 0.00 | 0.00 | 69 | 1013.8 |
| 20260507132921 | 42 | 290 | 4.0 | 8.0 | 0.00 | 0.00 | 0.00 | 70 | 1013.8 |
| 20260507132805 | 41 | 295 | 3.0 | 8.0 | 0.00 | 0.00 | 0.00 | 69 | 1013.9 |
| 20260507132710 | 41 | 304 | 3.0 | 8.0 | 0.00 | 0.00 | 0.00 | 70 | 1013.8 |
| 20260507132619 | 41 | 303 | 4.0 | 8.0 | 0.00 | 0.00 | 0.00 | 71 | 1013.8 |
| 20260507132523 | 41 | 325 | 4.0 | 8.0 | 0.00 | 0.00 | 0.00 | 72 | 1013.8 |
| 20260507132408 | 41 | 302 | 3.0 | 6.0 | 0.00 | 0.00 | 0.00 | 73 | 1013.8 |
| 20260507132311 | 41 | 342 | 2.0 | 6.0 | 0.00 | 0.00 | 0.00 | 73 | 1013.8 |
| 20260507132236 | 41 | 319 | 2.0 | 6.0 | 0.00 | 0.00 | 0.00 | 73 | 1013.8 |
| 20260507132119 | 40 | 331 | 2.0 | 6.0 | 0.00 | 0.00 | 0.00 | 73 | 1013.8 |
| 20260507132005 | 40 | 337 | 3.0 | 6.0 | 0.00 | 0.00 | 0.00 | 72 | 1013.8 |
| 20260507131929 | 40 | 297 | 3.0 | 6.0 | 0.00 | 0.00 | 0.00 | 72 | 1013.9 |
| 20260507131807 | 40 | 300 | 4.0 | 6.0 | 0.00 | 0.00 | 0.00 | 72 | 1013.9 |
| 20260507131731 | 40 | 309 | 5.0 | 6.0 | 0.00 | 0.00 | 0.00 | 72 | 1013.8 |
| 20260507131634 | 40 | 309 | 5.0 | 6.0 | 0.00 | 0.00 | 0.00 | 73 | 1013.8 |
| 20260507131537 | 40 | 317 | 3.0 | 5.0 | 0.00 | 0.00 | 0.00 | 74 | 1013.8 |
| 20260507131420 | 40 | 321 | 3.0 | 4.0 | 0.00 | 0.00 | 0.00 | 75 | 1013.9 |
| 20260507131344 | 40 | 313 | 2.0 | 5.0 | 0.00 | 0.00 | 0.00 | 74 | 1013.9 |
| 20260507131212 | 40 | 350 | 2.0 | 5.0 | 0.00 | 0.00 | 0.00 | 74 | 1013.8 |
| 20260507131115 | 40 | 350 | 2.0 | 5.0 | 0.00 | 0.00 | 0.00 | 74 | 1013.8 |
| 20260507131019 | 39 | 355 | 2.0 | 5.0 | 0.00 | 0.00 | 0.00 | 74 | 1013.8 |
| 20260507130923 | 39 | 342 | 2.0 | 5.0 | 0.00 | 0.00 | 0.00 | 75 | 1013.8 |
| 20260507130828 | 39 | 313 | 3.0 | 5.0 | 0.00 | 0.00 | 0.00 | 75 | 1013.8 |
| 20260507130711 | 39 | 307 | 3.0 | 5.0 | 0.00 | 0.00 | 0.00 | 75 | 1013.8 |
| 20260507130635 | 39 | 304 | 3.0 | 5.0 | 0.00 | 0.00 | 0.00 | 75 | 1013.8 |
| 20260507130523 | 39 | 320 | 4.0 | 5.0 | 0.00 | 0.00 | 0.00 | 76 | 1013.9 |
| 20260507130407 | 39 | 291 | 4.0 | 5.0 | 0.00 | 0.00 | 0.00 | 77 | 1013.8 |
| 20260507130331 | 39 | 293 | 3.0 | 4.0 | 0.00 | 0.00 | 0.00 | 77 | 1013.9 |
| 20260507130208 | 39 | 286 | 1.0 | 4.0 | 0.00 | 0.00 | 0.00 | 79 | 1013.9 |
| 20260507130113 | 39 | 284 | 1.0 | 3.0 | 0.00 | 0.00 | 0.00 | 79 | 1013.9 |
| 20260507130037 | 38 | 284 | 1.0 | 3.0 | 0.00 | 0.00 | 0.00 | 79 | 1013.9 |
| 20260507125920 | 38 | 284 | 1.0 | 3.0 | 0.00 | 0.00 | 0.00 | 79 | 1013.9 |
| 20260507125808 | 38 | 284 | 2.0 | 3.0 | 0.00 | 0.00 | 0.00 | 79 | 1013.9 |
| 20260507125713 | 38 | 284 | 2.0 | 3.0 | 0.00 | 0.00 | 0.00 | 79 | 1013.9 |
| 20260507125617 | 38 | 284 | 2.0 | 3.0 | 0.00 | 0.00 | 0.00 | 79 | 1013.9 |
| 20260507125521 | 38 | 284 | 2.0 | 4.0 | 0.00 | 0.00 | 0.00 | 80 | 1013.9 |
| 20260507125425 | 37 | 284 | 2.0 | 4.0 | 0.00 | 0.00 | 0.00 | 80 | 1013.9 |
| 20260507125313 | 37 | 285 | 2.0 | 4.0 | 0.00 | 0.00 | 0.00 | 80 | 1013.9 |
| 20260507125237 | 37 | 285 | 2.0 | 4.0 | 0.00 | 0.00 | 0.00 | 80 | 1013.9 |
| 20260507125121 | 37 | 285 | 2.0 | 4.0 | 0.00 | 0.00 | 0.00 | 81 | 1013.9 |
| 20260507124910 | 37 | 286 | 2.0 | 4.0 | 0.00 | 0.00 | 0.00 | 81 | 1014.0 |
| 20260507124815 | 37 | 285 | 3.0 | 4.0 | 0.00 | 0.00 | 0.00 | 81 | 1013.9 |
| 20260507124739 | 37 | 285 | 2.0 | 5.0 | 0.00 | 0.00 | 0.00 | 82 | 1013.9 |
| 20260507124607 | 37 | 275 | 2.0 | 5.0 | 0.00 | 0.00 | 0.00 | 83 | 1014.0 |
| 20260507124511 | 37 | 275 | 2.0 | 5.0 | 0.00 | 0.00 | 0.00 | 83 | 1013.9 |
| 20260507124416 | 37 | 275 | 3.0 | 5.0 | 0.00 | 0.00 | 0.00 | 83 | 1014.0 |
| 20260507124320 | 37 | 275 | 2.0 | 5.0 | 0.00 | 0.00 | 0.00 | 84 | 1014.0 |
| 20260507124244 | 36 | 275 | 2.0 | 5.0 | 0.00 | 0.00 | 0.00 | 84 | 1013.9 |
| 20260507124107 | 36 | 284 | 3.0 | 5.0 | 0.00 | 0.00 | 0.00 | 85 | 1013.9 |
| 20260507124031 | 36 | 282 | 3.0 | 5.0 | 0.00 | 0.00 | 0.00 | 85 | 1013.9 |
| 20260507123918 | 36 | 284 | 3.0 | 5.0 | 0.00 | 0.00 | 0.00 | 86 | 1014.0 |
| 20260507123842 | 36 | 269 | 2.0 | 4.0 | 0.00 | 0.00 | 0.00 | 86 | 1014.0 |
| 20260507123706 | 36 | 259 | 2.0 | 4.0 | 0.00 | 0.00 | 0.00 | 87 | 1014.0 |
| 20260507123629 | 35 | 259 | 2.0 | 4.0 | 0.00 | 0.00 | 0.00 | 87 | 1014.0 |
| 20260507123506 | 35 | 259 | 2.0 | 4.0 | 0.00 | 0.00 | 0.00 | 88 | 1014.0 |
| 20260507123430 | 35 | 259 | 2.0 | 4.0 | 0.00 | 0.00 | 0.00 | 88 | 1013.9 |
| 20260507123333 | 35 | 259 | 3.0 | 4.0 | 0.00 | 0.00 | 0.00 | 88 | 1013.9 |
| 20260507123220 | 35 | 258 | 2.0 | 4.0 | 0.00 | 0.00 | 0.00 | 89 | 1013.9 |
| 20260507123125 | 34 | 258 | 2.0 | 4.0 | 0.00 | 0.00 | 0.00 | 89 | 1013.9 |
| 20260507123009 | 34 | 257 | 2.0 | 3.0 | 0.00 | 0.00 | 0.00 | 89 | 1014.0 |
| 20260507122913 | 34 | 257 | 2.0 | 3.0 | 0.00 | 0.00 | 0.00 | 90 | 1014.0 |
| 20260507122818 | 34 | 257 | 2.0 | 3.0 | 0.00 | 0.00 | 0.00 | 90 | 1013.9 |
| 20260507122722 | 34 | 257 | 2.0 | 3.0 | 0.00 | 0.00 | 0.00 | 90 | 1014.0 |
| 20260507122611 | 33 | 257 | 2.0 | 3.0 | 0.00 | 0.00 | 0.00 | 91 | 1013.9 |
| 20260507122515 | 33 | 257 | 2.0 | 3.0 | 0.00 | 0.00 | 0.00 | 91 | 1013.9 |
| 20260507122418 | 33 | 257 | 2.0 | 3.0 | 0.00 | 0.00 | 0.00 | 91 | 1013.9 |
| 20260507122323 | 33 | 257 | 2.0 | 3.0 | 0.00 | 0.00 | 0.00 | 91 | 1013.9 |
| 20260507122208 | 33 | 270 | 2.0 | 3.0 | 0.00 | 0.00 | 0.00 | 90 | 1013.9 |
| 20260507122113 | 32 | 27 | 2.0 | 3.0 | 0.00 | 0.00 | 0.00 | 90 | 1013.9 |
| 20260507122021 | 32 | 35 | 1.0 | 3.0 | 0.00 | 0.00 | 0.00 | 90 | 1013.9 |
| 20260507121906 | 32 | 44 | 1.0 | 3.0 | 0.00 | 0.00 | 0.00 | 91 | 1014.0 |
| 20260507121830 | 32 | 44 | 1.0 | 3.0 | 0.00 | 0.00 | 0.00 | 91 | 1014.0 |
| 20260507121706 | 32 | 44 | 1.0 | 3.0 | 0.00 | 0.00 | 0.00 | 90 | 1014.0 |
| 20260507121610 | 31 | 51 | 2.0 | 3.0 | 0.00 | 0.00 | 0.00 | 90 | 1014.0 |
| 20260507121515 | 31 | 51 | 2.0 | 3.0 | 0.00 | 0.00 | 0.00 | 90 | 1014.0 |
| 20260507121424 | 31 | 51 | 2.0 | 3.0 | 0.00 | 0.00 | 0.00 | 89 | 1013.9 |
| 20260507121327 | 31 | 51 | 2.0 | 3.0 | 0.00 | 0.00 | 0.00 | 90 | 1013.9 |
| 20260507121230 | 31 | 52 | 2.0 | 2.0 | 0.00 | 0.00 | 0.00 | 89 | 1014.0 |
| 20260507121114 | 31 | 52 | 2.0 | 2.0 | 0.00 | 0.00 | 0.00 | 89 | 1013.9 |
| 20260507121019 | 31 | 52 | 2.0 | 2.0 | 0.00 | 0.00 | 0.00 | 90 | 1014.0 |
| 20260507120925 | 31 | 52 | 1.0 | 2.0 | 0.00 | 0.00 | 0.00 | 90 | 1013.9 |
| 20260507120830 | 31 | 52 | 0.0 | 2.0 | 0.00 | 0.00 | 0.00 | 90 | 1013.9 |
| 20260507120738 | 31 | 52 | 0.0 | 0.0 | 0.00 | 0.00 | 0.00 | 90 | 1013.9 |
| 20260507120643 | 31 | 52 | 0.0 | 0.0 | 0.00 | 0.00 | 0.00 | 90 | 1013.9 |
| 20260507120507 | 31 | 52 | 0.0 | 0.0 | 0.00 | 0.00 | 0.00 | 90 | 1014.0 |
| 20260507120432 | 31 | 52 | 0.0 | 0.0 | 0.00 | 0.00 | 0.00 | 90 | 1014.0 |
| 20260507120337 | 30 | 52 | 0.0 | 0.0 | 0.00 | 0.00 | 0.00 | 90 | 1014.0 |
| 20260507120222 | 30 | 52 | 0.0 | 0.0 | 0.00 | 0.00 | 0.00 | 91 | 1014.0 |
| 20260507120127 | 30 | 52 | 0.0 | 0.0 | 0.00 | 0.00 | 0.00 | 91 | 1013.9 |
| 20260507120012 | 30 | 52 | 0.0 | 0.0 | 0.00 | 0.00 | 0.00 | 91 | 1014.0 |
| 20260507115942 | 30 | 52 | 0.0 | 0.0 | 0.00 | 0.00 | 0.00 | 91 | 1013.9 |
| 20260507115806 | 30 | 52 | 0.0 | 0.0 | 0.00 | 0.00 | 0.00 | 91 | 1013.9 |
| 20260507115710 | 30 | 52 | 0.0 | 0.0 | 0.00 | 0.00 | 0.00 | 91 | 1013.9 |
| 20260507115613 | 30 | 52 | 0.0 | 0.0 | 0.00 | 0.00 | 0.00 | 91 | 1013.9 |
| 20260507115532 | 30 | 52 | 0.0 | 0.0 | 0.00 | 0.00 | 0.00 | 91 | 1013.9 |
| 20260507115412 | 29 | 52 | 0.0 | 0.0 | 0.00 | 0.00 | 0.00 | 90 | 1013.9 |
| 20260507115312 | 29 | 52 | 0.0 | 1.0 | 0.00 | 0.00 | 0.00 | 90 | 1013.9 |
| 20260507115217 | 29 | 52 | 0.0 | 1.0 | 0.00 | 0.00 | 0.00 | 90 | 1013.9 |
| 20260507115118 | 29 | 52 | 0.0 | 1.0 | 0.00 | 0.00 | 0.00 | 90 | 1013.9 |
| 20260507115018 | 29 | 52 | 0.0 | 1.0 | 0.00 | 0.00 | 0.00 | 90 | 1013.9 |
| 20260507114939 | 29 | 52 | 0.0 | 1.0 | 0.00 | 0.00 | 0.00 | 90 | 1013.9 |
| 20260507114819 | 29 | 52 | 0.0 | 1.0 | 0.00 | 0.00 | 0.00 | 90 | 1014.0 |
| 20260507114721 | 29 | 52 | 0.0 | 1.0 | 0.00 | 0.00 | 0.00 | 91 | 1013.9 |
| 20260507114642 | 29 | 52 | 0.0 | 1.0 | 0.00 | 0.00 | 0.00 | 91 | 1013.9 |
| 20260507114506 | 29 | 52 | 0.0 | 1.0 | 0.00 | 0.00 | 0.00 | 91 | 1013.9 |
| 20260507114411 | 29 | 70 | 0.0 | 0.0 | 0.00 | 0.00 | 0.00 | 90 | 1013.9 |
| 20260507114314 | 29 | 70 | 0.0 | 0.0 | 0.00 | 0.00 | 0.00 | 90 | 1013.9 |
| 20260507114218 | 29 | 70 | 0.0 | 0.0 | 0.00 | 0.00 | 0.00 | 90 | 1014.0 |
| 20260507114143 | 29 | 70 | 0.0 | 0.0 | 0.00 | 0.00 | 0.00 | 90 | 1014.0 |
| 20260507114005 | 28 | 70 | 0.0 | 0.0 | 0.00 | 0.00 | 0.00 | 90 | 1014.0 |
| 20260507113930 | 28 | 70 | 0.0 | 0.0 | 0.00 | 0.00 | 0.00 | 90 | 1013.9 |
| 20260507113837 | 28 | 70 | 0.0 | 0.0 | 0.00 | 0.00 | 0.00 | 90 | 1014.0 |
| 20260507113721 | 28 | 70 | 0.0 | 0.0 | 0.00 | 0.00 | 0.00 | 90 | 1013.9 |
| 20260507113605 | 28 | 70 | 0.0 | 0.0 | 0.00 | 0.00 | 0.00 | 90 | 1013.9 |
| 20260507113511 | 28 | 70 | 0.0 | 0.0 | 0.00 | 0.00 | 0.00 | 90 | 1014.0 |
| 20260507113414 | 28 | 70 | 0.0 | 0.0 | 0.00 | 0.00 | 0.00 | 90 | 1013.9 |
| 20260507113339 | 28 | 70 | 0.0 | 0.0 | 0.00 | 0.00 | 0.00 | 90 | 1013.9 |
| 20260507113221 | 28 | 70 | 0.0 | 0.0 | 0.00 | 0.00 | 0.00 | 90 | 1013.9 |
| 20260507113109 | 28 | 70 | 0.0 | 0.0 | 0.00 | 0.00 | 0.00 | 89 | 1013.8 |
| 20260507113013 | 28 | 70 | 0.0 | 0.0 | 0.00 | 0.00 | 0.00 | 89 | 1013.8 |
| 20260507112937 | 28 | 70 | 0.0 | 0.0 | 0.00 | 0.00 | 0.00 | 89 | 1013.9 |
| 20260507112819 | 28 | 70 | 0.0 | 0.0 | 0.00 | 0.00 | 0.00 | 89 | 1013.8 |
| 20260507112705 | 28 | 70 | 0.0 | 0.0 | 0.00 | 0.00 | 0.00 | 89 | 1013.9 |
| 20260507112631 | 28 | 70 | 0.0 | 0.0 | 0.00 | 0.00 | 0.00 | 89 | 1013.8 |
| 20260507112520 | 28 | 70 | 0.0 | 0.0 | 0.00 | 0.00 | 0.00 | 89 | 1014.0 |
| 20260507112425 | 28 | 70 | 0.0 | 0.0 | 0.00 | 0.00 | 0.00 | 89 | 1013.8 |
| 20260507112310 | 28 | 70 | 0.0 | 0.0 | 0.00 | 0.00 | 0.00 | 89 | 1013.8 |
| 20260507112215 | 28 | 70 | 0.0 | 0.0 | 0.00 | 0.00 | 0.00 | 89 | 1013.8 |
| 20260507112122 | 28 | 70 | 0.0 | 0.0 | 0.00 | 0.00 | 0.00 | 89 | 1013.8 |
| 20260507112007 | 28 | 70 | 0.0 | 0.0 | 0.00 | 0.00 | 0.00 | 89 | 1013.8 |
| 20260507111914 | 28 | 70 | 0.0 | 0.0 | 0.00 | 0.00 | 0.00 | 89 | 1013.8 |
| 20260507111818 | 28 | 70 | 0.0 | 0.0 | 0.00 | 0.00 | 0.00 | 89 | 1013.8 |
| 20260507111723 | 28 | 70 | 0.0 | 0.0 | 0.00 | 0.00 | 0.00 | 88 | 1013.9 |
| 20260507111607 | 28 | 70 | 0.0 | 0.0 | 0.00 | 0.00 | 0.00 | 88 | 1013.8 |
| 20260507111511 | 28 | 70 | 0.0 | 0.0 | 0.00 | 0.00 | 0.00 | 88 | 1013.9 |
| 20260507111435 | 28 | 70 | 0.0 | 0.0 | 0.00 | 0.00 | 0.00 | 88 | 1013.9 |
| 20260507111322 | 28 | 70 | 0.0 | 0.0 | 0.00 | 0.00 | 0.00 | 88 | 1013.9 |
| 20260507111225 | 28 | 70 | 0.0 | 0.0 | 0.00 | 0.00 | 0.00 | 88 | 1014.0 |
| 20260507111110 | 28 | 70 | 0.0 | 0.0 | 0.00 | 0.00 | 0.00 | 88 | 1014.0 |
| 20260507111013 | 28 | 70 | 0.0 | 0.0 | 0.00 | 0.00 | 0.00 | 88 | 1013.9 |
| 20260507110917 | 28 | 70 | 0.0 | 0.0 | 0.00 | 0.00 | 0.00 | 88 | 1013.9 |
| 20260507110821 | 28 | 70 | 0.0 | 0.0 | 0.00 | 0.00 | 0.00 | 88 | 1014.0 |
| 20260507110708 | 28 | 70 | 0.0 | 0.0 | 0.00 | 0.00 | 0.00 | 88 | 1014.0 |
| 20260507110613 | 28 | 70 | 0.0 | 0.0 | 0.00 | 0.00 | 0.00 | 88 | 1014.0 |
| 20260507110538 | 28 | 70 | 0.0 | 0.0 | 0.00 | 0.00 | 0.00 | 88 | 1014.0 |
| 20260507110422 | 28 | 70 | 0.0 | 0.0 | 0.00 | 0.00 | 0.00 | 88 | 1013.9 |
| 20260507110345 | 28 | 70 | 0.0 | 0.0 | 0.00 | 0.00 | 0.00 | 88 | 1014.0 |
| 20260507110209 | 29 | 70 | 0.0 | 0.0 | 0.00 | 0.00 | 0.00 | 88 | 1014.0 |
| 20260507110132 | 29 | 70 | 0.0 | 0.0 | 0.00 | 0.00 | 0.00 | 88 | 1014.0 |
| 20260507110019 | 29 | 70 | 0.0 | 0.0 | 0.00 | 0.00 | 0.00 | 88 | 1014.0 |
| 20260507105924 | 29 | 70 | 0.0 | 0.0 | 0.00 | 0.00 | 0.00 | 88 | 1014.0 |
| 20260507105827 | 29 | 70 | 0.0 | 1.0 | 0.00 | 0.00 | 0.00 | 88 | 1014.0 |
| 20260507105710 | 29 | 70 | 0.0 | 2.0 | 0.00 | 0.00 | 0.00 | 88 | 1014.0 |
| 20260507105635 | 29 | 360 | 0.0 | 2.0 | 0.00 | 0.00 | 0.00 | 88 | 1014.0 |
| 20260507105517 | 29 | 360 | 0.0 | 2.0 | 0.00 | 0.00 | 0.00 | 88 | 1014.0 |
| 20260507105420 | 29 | 360 | 0.0 | 2.0 | 0.00 | 0.00 | 0.00 | 88 | 1013.9 |
| 20260507105307 | 29 | 51 | 0.0 | 3.0 | 0.00 | 0.00 | 0.00 | 89 | 1013.9 |
| 20260507105231 | 29 | 51 | 0.0 | 3.0 | 0.00 | 0.00 | 0.00 | 89 | 1013.9 |
| 20260507105113 | 29 | 51 | 0.0 | 3.0 | 0.00 | 0.00 | 0.00 | 89 | 1013.9 |
| 20260507105016 | 29 | 51 | 1.0 | 3.0 | 0.00 | 0.00 | 0.00 | 89 | 1014.0 |
| 20260507104920 | 29 | 51 | 1.0 | 3.0 | 0.00 | 0.00 | 0.00 | 89 | 1013.9 |
| 20260507104822 | 29 | 51 | 1.0 | 3.0 | 0.00 | 0.00 | 0.00 | 89 | 1014.0 |
| 20260507104746 | 29 | 51 | 1.0 | 3.0 | 0.00 | 0.00 | 0.00 | 89 | 1013.9 |
| 20260507104632 | 29 | 51 | 1.0 | 3.0 | 0.00 | 0.00 | 0.00 | 89 | 1013.8 |
| 20260507104508 | 29 | 51 | 2.0 | 3.0 | 0.00 | 0.00 | 0.00 | 89 | 1013.9 |
| 20260507104411 | 29 | 51 | 2.0 | 3.0 | 0.00 | 0.00 | 0.00 | 89 | 1013.8 |
| 20260507104314 | 29 | 51 | 3.0 | 3.0 | 0.00 | 0.00 | 0.00 | 89 | 1013.9 |
| 20260507104217 | 29 | 51 | 3.0 | 3.0 | 0.00 | 0.00 | 0.00 | 89 | 1013.8 |
| 20260507104120 | 29 | 51 | 2.0 | 3.0 | 0.00 | 0.00 | 0.00 | 89 | 1013.9 |
| 20260507104006 | 29 | 51 | 2.0 | 3.0 | 0.00 | 0.00 | 0.00 | 89 | 1013.8 |
| 20260507103930 | 29 | 51 | 1.0 | 2.0 | 0.00 | 0.00 | 0.00 | 88 | 1013.8 |
| 20260507103832 | 29 | 51 | 1.0 | 2.0 | 0.00 | 0.00 | 0.00 | 88 | 1013.7 |
| 20260507103708 | 29 | 51 | 1.0 | 2.0 | 0.00 | 0.00 | 0.00 | 89 | 1013.8 |
| 20260507103612 | 29 | 51 | 1.0 | 2.0 | 0.00 | 0.00 | 0.00 | 89 | 1013.8 |
| 20260507103515 | 29 | 51 | 1.0 | 2.0 | 0.00 | 0.00 | 0.00 | 89 | 1013.8 |
| 20260507103438 | 29 | 51 | 1.0 | 2.0 | 0.00 | 0.00 | 0.00 | 89 | 1013.8 |
| 20260507103341 | 29 | 51 | 1.0 | 2.0 | 0.00 | 0.00 | 0.00 | 89 | 1013.8 |
| 20260507103206 | 29 | 51 | 1.0 | 3.0 | 0.00 | 0.00 | 0.00 | 89 | 1013.8 |
| 20260507103109 | 29 | 51 | 1.0 | 3.0 | 0.00 | 0.00 | 0.00 | 89 | 1013.8 |
| 20260507103012 | 29 | 51 | 1.0 | 3.0 | 0.00 | 0.00 | 0.00 | 89 | 1013.8 |
| 20260507102914 | 29 | 51 | 1.0 | 4.0 | 0.00 | 0.00 | 0.00 | 89 | 1013.8 |
| 20260507102817 | 29 | 51 | 1.0 | 4.0 | 0.00 | 0.00 | 0.00 | 89 | 1013.8 |
| 20260507102721 | 29 | 51 | 2.0 | 4.0 | 0.00 | 0.00 | 0.00 | 89 | 1013.8 |
| 20260507102607 | 29 | 51 | 2.0 | 4.0 | 0.00 | 0.00 | 0.00 | 89 | 1013.8 |
| 20260507102530 | 29 | 51 | 2.0 | 4.0 | 0.00 | 0.00 | 0.00 | 89 | 1013.8 |
| 20260507102432 | 29 | 51 | 2.0 | 4.0 | 0.00 | 0.00 | 0.00 | 89 | 1013.9 |
| 20260507102315 | 29 | 51 | 2.0 | 4.0 | 0.00 | 0.00 | 0.00 | 89 | 1013.8 |
| 20260507102238 | 29 | 51 | 3.0 | 4.0 | 0.00 | 0.00 | 0.00 | 89 | 1013.9 |
| 20260507102120 | 29 | 51 | 3.0 | 4.0 | 0.00 | 0.00 | 0.00 | 89 | 1013.8 |
| 20260507102044 | 29 | 51 | 3.0 | 4.0 | 0.00 | 0.00 | 0.00 | 89 | 1013.9 |
| 20260507101910 | 29 | 51 | 3.0 | 4.0 | 0.00 | 0.00 | 0.00 | 89 | 1013.9 |
| 20260507101813 | 29 | 51 | 3.0 | 4.0 | 0.00 | 0.00 | 0.00 | 89 | 1013.9 |
| 20260507101714 | 29 | 51 | 2.0 | 4.0 | 0.00 | 0.00 | 0.00 | 90 | 1013.9 |
| 20260507101615 | 29 | 263 | 0.0 | 2.0 | 0.00 | 0.00 | 0.00 | 89 | 1013.9 |
| 20260507101516 | 29 | 263 | 0.0 | 2.0 | 0.00 | 0.00 | 0.00 | 90 | 1013.9 |
| 20260507101416 | 29 | 263 | 0.0 | 2.0 | 0.00 | 0.00 | 0.00 | 89 | 1013.8 |
| 20260507101320 | 29 | 263 | 0.0 | 2.0 | 0.00 | 0.00 | 0.00 | 89 | 1013.7 |
| 20260507101206 | 29 | 263 | 0.0 | 3.0 | 0.00 | 0.00 | 0.00 | 89 | 1013.8 |
| 20260507101130 | 29 | 263 | 0.0 | 3.0 | 0.00 | 0.00 | 0.00 | 89 | 1013.8 |
| 20260507101006 | 29 | 263 | 1.0 | 3.0 | 0.00 | 0.00 | 0.00 | 89 | 1013.7 |
| 20260507100929 | 29 | 263 | 1.0 | 3.0 | 0.00 | 0.00 | 0.00 | 89 | 1013.8 |
| 20260507100830 | 29 | 263 | 1.0 | 3.0 | 0.00 | 0.00 | 0.00 | 89 | 1013.8 |
| 20260507100714 | 29 | 263 | 1.0 | 3.0 | 0.00 | 0.00 | 0.00 | 89 | 1013.8 |
| 20260507100618 | 29 | 263 | 1.0 | 3.0 | 0.00 | 0.00 | 0.00 | 89 | 1013.8 |
| 20260507100507 | 29 | 263 | 2.0 | 3.0 | 0.00 | 0.00 | 0.00 | 89 | 1013.7 |
| 20260507100430 | 29 | 263 | 2.0 | 3.0 | 0.00 | 0.00 | 0.00 | 89 | 1013.8 |
| 20260507100333 | 29 | 263 | 2.0 | 3.0 | 0.00 | 0.00 | 0.00 | 89 | 1013.8 |
| 20260507100208 | 29 | 263 | 2.0 | 3.0 | 0.00 | 0.00 | 0.00 | 89 | 1013.8 |
| 20260507100111 | 29 | 263 | 2.0 | 3.0 | 0.00 | 0.00 | 0.00 | 89 | 1013.7 |
| 20260507100036 | 29 | 263 | 2.0 | 3.0 | 0.00 | 0.00 | 0.00 | 89 | 1013.8 |
| 20260507095920 | 29 | 263 | 2.0 | 3.0 | 0.00 | 0.00 | 0.00 | 89 | 1013.8 |
| 20260507095809 | 29 | 263 | 2.0 | 3.0 | 0.00 | 0.00 | 0.00 | 89 | 1013.8 |
| 20260507095713 | 29 | 263 | 2.0 | 3.0 | 0.00 | 0.00 | 0.00 | 89 | 1013.8 |
| 20260507095618 | 29 | 263 | 2.0 | 2.0 | 0.00 | 0.00 | 0.00 | 89 | 1013.8 |
| 20260507095521 | 29 | 263 | 1.0 | 2.0 | 0.00 | 0.00 | 0.00 | 89 | 1013.9 |
| 20260507095446 | 29 | 263 | 1.0 | 2.0 | 0.00 | 0.00 | 0.00 | 89 | 1013.9 |
| 20260507095308 | 29 | 263 | 0.0 | 0.0 | 0.00 | 0.00 | 0.00 | 89 | 1013.9 |
| 20260507095237 | 29 | 263 | 0.0 | 0.0 | 0.00 | 0.00 | 0.00 | 89 | 1013.8 |
| 20260507095121 | 29 | 263 | 0.0 | 0.0 | 0.00 | 0.00 | 0.00 | 89 | 1013.9 |
| 20260507095006 | 29 | 263 | 0.0 | 0.0 | 0.00 | 0.00 | 0.00 | 89 | 1013.9 |
| 20260507094911 | 29 | 263 | 0.0 | 0.0 | 0.00 | 0.00 | 0.00 | 89 | 1013.9 |
| 20260507094815 | 29 | 263 | 0.0 | 0.0 | 0.00 | 0.00 | 0.00 | 89 | 1013.9 |
| 20260507094720 | 29 | 263 | 0.0 | 0.0 | 0.00 | 0.00 | 0.00 | 89 | 1013.9 |
| 20260507094608 | 29 | 263 | 0.0 | 0.0 | 0.00 | 0.00 | 0.00 | 89 | 1013.9 |
| 20260507094533 | 29 | 263 | 0.0 | 0.0 | 0.00 | 0.00 | 0.00 | 89 | 1014.0 |
| 20260507094418 | 29 | 263 | 0.0 | 0.0 | 0.00 | 0.00 | 0.00 | 89 | 1014.0 |
| 20260507094342 | 29 | 263 | 0.0 | 0.0 | 0.00 | 0.00 | 0.00 | 89 | 1013.9 |
| 20260507094207 | 29 | 263 | 0.0 | 0.0 | 0.00 | 0.00 | 0.00 | 89 | 1013.9 |
| 20260507094111 | 29 | 263 | 0.0 | 0.0 | 0.00 | 0.00 | 0.00 | 89 | 1014.0 |
| 20260507094035 | 29 | 263 | 0.0 | 0.0 | 0.00 | 0.00 | 0.00 | 89 | 1013.9 |
| 20260507093923 | 29 | 263 | 0.0 | 0.0 | 0.00 | 0.00 | 0.00 | 89 | 1013.9 |
| 20260507093845 | 29 | 263 | 0.0 | 0.0 | 0.00 | 0.00 | 0.00 | 89 | 1013.9 |
| 20260507093710 | 29 | 263 | 0.0 | 0.0 | 0.00 | 0.00 | 0.00 | 89 | 1014.0 |
| 20260507093614 | 29 | 263 | 0.0 | 0.0 | 0.00 | 0.00 | 0.00 | 89 | 1014.0 |
| 20260507093519 | 29 | 263 | 0.0 | 0.0 | 0.00 | 0.00 | 0.00 | 89 | 1013.9 |
| 20260507093444 | 29 | 263 | 0.0 | 0.0 | 0.00 | 0.00 | 0.00 | 89 | 1014.0 |
| 20260507093307 | 29 | 263 | 0.0 | 0.0 | 0.00 | 0.00 | 0.00 | 89 | 1013.9 |
| 20260507093237 | 29 | 263 | 0.0 | 0.0 | 0.00 | 0.00 | 0.00 | 89 | 1013.9 |
| 20260507093118 | 29 | 263 | 0.0 | 0.0 | 0.00 | 0.00 | 0.00 | 89 | 1013.9 |
| 20260507093024 | 29 | 263 | 0.0 | 0.0 | 0.00 | 0.00 | 0.00 | 89 | 1013.9 |
| 20260507092927 | 29 | 263 | 0.0 | 0.0 | 0.00 | 0.00 | 0.00 | 89 | 1013.9 |
| 20260507092811 | 29 | 263 | 0.0 | 0.0 | 0.00 | 0.00 | 0.00 | 90 | 1014.0 |
| 20260507092714 | 29 | 263 | 0.0 | 0.0 | 0.00 | 0.00 | 0.00 | 90 | 1014.0 |
| 20260507092620 | 29 | 263 | 0.0 | 0.0 | 0.00 | 0.00 | 0.00 | 90 | 1014.0 |
| 20260507092508 | 29 | 263 | 0.0 | 0.0 | 0.00 | 0.00 | 0.00 | 90 | 1014.0 |
| 20260507092411 | 29 | 263 | 0.0 | 0.0 | 0.00 | 0.00 | 0.00 | 90 | 1014.0 |
| 20260507092315 | 29 | 263 | 0.0 | 0.0 | 0.00 | 0.00 | 0.00 | 90 | 1014.0 |
| 20260507092220 | 29 | 263 | 0.0 | 0.0 | 0.00 | 0.00 | 0.00 | 90 | 1014.0 |
| 20260507092122 | 29 | 263 | 0.0 | 0.0 | 0.00 | 0.00 | 0.00 | 90 | 1014.0 |
| 20260507092012 | 29 | 263 | 0.0 | 1.0 | 0.00 | 0.00 | 0.00 | 90 | 1013.9 |
| 20260507091915 | 29 | 263 | 0.0 | 1.0 | 0.00 | 0.00 | 0.00 | 90 | 1014.0 |
| 20260507091841 | 29 | 263 | 0.0 | 1.0 | 0.00 | 0.00 | 0.00 | 90 | 1014.0 |
| 20260507091706 | 29 | 263 | 0.0 | 1.0 | 0.00 | 0.00 | 0.00 | 90 | 1014.0 |
| 20260507091632 | 29 | 263 | 0.0 | 1.0 | 0.00 | 0.00 | 0.00 | 90 | 1014.0 |
| 20260507091536 | 29 | 263 | 0.0 | 1.0 | 0.00 | 0.00 | 0.00 | 90 | 1014.0 |
| 20260507091421 | 29 | 263 | 0.0 | 1.0 | 0.00 | 0.00 | 0.00 | 90 | 1014.0 |
| 20260507091311 | 29 | 263 | 0.0 | 1.0 | 0.00 | 0.00 | 0.00 | 90 | 1013.9 |
| 20260507091217 | 29 | 263 | 0.0 | 1.0 | 0.00 | 0.00 | 0.00 | 90 | 1014.0 |
| 20260507091123 | 28 | 263 | 0.0 | 1.0 | 0.00 | 0.00 | 0.00 | 90 | 1014.0 |
| 20260507091007 | 28 | 263 | 0.0 | 0.0 | 0.00 | 0.00 | 0.00 | 90 | 1014.0 |
| 20260507090934 | 28 | 263 | 0.0 | 0.0 | 0.00 | 0.00 | 0.00 | 90 | 1014.0 |
| 20260507090818 | 28 | 263 | 0.0 | 1.0 | 0.00 | 0.00 | 0.00 | 90 | 1013.9 |
| 20260507090706 | 29 | 263 | 0.0 | 1.0 | 0.00 | 0.00 | 0.00 | 90 | 1013.9 |
| 20260507090612 | 28 | 263 | 0.0 | 1.0 | 0.00 | 0.00 | 0.00 | 90 | 1013.9 |
| 20260507090517 | 28 | 263 | 0.0 | 2.0 | 0.00 | 0.00 | 0.00 | 90 | 1014.0 |
| 20260507090424 | 28 | 263 | 0.0 | 2.0 | 0.00 | 0.00 | 0.00 | 90 | 1013.9 |
| 20260507090309 | 28 | 263 | 0.0 | 2.0 | 0.00 | 0.00 | 0.00 | 90 | 1013.9 |
| 20260507090234 | 28 | 263 | 0.0 | 2.0 | 0.00 | 0.00 | 0.00 | 90 | 1013.9 |
| 20260507090137 | 28 | 263 | 0.0 | 2.0 | 0.00 | 0.00 | 0.00 | 90 | 1013.9 |
| 20260507090025 | 28 | 263 | 0.0 | 2.0 | 0.00 | 0.00 | 0.00 | 90 | 1013.9 |
| 20260507085950 | 28 | 263 | 1.0 | 2.0 | 0.00 | 0.00 | 0.00 | 90 | 1013.9 |
| 20260507085806 | 28 | 263 | 1.0 | 3.0 | 0.00 | 0.00 | 0.00 | 90 | 1013.9 |
| 20260507085710 | 28 | 263 | 2.0 | 3.0 | 0.00 | 0.00 | 0.00 | 90 | 1013.9 |
| 20260507085615 | 28 | 263 | 2.0 | 3.0 | 0.00 | 0.00 | 0.00 | 90 | 1014.0 |
| 20260507085520 | 28 | 263 | 2.0 | 3.0 | 0.00 | 0.00 | 0.00 | 90 | 1013.9 |
| 20260507085409 | 28 | 263 | 2.0 | 3.0 | 0.00 | 0.00 | 0.00 | 90 | 1013.8 |
| 20260507085334 | 28 | 263 | 2.0 | 3.0 | 0.00 | 0.00 | 0.00 | 90 | 1013.9 |
| 20260507085218 | 28 | 263 | 2.0 | 3.0 | 0.00 | 0.00 | 0.00 | 90 | 1013.9 |
| 20260507085121 | 28 | 263 | 2.0 | 3.0 | 0.00 | 0.00 | 0.00 | 90 | 1013.9 |
| 20260507085045 | 28 | 263 | 2.0 | 3.0 | 0.00 | 0.00 | 0.00 | 90 | 1013.9 |
| 20260507084929 | 28 | 263 | 2.0 | 3.0 | 0.00 | 0.00 | 0.00 | 90 | 1013.8 |
| 20260507084833 | 28 | 263 | 2.0 | 3.0 | 0.00 | 0.00 | 0.00 | 90 | 1013.8 |
| 20260507084736 | 28 | 263 | 2.0 | 3.0 | 0.00 | 0.00 | 0.00 | 89 | 1013.8 |
| 20260507084619 | 28 | 263 | 2.0 | 3.0 | 0.00 | 0.00 | 0.00 | 89 | 1013.8 |
| 20260507084508 | 28 | 263 | 1.0 | 3.0 | 0.00 | 0.00 | 0.00 | 89 | 1013.8 |
| 20260507084414 | 28 | 263 | 2.0 | 3.0 | 0.00 | 0.00 | 0.00 | 89 | 1013.8 |
| 20260507084338 | 28 | 263 | 2.0 | 3.0 | 0.00 | 0.00 | 0.00 | 89 | 1013.9 |
| 20260507084221 | 28 | 263 | 2.0 | 3.0 | 0.00 | 0.00 | 0.00 | 89 | 1013.9 |
| 20260507084126 | 28 | 263 | 2.0 | 3.0 | 0.00 | 0.00 | 0.00 | 89 | 1013.8 |
| 20260507084031 | 28 | 263 | 2.0 | 3.0 | 0.00 | 0.00 | 0.00 | 89 | 1013.8 |
| 20260507083934 | 28 | 263 | 2.0 | 3.0 | 0.00 | 0.00 | 0.00 | 89 | 1013.8 |
| 20260507083821 | 28 | 263 | 2.0 | 3.0 | 0.00 | 0.00 | 0.00 | 89 | 1013.8 |
| 20260507083705 | 28 | 272 | 2.0 | 3.0 | 0.00 | 0.00 | 0.00 | 89 | 1013.8 |
| 20260507083609 | 28 | 272 | 2.0 | 3.0 | 0.00 | 0.00 | 0.00 | 89 | 1013.8 |
| 20260507083514 | 28 | 272 | 1.0 | 3.0 | 0.00 | 0.00 | 0.00 | 89 | 1013.8 |
| 20260507083438 | 28 | 272 | 1.0 | 3.0 | 0.00 | 0.00 | 0.00 | 89 | 1013.9 |
| 20260507083322 | 28 | 272 | 1.0 | 3.0 | 0.00 | 0.00 | 0.00 | 89 | 1013.9 |
| 20260507083211 | 28 | 272 | 2.0 | 3.0 | 0.00 | 0.00 | 0.00 | 89 | 1013.9 |
| 20260507083114 | 28 | 272 | 2.0 | 3.0 | 0.00 | 0.00 | 0.00 | 89 | 1013.9 |
| 20260507083018 | 28 | 272 | 2.0 | 3.0 | 0.00 | 0.00 | 0.00 | 89 | 1013.9 |
| 20260507082922 | 28 | 272 | 2.0 | 3.0 | 0.00 | 0.00 | 0.00 | 89 | 1013.9 |
| 20260507082806 | 28 | 272 | 1.0 | 2.0 | 0.00 | 0.00 | 0.00 | 88 | 1013.9 |
| 20260507082710 | 28 | 272 | 1.0 | 2.0 | 0.00 | 0.00 | 0.00 | 89 | 1013.9 |
| 20260507082635 | 28 | 272 | 1.0 | 2.0 | 0.00 | 0.00 | 0.00 | 89 | 1013.9 |
| 20260507082522 | 28 | 272 | 1.0 | 2.0 | 0.00 | 0.00 | 0.00 | 89 | 1013.9 |
| 20260507082446 | 28 | 272 | 1.0 | 2.0 | 0.00 | 0.00 | 0.00 | 89 | 1013.9 |
| 20260507082309 | 28 | 272 | 1.0 | 2.0 | 0.00 | 0.00 | 0.00 | 89 | 1013.9 |
| 20260507082212 | 28 | 272 | 1.0 | 2.0 | 0.00 | 0.00 | 0.00 | 88 | 1013.9 |
| 20260507082117 | 28 | 272 | 1.0 | 2.0 | 0.00 | 0.00 | 0.00 | 88 | 1013.9 |
| 20260507082019 | 28 | 272 | 1.0 | 3.0 | 0.00 | 0.00 | 0.00 | 88 | 1013.9 |
| 20260507081929 | 28 | 272 | 1.0 | 3.0 | 0.00 | 0.00 | 0.00 | 88 | 1013.8 |
| 20260507081805 | 28 | 272 | 1.0 | 3.0 | 0.00 | 0.00 | 0.00 | 88 | 1013.9 |
| 20260507081709 | 28 | 272 | 1.0 | 3.0 | 0.00 | 0.00 | 0.00 | 88 | 1013.9 |
| 20260507081613 | 28 | 272 | 1.0 | 3.0 | 0.00 | 0.00 | 0.00 | 88 | 1013.9 |
| 20260507081517 | 28 | 272 | 1.0 | 3.0 | 0.00 | 0.00 | 0.00 | 88 | 1013.9 |
| 20260507081420 | 28 | 272 | 2.0 | 3.0 | 0.00 | 0.00 | 0.00 | 88 | 1013.9 |
| 20260507081329 | 28 | 272 | 2.0 | 3.0 | 0.00 | 0.00 | 0.00 | 88 | 1013.9 |
| 20260507081206 | 28 | 272 | 2.0 | 3.0 | 0.00 | 0.00 | 0.00 | 88 | 1013.9 |
| 20260507081110 | 28 | 272 | 2.0 | 3.0 | 0.00 | 0.00 | 0.00 | 88 | 1013.9 |
| 20260507081012 | 28 | 275 | 2.0 | 2.0 | 0.00 | 0.00 | 0.00 | 88 | 1013.9 |
| 20260507080916 | 28 | 276 | 1.0 | 2.0 | 0.00 | 0.00 | 0.00 | 88 | 1014.0 |
| 20260507080821 | 28 | 276 | 1.0 | 2.0 | 0.00 | 0.00 | 0.00 | 88 | 1013.9 |
| 20260507080729 | 28 | 276 | 1.0 | 2.0 | 0.00 | 0.00 | 0.00 | 88 | 1013.9 |
| 20260507080606 | 28 | 276 | 1.0 | 2.0 | 0.00 | 0.00 | 0.00 | 88 | 1014.0 |
| 20260507080529 | 28 | 276 | 1.0 | 2.0 | 0.00 | 0.00 | 0.00 | 88 | 1014.0 |
| 20260507080412 | 28 | 276 | 2.0 | 2.0 | 0.00 | 0.00 | 0.00 | 88 | 1013.9 |
| 20260507080315 | 28 | 276 | 1.0 | 2.0 | 0.00 | 0.00 | 0.00 | 88 | 1014.0 |
| 20260507080240 | 28 | 276 | 1.0 | 2.0 | 0.00 | 0.00 | 0.00 | 88 | 1013.9 |
| 20260507080122 | 28 | 276 | 1.0 | 2.0 | 0.00 | 0.00 | 0.00 | 88 | 1013.9 |
| 20260507080030 | 28 | 276 | 1.0 | 2.0 | 0.00 | 0.00 | 0.00 | 88 | 1013.9 |
| 20260507075905 | 28 | 276 | 1.0 | 2.0 | 0.00 | 0.00 | 0.00 | 88 | 1013.9 |
| 20260507075829 | 28 | 276 | 1.0 | 2.0 | 0.00 | 0.00 | 0.00 | 88 | 1013.8 |
| 20260507075752 | 28 | 276 | 1.0 | 2.0 | 0.00 | 0.00 | 0.00 | 87 | 1013.9 |
| 20260507075608 | 28 | 276 | 1.0 | 2.0 | 0.00 | 0.00 | 0.00 | 87 | 1013.9 |
| 20260507075510 | 28 | 281 | 0.0 | 0.0 | 0.00 | 0.00 | 0.00 | 87 | 1013.9 |
| 20260507075434 | 28 | 281 | 0.0 | 0.0 | 0.00 | 0.00 | 0.00 | 87 | 1013.8 |
| 20260507075338 | 28 | 281 | 0.0 | 0.0 | 0.00 | 0.00 | 0.00 | 87 | 1013.8 |
| 20260507075225 | 28 | 281 | 0.0 | 0.0 | 0.00 | 0.00 | 0.00 | 87 | 1013.8 |
| 20260507075108 | 28 | 281 | 0.0 | 0.0 | 0.00 | 0.00 | 0.00 | 87 | 1013.8 |
| 20260507075013 | 28 | 281 | 0.0 | 0.0 | 0.00 | 0.00 | 0.00 | 87 | 1013.8 |
| 20260507074916 | 28 | 281 | 0.0 | 0.0 | 0.00 | 0.00 | 0.00 | 86 | 1013.8 |
| 20260507074840 | 28 | 281 | 0.0 | 0.0 | 0.00 | 0.00 | 0.00 | 86 | 1013.8 |
| 20260507074724 | 28 | 281 | 0.0 | 0.0 | 0.00 | 0.00 | 0.00 | 86 | 1013.8 |
| 20260507074613 | 28 | 281 | 0.0 | 0.0 | 0.00 | 0.00 | 0.00 | 86 | 1013.8 |
| 20260507074537 | 28 | 281 | 0.0 | 0.0 | 0.00 | 0.00 | 0.00 | 86 | 1013.8 |
| 20260507074420 | 28 | 281 | 0.0 | 0.0 | 0.00 | 0.00 | 0.00 | 86 | 1013.8 |
| 20260507074305 | 29 | 281 | 0.0 | 0.0 | 0.00 | 0.00 | 0.00 | 86 | 1013.9 |
| 20260507074210 | 29 | 281 | 0.0 | 0.0 | 0.00 | 0.00 | 0.00 | 86 | 1013.8 |
| 20260507074116 | 29 | 281 | 0.0 | 0.0 | 0.00 | 0.00 | 0.00 | 86 | 1013.9 |
| 20260507074024 | 29 | 281 | 0.0 | 0.0 | 0.00 | 0.00 | 0.00 | 86 | 1013.8 |
| 20260507073928 | 29 | 281 | 0.0 | 0.0 | 0.00 | 0.00 | 0.00 | 86 | 1013.8 |
| 20260507073812 | 29 | 281 | 0.0 | 0.0 | 0.00 | 0.00 | 0.00 | 86 | 1013.9 |
| 20260507073717 | 29 | 281 | 0.0 | 0.0 | 0.00 | 0.00 | 0.00 | 86 | 1013.8 |
| 20260507073621 | 29 | 281 | 0.0 | 0.0 | 0.00 | 0.00 | 0.00 | 86 | 1013.8 |
| 20260507073526 | 29 | 281 | 0.0 | 0.0 | 0.00 | 0.00 | 0.00 | 86 | 1013.9 |
| 20260507073408 | 29 | 281 | 0.0 | 0.0 | 0.00 | 0.00 | 0.00 | 86 | 1013.9 |
| 20260507073317 | 29 | 281 | 0.0 | 0.0 | 0.00 | 0.00 | 0.00 | 86 | 1013.9 |
| 20260507073222 | 29 | 281 | 0.0 | 0.0 | 0.00 | 0.00 | 0.00 | 86 | 1013.9 |
| 20260507073107 | 29 | 281 | 0.0 | 0.0 | 0.00 | 0.00 | 0.00 | 86 | 1014.0 |
| 20260507073012 | 29 | 281 | 0.0 | 0.0 | 0.00 | 0.00 | 0.00 | 86 | 1013.9 |
| 20260507072916 | 29 | 281 | 0.0 | 0.0 | 0.00 | 0.00 | 0.00 | 86 | 1014.0 |
| 20260507072820 | 29 | 281 | 0.0 | 0.0 | 0.00 | 0.00 | 0.00 | 86 | 1014.0 |
| 20260507072729 | 29 | 281 | 0.0 | 0.0 | 0.00 | 0.00 | 0.00 | 86 | 1014.1 |
| 20260507072605 | 29 | 281 | 0.0 | 0.0 | 0.00 | 0.00 | 0.00 | 86 | 1014.0 |
| 20260507072528 | 29 | 281 | 0.0 | 0.0 | 0.00 | 0.00 | 0.00 | 86 | 1014.1 |
| 20260507072405 | 29 | 281 | 0.0 | 0.0 | 0.00 | 0.00 | 0.00 | 86 | 1014.1 |
| 20260507072330 | 29 | 281 | 0.0 | 0.0 | 0.00 | 0.00 | 0.00 | 86 | 1014.1 |
| 20260507072214 | 29 | 281 | 0.0 | 0.0 | 0.00 | 0.00 | 0.00 | 86 | 1014.1 |
| 20260507072122 | 29 | 281 | 0.0 | 0.0 | 0.00 | 0.00 | 0.00 | 86 | 1014.1 |
| 20260507072027 | 30 | 281 | 0.0 | 0.0 | 0.00 | 0.00 | 0.00 | 86 | 1014.1 |
| 20260507071910 | 30 | 281 | 0.0 | 0.0 | 0.00 | 0.00 | 0.00 | 85 | 1014.2 |
| 20260507071835 | 30 | 281 | 0.0 | 0.0 | 0.00 | 0.00 | 0.00 | 85 | 1014.2 |
| 20260507071739 | 30 | 281 | 0.0 | 0.0 | 0.00 | 0.00 | 0.00 | 85 | 1014.1 |
| 20260507071623 | 30 | 281 | 0.0 | 0.0 | 0.00 | 0.00 | 0.00 | 85 | 1014.3 |
| 20260507071506 | 30 | 281 | 0.0 | 0.0 | 0.00 | 0.00 | 0.00 | 85 | 1014.2 |
| 20260507071415 | 30 | 281 | 0.0 | 0.0 | 0.00 | 0.00 | 0.00 | 85 | 1014.2 |
| 20260507071318 | 30 | 281 | 0.0 | 0.0 | 0.00 | 0.00 | 0.00 | 85 | 1014.3 |
| 20260507071222 | 30 | 281 | 0.0 | 0.0 | 0.00 | 0.00 | 0.00 | 85 | 1014.3 |
| 20260507071106 | 30 | 281 | 0.0 | 0.0 | 0.00 | 0.00 | 0.00 | 85 | 1014.3 |
| 20260507071010 | 30 | 281 | 0.0 | 0.0 | 0.00 | 0.00 | 0.00 | 85 | 1014.3 |
| 20260507070936 | 30 | 281 | 0.0 | 0.0 | 0.00 | 0.00 | 0.00 | 85 | 1014.3 |
| 20260507070818 | 30 | 281 | 0.0 | 0.0 | 0.00 | 0.00 | 0.00 | 84 | 1014.3 |
| 20260507070707 | 30 | 281 | 0.0 | 0.0 | 0.00 | 0.00 | 0.00 | 84 | 1014.3 |
| 20260507070630 | 30 | 281 | 0.0 | 0.0 | 0.00 | 0.00 | 0.00 | 84 | 1014.4 |
| 20260507070505 | 30 | 281 | 0.0 | 0.0 | 0.00 | 0.00 | 0.00 | 84 | 1014.3 |
| 20260507070409 | 30 | 281 | 0.0 | 0.0 | 0.00 | 0.00 | 0.00 | 84 | 1014.4 |
| 20260507070313 | 30 | 281 | 0.0 | 0.0 | 0.00 | 0.00 | 0.00 | 84 | 1014.4 |
| 20260507070217 | 30 | 281 | 0.0 | 0.0 | 0.00 | 0.00 | 0.00 | 84 | 1014.4 |
| 20260507070144 | 30 | 281 | 0.0 | 0.0 | 0.00 | 0.00 | 0.00 | 84 | 1014.4 |
| 20260507070010 | 30 | 281 | 0.0 | 0.0 | 0.00 | 0.00 | 0.00 | 84 | 1014.4 |
| 20260507065929 | 30 | 281 | 0.0 | 0.0 | 0.00 | 0.00 | 0.00 | 84 | 1014.4 |
| 20260507065831 | 30 | 281 | 0.0 | 0.0 | 0.00 | 0.00 | 0.00 | 84 | 1014.4 |
| 20260507065713 | 30 | 281 | 0.0 | 0.0 | 0.00 | 0.00 | 0.00 | 83 | 1014.4 |
| 20260507065616 | 30 | 281 | 0.0 | 0.0 | 0.00 | 0.00 | 0.00 | 83 | 1014.5 |
| 20260507065519 | 30 | 281 | 0.0 | 0.0 | 0.00 | 0.00 | 0.00 | 83 | 1014.5 |
| 20260507065406 | 30 | 281 | 0.0 | 0.0 | 0.00 | 0.00 | 0.00 | 83 | 1014.5 |
| 20260507065310 | 30 | 281 | 0.0 | 0.0 | 0.00 | 0.00 | 0.00 | 83 | 1014.5 |
| 20260507065235 | 30 | 281 | 0.0 | 0.0 | 0.00 | 0.00 | 0.00 | 83 | 1014.5 |
| 20260507065119 | 30 | 281 | 0.0 | 0.0 | 0.00 | 0.00 | 0.00 | 82 | 1014.5 |
| 20260507065024 | 30 | 281 | 0.0 | 0.0 | 0.00 | 0.00 | 0.00 | 82 | 1014.5 |
| 20260507064928 | 31 | 281 | 0.0 | 0.0 | 0.00 | 0.00 | 0.00 | 81 | 1014.5 |
| 20260507064811 | 31 | 281 | 0.0 | 0.0 | 0.00 | 0.00 | 0.00 | 81 | 1014.5 |
| 20260507064739 | 31 | 281 | 0.0 | 0.0 | 0.00 | 0.00 | 0.00 | 81 | 1014.5 |
| 20260507064622 | 31 | 281 | 0.0 | 0.0 | 0.00 | 0.00 | 0.00 | 81 | 1014.5 |
| 20260507064527 | 31 | 281 | 0.0 | 0.0 | 0.00 | 0.00 | 0.00 | 81 | 1014.6 |
| 20260507064410 | 31 | 281 | 0.0 | 0.0 | 0.00 | 0.00 | 0.00 | 80 | 1014.5 |
| 20260507064316 | 31 | 281 | 0.0 | 0.0 | 0.00 | 0.00 | 0.00 | 81 | 1014.5 |
| 20260507064219 | 31 | 281 | 0.0 | 0.0 | 0.00 | 0.00 | 0.00 | 80 | 1014.5 |
| 20260507064106 | 31 | 281 | 0.0 | 0.0 | 0.00 | 0.00 | 0.00 | 80 | 1014.6 |
| 20260507064009 | 31 | 281 | 0.0 | 0.0 | 0.00 | 0.00 | 0.00 | 80 | 1014.6 |
| 20260507063929 | 31 | 281 | 0.0 | 0.0 | 0.00 | 0.00 | 0.00 | 80 | 1014.5 |
| 20260507063805 | 31 | 281 | 0.0 | 0.0 | 0.00 | 0.00 | 0.00 | 80 | 1014.6 |
| 20260507063709 | 31 | 281 | 0.0 | 0.0 | 0.00 | 0.00 | 0.00 | 80 | 1014.5 |
| 20260507063613 | 31 | 281 | 0.0 | 0.0 | 0.00 | 0.00 | 0.00 | 80 | 1014.5 |
| 20260507063518 | 31 | 281 | 0.0 | 0.0 | 0.00 | 0.00 | 0.00 | 80 | 1014.6 |
| 20260507063407 | 31 | 281 | 0.0 | 0.0 | 0.00 | 0.00 | 0.00 | 80 | 1014.5 |
| 20260507063330 | 31 | 281 | 0.0 | 0.0 | 0.00 | 0.00 | 0.00 | 80 | 1014.5 |
| 20260507063213 | 32 | 281 | 0.0 | 0.0 | 0.00 | 0.00 | 0.00 | 80 | 1014.5 |
| 20260507063117 | 32 | 281 | 0.0 | 0.0 | 0.00 | 0.00 | 0.00 | 80 | 1014.6 |
| 20260507063022 | 32 | 281 | 0.0 | 0.0 | 0.00 | 0.00 | 0.00 | 80 | 1014.6 |
| 20260507062926 | 32 | 281 | 0.0 | 0.0 | 0.00 | 0.00 | 0.00 | 80 | 1014.6 |
| 20260507062813 | 32 | 281 | 0.0 | 0.0 | 0.00 | 0.00 | 0.00 | 80 | 1014.6 |
| 20260507062715 | 32 | 281 | 0.0 | 0.0 | 0.00 | 0.00 | 0.00 | 80 | 1014.6 |
| 20260507062638 | 32 | 281 | 0.0 | 0.0 | 0.00 | 0.00 | 0.00 | 80 | 1014.6 |
| 20260507062521 | 32 | 281 | 0.0 | 0.0 | 0.00 | 0.00 | 0.00 | 80 | 1014.6 |
| 20260507062424 | 32 | 281 | 0.0 | 0.0 | 0.00 | 0.00 | 0.00 | 80 | 1014.6 |
| 20260507062308 | 32 | 281 | 0.0 | 0.0 | 0.00 | 0.00 | 0.00 | 80 | 1014.6 |
| 20260507062209 | 32 | 281 | 0.0 | 0.0 | 0.00 | 0.00 | 0.00 | 80 | 1014.6 |
| 20260507062114 | 32 | 281 | 0.0 | 0.0 | 0.00 | 0.00 | 0.00 | 80 | 1014.6 |
| 20260507062015 | 32 | 281 | 0.0 | 0.0 | 0.00 | 0.00 | 0.00 | 80 | 1014.7 |
| 20260507061914 | 32 | 281 | 0.0 | 1.0 | 0.00 | 0.00 | 0.00 | 80 | 1014.6 |
| 20260507061815 | 32 | 281 | 0.0 | 1.0 | 0.00 | 0.00 | 0.00 | 80 | 1014.7 |
| 20260507061714 | 32 | 281 | 0.0 | 1.0 | 0.00 | 0.00 | 0.00 | 80 | 1014.6 |
| 20260507061615 | 32 | 281 | 0.0 | 1.0 | 0.00 | 0.00 | 0.00 | 80 | 1014.7 |
| 20260507061520 | 32 | 281 | 0.0 | 1.0 | 0.00 | 0.00 | 0.00 | 80 | 1014.7 |
| 20260507061420 | 33 | 281 | 0.0 | 1.0 | 0.00 | 0.00 | 0.00 | 80 | 1014.7 |
| 20260507061321 | 33 | 281 | 0.0 | 1.0 | 0.00 | 0.00 | 0.00 | 80 | 1014.7 |
| 20260507061222 | 33 | 281 | 0.0 | 1.0 | 0.00 | 0.00 | 0.00 | 80 | 1014.7 |
| 20260507061122 | 33 | 281 | 0.0 | 1.0 | 0.00 | 0.00 | 0.00 | 80 | 1014.7 |
| 20260507061042 | 33 | 281 | 0.0 | 0.0 | 0.00 | 0.00 | 0.00 | 80 | 1014.7 |
| 20260507060922 | 33 | 281 | 0.0 | 0.0 | 0.00 | 0.00 | 0.00 | 80 | 1014.7 |
| 20260507060826 | 33 | 281 | 0.0 | 0.0 | 0.00 | 0.00 | 0.00 | 80 | 1014.7 |
| 20260507060727 | 33 | 281 | 0.0 | 1.0 | 0.00 | 0.00 | 0.00 | 80 | 1014.7 |
| 20260507060608 | 33 | 281 | 0.0 | 2.0 | 0.00 | 0.00 | 0.00 | 80 | 1014.7 |
| 20260507060509 | 33 | 281 | 0.0 | 2.0 | 0.00 | 0.00 | 0.00 | 80 | 1014.7 |
| 20260507060409 | 33 | 281 | 0.0 | 2.0 | 0.00 | 0.00 | 0.00 | 80 | 1014.8 |
| 20260507060309 | 33 | 281 | 0.0 | 2.0 | 0.00 | 0.00 | 0.00 | 80 | 1014.7 |
| 20260507060229 | 33 | 281 | 0.0 | 2.0 | 0.00 | 0.00 | 0.00 | 80 | 1014.8 |
| 20260507060158 | 33 | 281 | 0.0 | 2.0 | 0.00 | 0.00 | 0.00 | 79 | 1014.7 |
| 20260507060007 | 33 | 281 | 1.0 | 2.0 | 0.00 | 0.00 | 0.00 | 80 | 1014.8 |
| 20260507055909 | 33 | 281 | 1.0 | 2.0 | 0.00 | 0.00 | 0.00 | 80 | 1014.8 |
| 20260507055813 | 34 | 281 | 1.0 | 2.0 | 0.00 | 0.00 | 0.00 | 80 | 1014.8 |
| 20260507055715 | 34 | 281 | 1.0 | 2.0 | 0.00 | 0.00 | 0.00 | 80 | 1014.8 |
| 20260507055618 | 34 | 281 | 1.0 | 2.0 | 0.00 | 0.00 | 0.00 | 80 | 1014.8 |
| 20260507055505 | 34 | 281 | 1.0 | 2.0 | 0.00 | 0.00 | 0.00 | 80 | 1014.8 |
| 20260507055409 | 34 | 281 | 1.0 | 2.0 | 0.00 | 0.00 | 0.00 | 80 | 1014.8 |
| 20260507055312 | 34 | 281 | 1.0 | 2.0 | 0.00 | 0.00 | 0.00 | 80 | 1014.8 |
| 20260507055215 | 34 | 281 | 1.0 | 2.0 | 0.00 | 0.00 | 0.00 | 80 | 1014.8 |
| 20260507055119 | 34 | 281 | 1.0 | 2.0 | 0.00 | 0.00 | 0.00 | 80 | 1014.8 |
| 20260507055041 | 34 | 281 | 1.0 | 1.0 | 0.00 | 0.00 | 0.00 | 80 | 1014.8 |
| 20260507054907 | 34 | 281 | 1.0 | 1.0 | 0.00 | 0.00 | 0.00 | 80 | 1014.8 |
| 20260507054831 | 34 | 281 | 1.0 | 2.0 | 0.00 | 0.00 | 0.00 | 80 | 1014.8 |
| 20260507054707 | 34 | 281 | 1.0 | 2.0 | 0.00 | 0.00 | 0.00 | 79 | 1014.9 |
| 20260507054610 | 34 | 281 | 1.0 | 2.0 | 0.00 | 0.00 | 0.00 | 78 | 1014.8 |
| 20260507054513 | 34 | 281 | 1.0 | 2.0 | 0.00 | 0.00 | 0.00 | 78 | 1014.8 |
| 20260507054416 | 34 | 281 | 1.0 | 2.0 | 0.00 | 0.00 | 0.00 | 77 | 1014.9 |
| 20260507054319 | 34 | 281 | 1.0 | 2.0 | 0.00 | 0.00 | 0.00 | 77 | 1014.8 |
| 20260507054207 | 34 | 281 | 1.0 | 2.0 | 0.00 | 0.00 | 0.00 | 77 | 1014.9 |
| 20260507054129 | 34 | 281 | 1.0 | 2.0 | 0.00 | 0.00 | 0.00 | 77 | 1014.9 |
| 20260507054011 | 35 | 281 | 1.0 | 2.0 | 0.00 | 0.00 | 0.00 | 77 | 1014.8 |
| 20260507053915 | 35 | 281 | 1.0 | 2.0 | 0.00 | 0.00 | 0.00 | 77 | 1014.9 |
| 20260507053818 | 35 | 281 | 1.0 | 2.0 | 0.00 | 0.00 | 0.00 | 77 | 1014.9 |
| 20260507053721 | 35 | 281 | 1.0 | 2.0 | 0.00 | 0.00 | 0.00 | 77 | 1014.9 |
| 20260507053608 | 35 | 281 | 1.0 | 1.0 | 0.00 | 0.00 | 0.00 | 77 | 1014.9 |
| 20260507053511 | 35 | 281 | 1.0 | 1.0 | 0.00 | 0.00 | 0.00 | 77 | 1014.9 |
| 20260507053414 | 35 | 281 | 0.0 | 1.0 | 0.00 | 0.00 | 0.00 | 77 | 1014.9 |
| 20260507053317 | 35 | 281 | 0.0 | 1.0 | 0.00 | 0.00 | 0.00 | 77 | 1014.9 |
| 20260507053219 | 35 | 281 | 0.0 | 1.0 | 0.00 | 0.00 | 0.00 | 77 | 1014.9 |
| 20260507053122 | 35 | 281 | 0.0 | 2.0 | 0.00 | 0.00 | 0.00 | 78 | 1014.9 |
| 20260507053029 | 35 | 281 | 0.0 | 2.0 | 0.00 | 0.00 | 0.00 | 78 | 1014.8 |
| 20260507052905 | 35 | 281 | 0.0 | 2.0 | 0.00 | 0.00 | 0.00 | 78 | 1014.9 |
| 20260507052808 | 35 | 281 | 0.0 | 3.0 | 0.00 | 0.00 | 0.00 | 79 | 1014.9 |
| 20260507052711 | 35 | 281 | 0.0 | 3.0 | 0.00 | 0.00 | 0.00 | 79 | 1014.8 |
| 20260507052634 | 35 | 281 | 1.0 | 3.0 | 0.00 | 0.00 | 0.00 | 79 | 1014.9 |
| 20260507052515 | 35 | 281 | 1.0 | 3.0 | 0.00 | 0.00 | 0.00 | 79 | 1014.8 |
| 20260507052439 | 35 | 281 | 1.0 | 3.0 | 0.00 | 0.00 | 0.00 | 80 | 1014.8 |
| 20260507052306 | 36 | 281 | 1.0 | 3.0 | 0.00 | 0.00 | 0.00 | 80 | 1014.9 |
| 20260507052208 | 36 | 281 | 2.0 | 3.0 | 0.00 | 0.00 | 0.00 | 80 | 1014.9 |
| 20260507052111 | 36 | 281 | 2.0 | 3.0 | 0.00 | 0.00 | 0.00 | 80 | 1014.9 |
| 20260507052014 | 36 | 281 | 2.0 | 3.0 | 0.00 | 0.00 | 0.00 | 80 | 1014.9 |
| 20260507051917 | 36 | 281 | 2.0 | 3.0 | 0.00 | 0.00 | 0.00 | 80 | 1014.9 |
| 20260507051819 | 36 | 281 | 2.0 | 3.0 | 0.00 | 0.00 | 0.00 | 80 | 1014.9 |
| 20260507051707 | 36 | 281 | 2.0 | 3.0 | 0.00 | 0.00 | 0.00 | 79 | 1014.9 |
| 20260507051609 | 36 | 281 | 2.0 | 3.0 | 0.00 | 0.00 | 0.00 | 79 | 1014.9 |
| 20260507051532 | 36 | 281 | 2.0 | 3.0 | 0.00 | 0.00 | 0.00 | 79 | 1014.9 |
| 20260507051409 | 36 | 281 | 2.0 | 3.0 | 0.00 | 0.00 | 0.00 | 79 | 1014.9 |
| 20260507051332 | 36 | 281 | 2.0 | 3.0 | 0.00 | 0.00 | 0.00 | 78 | 1014.9 |
| 20260507051208 | 36 | 281 | 2.0 | 3.0 | 0.00 | 0.00 | 0.00 | 79 | 1015.0 |
| 20260507051116 | 36 | 280 | 2.0 | 2.0 | 0.00 | 0.00 | 0.00 | 79 | 1014.9 |
| 20260507051020 | 36 | 280 | 2.0 | 2.0 | 0.00 | 0.00 | 0.00 | 79 | 1014.9 |
| 20260507050924 | 36 | 280 | 2.0 | 2.0 | 0.00 | 0.00 | 0.00 | 78 | 1015.0 |
| 20260507050808 | 36 | 280 | 2.0 | 2.0 | 0.00 | 0.00 | 0.00 | 78 | 1015.0 |
| 20260507050733 | 36 | 280 | 2.0 | 2.0 | 0.00 | 0.00 | 0.00 | 78 | 1015.0 |
| 20260507050609 | 36 | 280 | 1.0 | 2.0 | 0.00 | 0.00 | 0.00 | 77 | 1015.0 |
| 20260507050533 | 36 | 280 | 1.0 | 2.0 | 0.00 | 0.00 | 0.00 | 78 | 1015.0 |
| 20260507050420 | 36 | 280 | 1.0 | 2.0 | 0.00 | 0.00 | 0.00 | 78 | 1015.0 |
| 20260507050323 | 36 | 280 | 1.0 | 2.0 | 0.00 | 0.00 | 0.00 | 79 | 1014.9 |
| 20260507050227 | 36 | 280 | 1.0 | 2.0 | 0.00 | 0.00 | 0.00 | 78 | 1015.0 |
| 20260507050130 | 36 | 280 | 1.0 | 2.0 | 0.00 | 0.00 | 0.00 | 78 | 1015.0 |
| 20260507050029 | 36 | 280 | 1.0 | 2.0 | 0.00 | 0.00 | 0.00 | 78 | 1014.9 |
| 20260507045907 | 36 | 280 | 2.0 | 2.0 | 0.00 | 0.00 | 0.00 | 78 | 1015.0 |
| 20260507045831 | 36 | 280 | 2.0 | 2.0 | 0.00 | 0.00 | 0.00 | 78 | 1015.0 |
| 20260507045719 | 36 | 280 | 2.0 | 2.0 | 0.00 | 0.00 | 0.00 | 77 | 1015.0 |
| 20260507045644 | 36 | 280 | 1.0 | 2.0 | 0.00 | 0.00 | 0.00 | 77 | 1015.0 |
| 20260507045508 | 36 | 280 | 1.0 | 2.0 | 0.00 | 0.00 | 0.00 | 77 | 1015.0 |
| 20260507045432 | 36 | 280 | 1.0 | 2.0 | 0.00 | 0.00 | 0.00 | 77 | 1014.9 |
| 20260507045308 | 36 | 280 | 2.0 | 3.0 | 0.00 | 0.00 | 0.00 | 77 | 1015.0 |
| 20260507045232 | 36 | 280 | 2.0 | 3.0 | 0.00 | 0.00 | 0.00 | 77 | 1015.0 |
| 20260507045115 | 36 | 280 | 1.0 | 3.0 | 0.00 | 0.00 | 0.00 | 77 | 1015.0 |
| 20260507045023 | 36 | 280 | 1.0 | 3.0 | 0.00 | 0.00 | 0.00 | 78 | 1015.0 |
| 20260507044927 | 36 | 280 | 1.0 | 3.0 | 0.00 | 0.00 | 0.00 | 77 | 1015.0 |
| 20260507044810 | 36 | 280 | 2.0 | 3.0 | 0.00 | 0.00 | 0.00 | 77 | 1015.0 |
| 20260507044714 | 36 | 280 | 2.0 | 3.0 | 0.00 | 0.00 | 0.00 | 77 | 1015.0 |
| 20260507044617 | 36 | 280 | 2.0 | 3.0 | 0.00 | 0.00 | 0.00 | 78 | 1015.1 |
| 20260507044521 | 36 | 280 | 2.0 | 3.0 | 0.00 | 0.00 | 0.00 | 78 | 1015.0 |
| 20260507044430 | 36 | 281 | 2.0 | 3.0 | 0.00 | 0.00 | 0.00 | 78 | 1015.1 |
| 20260507044314 | 36 | 281 | 2.0 | 3.0 | 0.00 | 0.00 | 0.00 | 78 | 1015.1 |
| 20260507044217 | 36 | 281 | 2.0 | 3.0 | 0.00 | 0.00 | 0.00 | 78 | 1015.1 |
| 20260507044122 | 36 | 281 | 2.0 | 3.0 | 0.00 | 0.00 | 0.00 | 78 | 1015.1 |
| 20260507044005 | 36 | 281 | 2.0 | 3.0 | 0.00 | 0.00 | 0.00 | 78 | 1015.2 |
| 20260507043911 | 36 | 281 | 2.0 | 3.0 | 0.00 | 0.00 | 0.00 | 77 | 1015.1 |
| 20260507043836 | 36 | 280 | 2.0 | 3.0 | 0.00 | 0.00 | 0.00 | 77 | 1015.1 |
| 20260507043743 | 36 | 281 | 1.0 | 3.0 | 0.00 | 0.00 | 0.00 | 76 | 1015.1 |
| 20260507043628 | 36 | 281 | 2.0 | 3.0 | 0.00 | 0.00 | 0.00 | 76 | 1015.1 |
| 20260507043530 | 36 | 280 | 2.0 | 3.0 | 0.00 | 0.00 | 0.00 | 76 | 1015.1 |
| 20260507043406 | 36 | 281 | 2.0 | 3.0 | 0.00 | 0.00 | 0.00 | 77 | 1015.1 |
| 20260507043311 | 36 | 281 | 2.0 | 3.0 | 0.00 | 0.00 | 0.00 | 77 | 1015.1 |
| 20260507043215 | 36 | 281 | 2.0 | 3.0 | 0.00 | 0.00 | 0.00 | 77 | 1015.1 |
| 20260507043118 | 36 | 280 | 2.0 | 3.0 | 0.00 | 0.00 | 0.00 | 76 | 1015.1 |
| 20260507043028 | 36 | 280 | 2.0 | 3.0 | 0.00 | 0.00 | 0.00 | 76 | 1015.1 |
| 20260507042952 | 36 | 281 | 2.0 | 3.0 | 0.00 | 0.00 | 0.00 | 76 | 1015.1 |
| 20260507042808 | 36 | 281 | 2.0 | 3.0 | 0.00 | 0.00 | 0.00 | 76 | 1015.2 |
| 20260507042733 | 37 | 281 | 2.0 | 3.0 | 0.00 | 0.00 | 0.00 | 76 | 1015.1 |
| 20260507042637 | 37 | 280 | 2.0 | 3.0 | 0.00 | 0.00 | 0.00 | 75 | 1015.1 |
| 20260507042519 | 37 | 281 | 2.0 | 3.0 | 0.00 | 0.00 | 0.00 | 75 | 1015.1 |
| 20260507042425 | 37 | 282 | 2.0 | 3.0 | 0.00 | 0.00 | 0.00 | 75 | 1015.1 |
| 20260507042313 | 37 | 282 | 2.0 | 3.0 | 0.00 | 0.00 | 0.00 | 75 | 1015.1 |
| 20260507042217 | 37 | 282 | 2.0 | 3.0 | 0.00 | 0.00 | 0.00 | 75 | 1015.1 |
| 20260507042122 | 37 | 283 | 2.0 | 3.0 | 0.00 | 0.00 | 0.00 | 75 | 1015.1 |
| 20260507042027 | 37 | 284 | 2.0 | 3.0 | 0.00 | 0.00 | 0.00 | 75 | 1015.1 |
| 20260507041952 | 37 | 284 | 2.0 | 3.0 | 0.00 | 0.00 | 0.00 | 75 | 1015.1 |
| 20260507041808 | 37 | 294 | 2.0 | 3.0 | 0.00 | 0.00 | 0.00 | 75 | 1015.1 |
| 20260507041717 | 37 | 294 | 2.0 | 3.0 | 0.00 | 0.00 | 0.00 | 74 | 1015.1 |
| 20260507041620 | 37 | 296 | 2.0 | 2.0 | 0.00 | 0.00 | 0.00 | 74 | 1015.1 |
| 20260507041525 | 37 | 296 | 1.0 | 2.0 | 0.00 | 0.00 | 0.00 | 74 | 1015.1 |
| 20260507041447 | 37 | 296 | 1.0 | 2.0 | 0.00 | 0.00 | 0.00 | 75 | 1015.1 |
| 20260507041309 | 37 | 296 | 1.0 | 2.0 | 0.00 | 0.00 | 0.00 | 74 | 1015.1 |
| 20260507041214 | 37 | 296 | 1.0 | 2.0 | 0.00 | 0.00 | 0.00 | 74 | 1015.1 |
| 20260507041119 | 37 | 296 | 1.0 | 2.0 | 0.00 | 0.00 | 0.00 | 73 | 1015.2 |
| 20260507041007 | 37 | 296 | 1.0 | 2.0 | 0.00 | 0.00 | 0.00 | 73 | 1015.2 |
| 20260507040911 | 37 | 296 | 1.0 | 2.0 | 0.00 | 0.00 | 0.00 | 73 | 1015.1 |
| 20260507040813 | 37 | 296 | 1.0 | 2.0 | 0.00 | 0.00 | 0.00 | 73 | 1015.1 |
| 20260507040717 | 37 | 296 | 1.0 | 2.0 | 0.00 | 0.00 | 0.00 | 73 | 1015.2 |
| 20260507040641 | 38 | 296 | 1.0 | 2.0 | 0.00 | 0.00 | 0.00 | 73 | 1015.1 |
| 20260507040523 | 38 | 296 | 2.0 | 2.0 | 0.00 | 0.00 | 0.00 | 73 | 1015.1 |
| 20260507040412 | 38 | 296 | 2.0 | 2.0 | 0.00 | 0.00 | 0.00 | 73 | 1015.1 |
| 20260507040317 | 38 | 296 | 1.0 | 2.0 | 0.00 | 0.00 | 0.00 | 73 | 1015.2 |
| 20260507040220 | 38 | 296 | 1.0 | 2.0 | 0.00 | 0.00 | 0.00 | 73 | 1015.2 |
| 20260507040144 | 38 | 296 | 1.0 | 2.0 | 0.00 | 0.00 | 0.00 | 73 | 1015.2 |
| 20260507040007 | 38 | 296 | 1.0 | 2.0 | 0.00 | 0.00 | 0.00 | 73 | 1015.2 |
| 20260507035912 | 38 | 296 | 1.0 | 2.0 | 0.00 | 0.00 | 0.00 | 73 | 1015.2 |
| 20260507035816 | 38 | 296 | 0.0 | 2.0 | 0.00 | 0.00 | 0.00 | 73 | 1015.2 |
| 20260507035725 | 38 | 296 | 0.0 | 2.0 | 0.00 | 0.00 | 0.00 | 73 | 1015.2 |
| 20260507035629 | 38 | 296 | 0.0 | 2.0 | 0.00 | 0.00 | 0.00 | 73 | 1015.2 |
| 20260507035534 | 38 | 296 | 0.0 | 2.0 | 0.00 | 0.00 | 0.00 | 73 | 1015.2 |
| 20260507035416 | 38 | 296 | 0.0 | 2.0 | 0.00 | 0.00 | 0.00 | 71 | 1015.2 |
| 20260507035322 | 38 | 296 | 0.0 | 2.0 | 0.00 | 0.00 | 0.00 | 70 | 1015.2 |
| 20260507035245 | 38 | 296 | 0.0 | 2.0 | 0.00 | 0.00 | 0.00 | 70 | 1015.2 |
| 20260507035109 | 38 | 296 | 0.0 | 2.0 | 0.00 | 0.00 | 0.00 | 71 | 1015.2 |
| 20260507035018 | 38 | 296 | 1.0 | 2.0 | 0.00 | 0.00 | 0.00 | 71 | 1015.2 |
| 20260507034922 | 38 | 296 | 1.0 | 2.0 | 0.00 | 0.00 | 0.00 | 72 | 1015.2 |
| 20260507034807 | 38 | 296 | 1.0 | 2.0 | 0.00 | 0.00 | 0.00 | 73 | 1015.3 |
| 20260507034711 | 38 | 296 | 1.0 | 2.0 | 0.00 | 0.00 | 0.00 | 73 | 1015.3 |
| 20260507034616 | 38 | 296 | 1.0 | 2.0 | 0.00 | 0.00 | 0.00 | 73 | 1015.3 |
| 20260507034520 | 38 | 296 | 1.0 | 2.0 | 0.00 | 0.00 | 0.00 | 72 | 1015.3 |
| 20260507034429 | 38 | 296 | 1.0 | 2.0 | 0.00 | 0.00 | 0.00 | 72 | 1015.3 |
| 20260507034305 | 38 | 296 | 1.0 | 2.0 | 0.00 | 0.00 | 0.00 | 71 | 1015.3 |
| 20260507034210 | 38 | 296 | 1.0 | 1.0 | 0.00 | 0.00 | 0.00 | 71 | 1015.3 |
| 20260507034135 | 38 | 296 | 1.0 | 1.0 | 0.00 | 0.00 | 0.00 | 71 | 1015.2 |
| 20260507034020 | 38 | 296 | 1.0 | 1.0 | 0.00 | 0.00 | 0.00 | 71 | 1015.3 |
| 20260507033923 | 38 | 296 | 0.0 | 2.0 | 0.00 | 0.00 | 0.00 | 69 | 1015.3 |
| 20260507033812 | 38 | 296 | 0.0 | 2.0 | 0.00 | 0.00 | 0.00 | 69 | 1015.3 |
| 20260507033716 | 39 | 296 | 0.0 | 2.0 | 0.00 | 0.00 | 0.00 | 69 | 1015.2 |
| 20260507033620 | 39 | 296 | 1.0 | 2.0 | 0.00 | 0.00 | 0.00 | 69 | 1015.3 |
| 20260507033505 | 39 | 296 | 1.0 | 2.0 | 0.00 | 0.00 | 0.00 | 70 | 1015.2 |
| 20260507033430 | 39 | 296 | 1.0 | 2.0 | 0.00 | 0.00 | 0.00 | 70 | 1015.4 |
| 20260507033313 | 39 | 296 | 1.0 | 2.0 | 0.00 | 0.00 | 0.00 | 71 | 1015.3 |
| 20260507033238 | 39 | 296 | 1.0 | 2.0 | 0.00 | 0.00 | 0.00 | 71 | 1015.3 |
| 20260507033145 | 39 | 296 | 1.0 | 2.0 | 0.00 | 0.00 | 0.00 | 71 | 1015.3 |
| 20260507033009 | 39 | 296 | 1.0 | 2.0 | 0.00 | 0.00 | 0.00 | 70 | 1015.4 |
| 20260507032913 | 39 | 296 | 1.0 | 2.0 | 0.00 | 0.00 | 0.00 | 70 | 1015.3 |
| 20260507032837 | 39 | 296 | 2.0 | 2.0 | 0.00 | 0.00 | 0.00 | 69 | 1015.3 |
| 20260507032721 | 39 | 296 | 2.0 | 2.0 | 0.00 | 0.00 | 0.00 | 69 | 1015.3 |
| 20260507032605 | 39 | 296 | 2.0 | 2.0 | 0.00 | 0.00 | 0.00 | 68 | 1015.3 |
| 20260507032513 | 39 | 296 | 2.0 | 2.0 | 0.00 | 0.00 | 0.00 | 68 | 1015.3 |
| 20260507032418 | 39 | 296 | 2.0 | 2.0 | 0.00 | 0.00 | 0.00 | 67 | 1015.4 |
| 20260507032344 | 40 | 296 | 2.0 | 2.0 | 0.00 | 0.00 | 0.00 | 67 | 1015.3 |
| 20260507032227 | 40 | 296 | 2.0 | 2.0 | 0.00 | 0.00 | 0.00 | 66 | 1015.3 |
| 20260507032111 | 40 | 296 | 2.0 | 2.0 | 0.00 | 0.00 | 0.00 | 66 | 1015.3 |
| 20260507032015 | 40 | 296 | 2.0 | 2.0 | 0.00 | 0.00 | 0.00 | 66 | 1015.3 |
| 20260507031937 | 40 | 296 | 2.0 | 2.0 | 0.00 | 0.00 | 0.00 | 65 | 1015.2 |
| 20260507031805 | 40 | 296 | 1.0 | 2.0 | 0.00 | 0.00 | 0.00 | 65 | 1015.2 |
| 20260507031729 | 40 | 296 | 1.0 | 2.0 | 0.00 | 0.00 | 0.00 | 65 | 1015.2 |
| 20260507031606 | 41 | 296 | 0.0 | 0.0 | 0.00 | 0.00 | 0.00 | 65 | 1015.1 |
| 20260507031530 | 41 | 296 | 0.0 | 0.0 | 0.00 | 0.00 | 0.00 | 64 | 1015.2 |
| 20260507031414 | 41 | 296 | 0.0 | 0.0 | 0.00 | 0.00 | 0.00 | 62 | 1015.1 |
| 20260507031318 | 41 | 296 | 0.0 | 2.0 | 0.00 | 0.00 | 0.00 | 62 | 1015.1 |
| 20260507031220 | 41 | 296 | 0.0 | 2.0 | 0.00 | 0.00 | 0.00 | 62 | 1015.1 |
| 20260507031129 | 41 | 296 | 0.0 | 2.0 | 0.00 | 0.00 | 0.00 | 62 | 1015.2 |
| 20260507031005 | 41 | 296 | 0.0 | 2.0 | 0.00 | 0.00 | 0.00 | 62 | 1015.2 |
| 20260507030910 | 41 | 296 | 0.0 | 2.0 | 0.00 | 0.00 | 0.00 | 63 | 1015.2 |
| 20260507030814 | 41 | 296 | 0.0 | 2.0 | 0.00 | 0.00 | 0.00 | 63 | 1015.3 |
| 20260507030737 | 41 | 296 | 0.0 | 2.0 | 0.00 | 0.00 | 0.00 | 64 | 1015.3 |
| 20260507030620 | 41 | 296 | 0.0 | 2.0 | 0.00 | 0.00 | 0.00 | 65 | 1015.3 |
| 20260507030507 | 41 | 296 | 1.0 | 3.0 | 0.00 | 0.00 | 0.00 | 66 | 1015.4 |
| 20260507030430 | 41 | 296 | 1.0 | 3.0 | 0.00 | 0.00 | 0.00 | 66 | 1015.4 |
| 20260507030352 | 41 | 296 | 1.0 | 3.0 | 0.00 | 0.00 | 0.00 | 66 | 1015.4 |
| 20260507030207 | 41 | 296 | 1.0 | 3.0 | 0.00 | 0.00 | 0.00 | 66 | 1015.4 |
| 20260507030132 | 41 | 296 | 1.0 | 3.0 | 0.00 | 0.00 | 0.00 | 66 | 1015.4 |
| 20260507030034 | 41 | 296 | 1.0 | 3.0 | 0.00 | 0.00 | 0.00 | 66 | 1015.5 |
| 20260507025937 | 41 | 296 | 1.0 | 3.0 | 0.00 | 0.00 | 0.00 | 66 | 1015.4 |
| 20260507025840 | 41 | 296 | 2.0 | 3.0 | 0.00 | 0.00 | 0.00 | 66 | 1015.5 |
| 20260507025723 | 41 | 296 | 2.0 | 3.0 | 0.00 | 0.00 | 0.00 | 66 | 1015.5 |
| 20260507025611 | 41 | 296 | 2.0 | 3.0 | 0.00 | 0.00 | 0.00 | 66 | 1015.5 |
| 20260507025535 | 41 | 296 | 2.0 | 3.0 | 0.00 | 0.00 | 0.00 | 65 | 1015.5 |
| 20260507025417 | 41 | 297 | 2.0 | 3.0 | 0.00 | 0.00 | 0.00 | 65 | 1015.4 |
| 20260507025320 | 41 | 306 | 2.0 | 3.0 | 0.00 | 0.00 | 0.00 | 65 | 1015.5 |
| 20260507025224 | 41 | 306 | 2.0 | 3.0 | 0.00 | 0.00 | 0.00 | 65 | 1015.4 |
| 20260507025128 | 42 | 306 | 2.0 | 3.0 | 0.00 | 0.00 | 0.00 | 65 | 1015.5 |
| 20260507025011 | 42 | 306 | 2.0 | 3.0 | 0.00 | 0.00 | 0.00 | 64 | 1015.5 |
| 20260507024920 | 42 | 306 | 2.0 | 3.0 | 0.00 | 0.00 | 0.00 | 65 | 1015.5 |
| 20260507024824 | 42 | 306 | 2.0 | 3.0 | 0.00 | 0.00 | 0.00 | 63 | 1015.5 |
| 20260507024729 | 42 | 306 | 2.0 | 3.0 | 0.00 | 0.00 | 0.00 | 63 | 1015.4 |
| 20260507024630 | 42 | 306 | 2.0 | 3.0 | 0.00 | 0.00 | 0.00 | 64 | 1015.4 |
| 20260507024507 | 42 | 306 | 2.0 | 3.0 | 0.00 | 0.00 | 0.00 | 64 | 1015.4 |
| 20260507024412 | 42 | 306 | 2.0 | 3.0 | 0.00 | 0.00 | 0.00 | 63 | 1015.4 |
| 20260507024321 | 42 | 306 | 2.0 | 3.0 | 0.00 | 0.00 | 0.00 | 62 | 1015.4 |
| 20260507024224 | 42 | 306 | 1.0 | 3.0 | 0.00 | 0.00 | 0.00 | 61 | 1015.4 |
| 20260507024129 | 42 | 306 | 2.0 | 3.0 | 0.00 | 0.00 | 0.00 | 61 | 1015.4 |
| 20260507024005 | 42 | 306 | 2.0 | 4.0 | 0.00 | 0.00 | 0.00 | 60 | 1015.4 |
| 20260507023910 | 43 | 306 | 2.0 | 4.0 | 0.00 | 0.00 | 0.00 | 60 | 1015.3 |
| 20260507023813 | 43 | 306 | 2.0 | 4.0 | 0.00 | 0.00 | 0.00 | 59 | 1015.4 |
| 20260507023722 | 43 | 306 | 2.0 | 5.0 | 0.00 | 0.00 | 0.00 | 59 | 1015.4 |
| 20260507023627 | 43 | 306 | 2.0 | 5.0 | 0.00 | 0.00 | 0.00 | 59 | 1015.4 |
| 20260507023511 | 43 | 307 | 2.0 | 5.0 | 0.00 | 0.00 | 0.00 | 58 | 1015.4 |
| 20260507023416 | 43 | 316 | 2.0 | 5.0 | 0.00 | 0.00 | 0.00 | 57 | 1015.4 |
| 20260507023318 | 43 | 316 | 3.0 | 5.0 | 0.00 | 0.00 | 0.00 | 57 | 1015.4 |
| 20260507023223 | 43 | 315 | 2.0 | 5.0 | 0.00 | 0.00 | 0.00 | 57 | 1015.5 |
| 20260507023109 | 43 | 355 | 3.0 | 5.0 | 0.00 | 0.00 | 0.00 | 57 | 1015.5 |
| 20260507023015 | 43 | 355 | 4.0 | 5.0 | 0.00 | 0.00 | 0.00 | 57 | 1015.4 |
| 20260507022939 | 43 | 355 | 3.0 | 5.0 | 0.00 | 0.00 | 0.00 | 57 | 1015.4 |
| 20260507022823 | 43 | 350 | 2.0 | 5.0 | 0.00 | 0.00 | 0.00 | 57 | 1015.4 |
| 20260507022707 | 43 | 348 | 2.0 | 5.0 | 0.00 | 0.00 | 0.00 | 57 | 1015.5 |
| 20260507022631 | 43 | 355 | 2.0 | 5.0 | 0.00 | 0.00 | 0.00 | 57 | 1015.5 |
| 20260507022508 | 43 | 325 | 2.0 | 6.0 | 0.00 | 0.00 | 0.00 | 56 | 1015.5 |
| 20260507022416 | 43 | 347 | 2.0 | 6.0 | 0.00 | 0.00 | 0.00 | 56 | 1015.4 |
| 20260507022318 | 43 | 338 | 2.0 | 8.0 | 0.00 | 0.00 | 0.00 | 57 | 1015.4 |
| 20260507022222 | 43 | 329 | 3.0 | 8.0 | 0.00 | 0.00 | 0.00 | 57 | 1015.4 |
| 20260507022128 | 43 | 312 | 4.0 | 8.0 | 0.00 | 0.00 | 0.00 | 56 | 1015.5 |
| 20260507022010 | 43 | 312 | 4.0 | 8.0 | 0.00 | 0.00 | 0.00 | 57 | 1015.5 |
| 20260507021914 | 43 | 309 | 4.0 | 8.0 | 0.00 | 0.00 | 0.00 | 57 | 1015.5 |
| 20260507021818 | 43 | 339 | 4.0 | 8.0 | 0.00 | 0.00 | 0.00 | 56 | 1015.5 |
| 20260507021707 | 43 | 324 | 4.0 | 8.0 | 0.00 | 0.00 | 0.00 | 56 | 1015.5 |
| 20260507021631 | 43 | 331 | 4.0 | 8.0 | 0.00 | 0.00 | 0.00 | 56 | 1015.4 |
| 20260507021508 | 43 | 288 | 4.0 | 8.0 | 0.00 | 0.00 | 0.00 | 57 | 1015.5 |
| 20260507021434 | 43 | 300 | 3.0 | 6.0 | 0.00 | 0.00 | 0.00 | 57 | 1015.5 |
| 20260507021316 | 43 | 323 | 2.0 | 6.0 | 0.00 | 0.00 | 0.00 | 57 | 1015.6 |
| 20260507021239 | 43 | 329 | 3.0 | 6.0 | 0.00 | 0.00 | 0.00 | 57 | 1015.5 |
| 20260507021106 | 43 | 302 | 4.0 | 6.0 | 0.00 | 0.00 | 0.00 | 57 | 1015.5 |
| 20260507021030 | 43 | 338 | 3.0 | 6.0 | 0.00 | 0.00 | 0.00 | 57 | 1015.5 |
| 20260507020908 | 43 | 319 | 2.0 | 6.0 | 0.00 | 0.00 | 0.00 | 57 | 1015.5 |
| 20260507020832 | 43 | 305 | 3.0 | 6.0 | 0.00 | 0.00 | 0.00 | 57 | 1015.5 |
| 20260507020734 | 43 | 317 | 2.0 | 6.0 | 0.00 | 0.00 | 0.00 | 57 | 1015.4 |
| 20260507020618 | 43 | 313 | 2.0 | 6.0 | 0.00 | 0.00 | 0.00 | 58 | 1015.5 |
| 20260507020519 | 43 | 311 | 2.0 | 6.0 | 0.00 | 0.00 | 0.00 | 57 | 1015.6 |
| 20260507020408 | 43 | 294 | 3.0 | 6.0 | 0.00 | 0.00 | 0.00 | 57 | 1015.5 |
| 20260507020332 | 43 | 355 | 4.0 | 6.0 | 0.00 | 0.00 | 0.00 | 56 | 1015.5 |
| 20260507020208 | 43 | 297 | 3.0 | 8.0 | 0.00 | 0.00 | 0.00 | 57 | 1015.5 |
| 20260507020113 | 43 | 299 | 2.0 | 8.0 | 0.00 | 0.00 | 0.00 | 57 | 1015.5 |
| 20260507020018 | 43 | 299 | 3.0 | 8.0 | 0.00 | 0.00 | 0.00 | 57 | 1015.5 |
| 20260507015921 | 43 | 298 | 3.0 | 9.0 | 0.00 | 0.00 | 0.00 | 56 | 1015.4 |
| 20260507015810 | 43 | 300 | 3.0 | 9.0 | 0.00 | 0.00 | 0.00 | 56 | 1015.4 |
| 20260507015715 | 43 | 317 | 3.0 | 12.0 | 0.00 | 0.00 | 0.00 | 56 | 1015.4 |
| 20260507015619 | 43 | 302 | 4.0 | 12.0 | 0.00 | 0.00 | 0.00 | 55 | 1015.3 |
| 20260507015544 | 44 | 293 | 5.0 | 12.0 | 0.00 | 0.00 | 0.00 | 55 | 1015.4 |
| 20260507015426 | 43 | 296 | 5.0 | 12.0 | 0.00 | 0.00 | 0.00 | 56 | 1015.4 |
| 20260507015350 | 44 | 319 | 5.0 | 12.0 | 0.00 | 0.00 | 0.00 | 56 | 1015.4 |
| 20260507015252 | 43 | 309 | 5.0 | 12.0 | 0.00 | 0.00 | 0.00 | 56 | 1015.4 |
| 20260507015108 | 43 | 300 | 6.0 | 12.0 | 0.00 | 0.00 | 0.00 | 55 | 1015.4 |
| 20260507015016 | 44 | 298 | 7.0 | 12.0 | 0.00 | 0.00 | 0.00 | 56 | 1015.3 |
| 20260507014921 | 44 | 309 | 7.0 | 12.0 | 0.00 | 0.00 | 0.00 | 55 | 1015.4 |
| 20260507014805 | 44 | 302 | 5.0 | 11.0 | 0.00 | 0.00 | 0.00 | 56 | 1015.4 |
| 20260507014710 | 44 | 308 | 4.0 | 11.0 | 0.00 | 0.00 | 0.00 | 55 | 1015.4 |
| 20260507014613 | 44 | 319 | 5.0 | 11.0 | 0.00 | 0.00 | 0.00 | 55 | 1015.3 |
| 20260507014518 | 44 | 322 | 5.0 | 11.0 | 0.00 | 0.00 | 0.00 | 55 | 1015.3 |
| 20260507014406 | 44 | 290 | 5.0 | 11.0 | 0.00 | 0.00 | 0.00 | 55 | 1015.3 |
| 20260507014330 | 44 | 305 | 5.0 | 11.0 | 0.00 | 0.00 | 0.00 | 55 | 1015.3 |
| 20260507014208 | 44 | 350 | 5.0 | 11.0 | 0.00 | 0.00 | 0.00 | 56 | 1015.3 |
| 20260507014110 | 44 | 307 | 6.0 | 11.0 | 0.00 | 0.00 | 0.00 | 56 | 1015.4 |
| 20260507014015 | 44 | 293 | 6.0 | 11.0 | 0.00 | 0.00 | 0.00 | 55 | 1015.4 |
| 20260507013919 | 44 | 297 | 5.0 | 11.0 | 0.00 | 0.00 | 0.00 | 56 | 1015.4 |
| 20260507013806 | 44 | 329 | 5.0 | 11.0 | 0.00 | 0.00 | 0.00 | 54 | 1015.3 |
| 20260507013730 | 44 | 355 | 5.0 | 11.0 | 0.00 | 0.00 | 0.00 | 54 | 1015.3 |
| 20260507013608 | 44 | 321 | 5.0 | 11.0 | 0.00 | 0.00 | 0.00 | 55 | 1015.4 |
| 20260507013531 | 44 | 290 | 6.0 | 11.0 | 0.00 | 0.00 | 0.00 | 55 | 1015.3 |
| 20260507013433 | 44 | 318 | 6.0 | 11.0 | 0.00 | 0.00 | 0.00 | 54 | 1015.4 |
| 20260507013337 | 44 | 348 | 5.0 | 9.0 | 0.00 | 0.00 | 0.00 | 54 | 1015.3 |
| 20260507013240 | 44 | 306 | 5.0 | 9.0 | 0.00 | 0.00 | 0.00 | 55 | 1015.4 |
| 20260507013143 | 44 | 320 | 5.0 | 9.0 | 0.00 | 0.00 | 0.00 | 55 | 1015.3 |
| 20260507013011 | 44 | 298 | 4.0 | 9.0 | 0.00 | 0.00 | 0.00 | 54 | 1015.3 |
| 20260507012915 | 44 | 309 | 3.0 | 9.0 | 0.00 | 0.00 | 0.00 | 55 | 1015.3 |
| 20260507012840 | 44 | 360 | 4.0 | 9.0 | 0.00 | 0.00 | 0.00 | 54 | 1015.3 |
| 20260507012721 | 44 | 313 | 4.0 | 9.0 | 0.00 | 0.00 | 0.00 | 54 | 1015.3 |
| 20260507012626 | 44 | 319 | 4.0 | 11.0 | 0.00 | 0.00 | 0.00 | 55 | 1015.3 |
| 20260507012509 | 44 | 333 | 3.0 | 11.0 | 0.00 | 0.00 | 0.00 | 55 | 1015.3 |
| 20260507012414 | 44 | 318 | 3.0 | 11.0 | 0.00 | 0.00 | 0.00 | 55 | 1015.4 |
| 20260507012316 | 44 | 325 | 5.0 | 11.0 | 0.00 | 0.00 | 0.00 | 54 | 1015.3 |
| 20260507012241 | 44 | 303 | 6.0 | 11.0 | 0.00 | 0.00 | 0.00 | 54 | 1015.4 |
| 20260507012105 | 44 | 304 | 6.0 | 11.0 | 0.00 | 0.00 | 0.00 | 54 | 1015.3 |
| 20260507012029 | 44 | 306 | 6.0 | 11.0 | 0.00 | 0.00 | 0.00 | 54 | 1015.4 |
| 20260507011906 | 44 | 294 | 5.0 | 11.0 | 0.00 | 0.00 | 0.00 | 54 | 1015.3 |
| 20260507011810 | 44 | 312 | 3.0 | 9.0 | 0.00 | 0.00 | 0.00 | 54 | 1015.3 |
| 20260507011715 | 44 | 335 | 4.0 | 9.0 | 0.00 | 0.00 | 0.00 | 54 | 1015.4 |
| 20260507011624 | 44 | 336 | 4.0 | 9.0 | 0.00 | 0.00 | 0.00 | 54 | 1015.3 |
| 20260507011549 | 44 | 336 | 4.0 | 9.0 | 0.00 | 0.00 | 0.00 | 54 | 1015.3 |
| 20260507011452 | 44 | 306 | 4.0 | 9.0 | 0.00 | 0.00 | 0.00 | 54 | 1015.3 |
| 20260507011308 | 44 | 321 | 5.0 | 9.0 | 0.00 | 0.00 | 0.00 | 54 | 1015.4 |
| 20260507011213 | 44 | 325 | 5.0 | 9.0 | 0.00 | 0.00 | 0.00 | 53 | 1015.5 |
| 20260507011134 | 44 | 321 | 5.0 | 9.0 | 0.00 | 0.00 | 0.00 | 53 | 1015.3 |
| 20260507011008 | 44 | 306 | 4.0 | 6.0 | 0.00 | 0.00 | 0.00 | 54 | 1015.3 |
| 20260507010917 | 44 | 319 | 3.0 | 6.0 | 0.00 | 0.00 | 0.00 | 54 | 1015.4 |
| 20260507010822 | 44 | 350 | 4.0 | 6.0 | 0.00 | 0.00 | 0.00 | 54 | 1015.4 |
| 20260507010727 | 44 | 317 | 4.0 | 6.0 | 0.00 | 0.00 | 0.00 | 54 | 1015.3 |
| 20260507010610 | 44 | 308 | 4.0 | 6.0 | 0.00 | 0.00 | 0.00 | 54 | 1015.3 |
| 20260507010515 | 44 | 319 | 4.0 | 6.0 | 0.00 | 0.00 | 0.00 | 53 | 1015.4 |
| 20260507010437 | 44 | 293 | 3.0 | 6.0 | 0.00 | 0.00 | 0.00 | 54 | 1015.4 |
| 20260507010321 | 44 | 305 | 3.0 | 6.0 | 0.00 | 0.00 | 0.00 | 54 | 1015.4 |
| 20260507010208 | 44 | 321 | 4.0 | 6.0 | 0.00 | 0.00 | 0.00 | 54 | 1015.3 |
| 20260507010113 | 44 | 292 | 3.0 | 6.0 | 0.00 | 0.00 | 0.00 | 54 | 1015.4 |
| 20260507010017 | 44 | 329 | 3.0 | 6.0 | 0.00 | 0.00 | 0.00 | 54 | 1015.3 |
| 20260507005920 | 44 | 344 | 3.0 | 6.0 | 0.00 | 0.00 | 0.00 | 55 | 1015.4 |
| 20260507005824 | 44 | 348 | 3.0 | 8.0 | 0.00 | 0.00 | 0.00 | 54 | 1015.4 |
| 20260507005728 | 44 | 318 | 3.0 | 8.0 | 0.00 | 0.00 | 0.00 | 54 | 1015.4 |
| 20260507005616 | 44 | 311 | 2.0 | 8.0 | 0.00 | 0.00 | 0.00 | 54 | 1015.4 |
| 20260507005520 | 44 | 295 | 2.0 | 8.0 | 0.00 | 0.00 | 0.00 | 55 | 1015.4 |
| 20260507005424 | 44 | 355 | 2.0 | 8.0 | 0.00 | 0.00 | 0.00 | 54 | 1015.4 |
| 20260507005328 | 44 | 321 | 4.0 | 8.0 | 0.00 | 0.00 | 0.00 | 53 | 1015.4 |
| 20260507005211 | 44 | 307 | 4.0 | 8.0 | 0.00 | 0.00 | 0.00 | 54 | 1015.5 |
| 20260507005135 | 44 | 360 | 4.0 | 8.0 | 0.00 | 0.00 | 0.00 | 54 | 1015.4 |
| 20260507005037 | 44 | 312 | 4.0 | 8.0 | 0.00 | 0.00 | 0.00 | 54 | 1015.5 |
| 20260507004920 | 44 | 315 | 3.0 | 8.0 | 0.00 | 0.00 | 0.00 | 53 | 1015.4 |
| 20260507004828 | 44 | 313 | 4.0 | 8.0 | 0.00 | 0.00 | 0.00 | 53 | 1015.4 |
| 20260507004705 | 44 | 355 | 4.0 | 8.0 | 0.00 | 0.00 | 0.00 | 54 | 1015.4 |
| 20260507004608 | 44 | 343 | 3.0 | 10.0 | 0.00 | 0.00 | 0.00 | 53 | 1015.4 |
| 20260507004512 | 44 | 329 | 4.0 | 10.0 | 0.00 | 0.00 | 0.00 | 53 | 1015.4 |
| 20260507004416 | 44 | 351 | 4.0 | 10.0 | 0.00 | 0.00 | 0.00 | 53 | 1015.4 |
| 20260507004305 | 44 | 335 | 5.0 | 11.0 | 0.00 | 0.00 | 0.00 | 53 | 1015.4 |
| 20260507004229 | 44 | 350 | 5.0 | 11.0 | 0.00 | 0.00 | 0.00 | 54 | 1015.4 |
| 20260507004106 | 44 | 334 | 4.0 | 11.0 | 0.00 | 0.00 | 0.00 | 53 | 1015.3 |
| 20260507004030 | 44 | 339 | 5.0 | 11.0 | 0.00 | 0.00 | 0.00 | 53 | 1015.4 |
| 20260507003913 | 44 | 338 | 7.0 | 11.0 | 0.00 | 0.00 | 0.00 | 54 | 1015.4 |
| 20260507003816 | 44 | 349 | 6.0 | 11.0 | 0.00 | 0.00 | 0.00 | 53 | 1015.4 |
| 20260507003720 | 44 | 327 | 5.0 | 11.0 | 0.00 | 0.00 | 0.00 | 54 | 1015.4 |
| 20260507003628 | 44 | 5 | 7.0 | 11.0 | 0.00 | 0.00 | 0.00 | 53 | 1015.4 |
| 20260507003511 | 44 | 316 | 6.0 | 11.0 | 0.00 | 0.00 | 0.00 | 53 | 1015.4 |
| 20260507003415 | 44 | 342 | 5.0 | 11.0 | 0.00 | 0.00 | 0.00 | 52 | 1015.5 |
| 20260507003316 | 44 | 336 | 5.0 | 11.0 | 0.00 | 0.00 | 0.00 | 52 | 1015.5 |
| 20260507003237 | 44 | 350 | 5.0 | 11.0 | 0.00 | 0.00 | 0.00 | 53 | 1015.4 |
| 20260507003140 | 44 | 334 | 6.0 | 11.0 | 0.00 | 0.00 | 0.00 | 53 | 1015.4 |
| 20260507003023 | 44 | 316 | 7.0 | 11.0 | 0.00 | 0.00 | 0.00 | 53 | 1015.4 |
| 20260507002910 | 44 | 339 | 6.0 | 11.0 | 0.00 | 0.00 | 0.00 | 52 | 1015.5 |
| 20260507002812 | 44 | 330 | 6.0 | 11.0 | 0.00 | 0.00 | 0.00 | 52 | 1015.5 |
| 20260507002713 | 44 | 349 | 8.0 | 11.0 | 0.00 | 0.00 | 0.00 | 52 | 1015.5 |
| 20260507002614 | 44 | 355 | 7.0 | 11.0 | 0.00 | 0.00 | 0.00 | 52 | 1015.6 |
| 20260507002514 | 44 | 355 | 6.0 | 10.0 | 0.00 | 0.00 | 0.00 | 53 | 1015.5 |
| 20260507002418 | 44 | 355 | 6.0 | 9.0 | 0.00 | 0.00 | 0.00 | 52 | 1015.5 |
| 20260507002319 | 44 | 309 | 6.0 | 10.0 | 0.00 | 0.00 | 0.00 | 52 | 1015.6 |
| 20260507002224 | 44 | 346 | 5.0 | 10.0 | 0.00 | 0.00 | 0.00 | 53 | 1015.6 |
| 20260507002109 | 44 | 330 | 5.0 | 10.0 | 0.00 | 0.00 | 0.00 | 52 | 1015.5 |
| 20260507002009 | 44 | 336 | 5.0 | 10.0 | 0.00 | 0.00 | 0.00 | 52 | 1015.6 |
| 20260507001910 | 44 | 355 | 5.0 | 11.0 | 0.00 | 0.00 | 0.00 | 53 | 1015.6 |
| 20260507001813 | 44 | 343 | 5.0 | 11.0 | 0.00 | 0.00 | 0.00 | 53 | 1015.6 |
| 20260507001716 | 44 | 360 | 4.0 | 11.0 | 0.00 | 0.00 | 0.00 | 53 | 1015.7 |
| 20260507001624 | 44 | 333 | 6.0 | 11.0 | 0.00 | 0.00 | 0.00 | 53 | 1015.6 |
| 20260507001528 | 44 | 355 | 7.0 | 11.0 | 0.00 | 0.00 | 0.00 | 53 | 1015.7 |
| 20260507001406 | 45 | 319 | 5.0 | 11.0 | 0.00 | 0.00 | 0.00 | 53 | 1015.7 |
| 20260507001331 | 44 | 355 | 5.0 | 11.0 | 0.00 | 0.00 | 0.00 | 53 | 1015.6 |
| 20260507001207 | 44 | 302 | 7.0 | 11.0 | 0.00 | 0.00 | 0.00 | 53 | 1015.7 |
| 20260507001111 | 45 | 355 | 6.0 | 11.0 | 0.00 | 0.00 | 0.00 | 54 | 1015.8 |
| 20260507001039 | 44 | 346 | 4.0 | 9.0 | 0.00 | 0.00 | 0.00 | 54 | 1015.7 |
| 20260507000922 | 44 | 13 | 3.0 | 9.0 | 0.00 | 0.00 | 0.00 | 54 | 1015.8 |
| 20260507000807 | 44 | 309 | 4.0 | 9.0 | 0.00 | 0.00 | 0.00 | 55 | 1015.8 |
| 20260507000730 | 44 | 5 | 4.0 | 9.0 | 0.00 | 0.00 | 0.00 | 54 | 1015.8 |
| 20260507000606 | 44 | 345 | 4.0 | 9.0 | 0.00 | 0.00 | 0.00 | 54 | 1015.8 |
| 20260507000509 | 44 | 5 | 3.0 | 9.0 | 0.00 | 0.00 | 0.00 | 54 | 1015.7 |
| 20260507000413 | 44 | 306 | 3.0 | 9.0 | 0.00 | 0.00 | 0.00 | 54 | 1015.8 |
| 20260507000320 | 44 | 329 | 4.0 | 9.0 | 0.00 | 0.00 | 0.00 | 55 | 1015.8 |
| 20260507000221 | 44 | 325 | 4.0 | 9.0 | 0.00 | 0.00 | 0.00 | 53 | 1015.8 |
| 20260507000123 | 44 | 296 | 5.0 | 9.0 | 0.00 | 0.00 | 0.00 | 53 | 1015.7 |
| 20260507000026 | 44 | 344 | 3.0 | 9.0 | 0.00 | 0.00 | 0.00 | 54 | 1015.7 |
| 20260506235930 | 44 | 351 | 3.0 | 8.0 | 0.00 | 0.00 | 0.00 | 54 | 1015.8 |
| 20260506235812 | 44 | 360 | 3.0 | 9.0 | 0.00 | 0.00 | 0.00 | 53 | 1015.7 |
| 20260506235735 | 44 | 336 | 3.0 | 9.0 | 0.00 | 0.00 | 0.00 | 53 | 1015.8 |
| 20260506235620 | 44 | 341 | 4.0 | 9.0 | 0.00 | 0.00 | 0.00 | 53 | 1015.8 |
| 20260506235543 | 44 | 5 | 3.0 | 9.0 | 0.00 | 0.00 | 0.00 | 53 | 1015.8 |
| 20260506235406 | 44 | 322 | 3.0 | 9.0 | 0.00 | 0.00 | 0.00 | 54 | 1015.7 |
| 20260506235308 | 44 | 15 | 4.0 | 9.0 | 0.00 | 0.00 | 0.00 | 54 | 1015.8 |
| 20260506235211 | 44 | 15 | 5.0 | 10.0 | 0.00 | 0.00 | 0.00 | 53 | 1015.8 |
| 20260506235134 | 44 | 309 | 6.0 | 10.0 | 0.00 | 0.00 | 0.00 | 53 | 1015.8 |
| 20260506235016 | 44 | 348 | 6.0 | 10.0 | 0.00 | 0.00 | 0.00 | 53 | 1015.8 |
| 20260506234940 | 44 | 313 | 6.0 | 10.0 | 0.00 | 0.00 | 0.00 | 53 | 1015.8 |
| 20260506234808 | 44 | 328 | 5.0 | 10.0 | 0.00 | 0.00 | 0.00 | 53 | 1015.8 |
| 20260506234731 | 44 | 333 | 4.0 | 10.0 | 0.00 | 0.00 | 0.00 | 53 | 1015.7 |
| 20260506234607 | 44 | 320 | 4.0 | 10.0 | 0.00 | 0.00 | 0.00 | 54 | 1015.8 |
| 20260506234509 | 44 | 344 | 6.0 | 10.0 | 0.00 | 0.00 | 0.00 | 53 | 1015.7 |
| 20260506234434 | 44 | 348 | 6.0 | 10.0 | 0.00 | 0.00 | 0.00 | 53 | 1015.7 |
| 20260506234315 | 44 | 351 | 6.0 | 10.0 | 0.00 | 0.00 | 0.00 | 53 | 1015.8 |
| 20260506234223 | 44 | 12 | 6.0 | 11.0 | 0.00 | 0.00 | 0.00 | 53 | 1015.7 |
| 20260506234127 | 44 | 355 | 5.0 | 11.0 | 0.00 | 0.00 | 0.00 | 53 | 1015.7 |
| 20260506234009 | 44 | 14 | 4.0 | 11.0 | 0.00 | 0.00 | 0.00 | 53 | 1015.8 |
| 20260506233912 | 45 | 325 | 5.0 | 11.0 | 0.00 | 0.00 | 0.00 | 53 | 1015.9 |
| 20260506233816 | 45 | 313 | 6.0 | 11.0 | 0.00 | 0.00 | 0.00 | 53 | 1015.8 |
| 20260506233718 | 45 | 346 | 6.0 | 11.0 | 0.00 | 0.00 | 0.00 | 52 | 1015.8 |
| 20260506233605 | 45 | 5 | 7.0 | 13.0 | 0.00 | 0.00 | 0.00 | 53 | 1015.9 |
| 20260506233508 | 45 | 9 | 7.0 | 13.0 | 0.00 | 0.00 | 0.00 | 52 | 1015.9 |
| 20260506233431 | 45 | 294 | 7.0 | 13.0 | 0.00 | 0.00 | 0.00 | 52 | 1015.9 |
| 20260506233308 | 45 | 360 | 6.0 | 13.0 | 0.00 | 0.00 | 0.00 | 53 | 1015.8 |
| 20260506233210 | 45 | 342 | 6.0 | 13.0 | 0.00 | 0.00 | 0.00 | 53 | 1015.9 |
| 20260506233134 | 45 | 328 | 6.0 | 13.0 | 0.00 | 0.00 | 0.00 | 53 | 1015.9 |
| 20260506233037 | 45 | 333 | 5.0 | 13.0 | 0.00 | 0.00 | 0.00 | 53 | 1015.9 |
| 20260506232919 | 45 | 5 | 6.0 | 13.0 | 0.00 | 0.00 | 0.00 | 54 | 1016.0 |
| 20260506232805 | 45 | 313 | 9.0 | 13.0 | 0.00 | 0.00 | 0.00 | 52 | 1015.9 |
| 20260506232728 | 45 | 312 | 9.0 | 13.0 | 0.00 | 0.00 | 0.00 | 52 | 1015.9 |
| 20260506232652 | 45 | 347 | 7.0 | 13.0 | 0.00 | 0.00 | 0.00 | 53 | 1015.9 |
| 20260506232507 | 45 | 360 | 5.0 | 10.0 | 0.00 | 0.00 | 0.00 | 52 | 1015.8 |
| 20260506232432 | 45 | 5 | 6.0 | 10.0 | 0.00 | 0.00 | 0.00 | 53 | 1015.8 |
| 20260506232313 | 45 | 345 | 7.0 | 10.0 | 0.00 | 0.00 | 0.00 | 53 | 1015.9 |
| 20260506232217 | 45 | 322 | 5.0 | 12.0 | 0.00 | 0.00 | 0.00 | 53 | 1015.9 |
| 20260506232124 | 45 | 360 | 3.0 | 12.0 | 0.00 | 0.00 | 0.00 | 53 | 1015.9 |
| 20260506232049 | 45 | 11 | 4.0 | 13.0 | 0.00 | 0.00 | 0.00 | 52 | 1015.9 |
| 20260506231906 | 45 | 340 | 5.0 | 13.0 | 0.00 | 0.00 | 0.00 | 53 | 1015.9 |
| 20260506231829 | 45 | 349 | 5.0 | 13.0 | 0.00 | 0.00 | 0.00 | 52 | 1015.8 |
| 20260506231711 | 45 | 312 | 6.0 | 13.0 | 0.00 | 0.00 | 0.00 | 52 | 1015.9 |
| 20260506231615 | 45 | 329 | 7.0 | 13.0 | 0.00 | 0.00 | 0.00 | 52 | 1015.9 |
| 20260506231519 | 45 | 341 | 8.0 | 13.0 | 0.00 | 0.00 | 0.00 | 52 | 1015.8 |
| 20260506231408 | 45 | 341 | 9.0 | 13.0 | 0.00 | 0.00 | 0.00 | 52 | 1015.9 |
| 20260506231311 | 45 | 334 | 9.0 | 13.0 | 0.00 | 0.00 | 0.00 | 52 | 1015.8 |
| 20260506231215 | 45 | 348 | 8.0 | 13.0 | 0.00 | 0.00 | 0.00 | 52 | 1015.8 |
| 20260506231120 | 45 | 331 | 8.0 | 13.0 | 0.00 | 0.00 | 0.00 | 52 | 1015.8 |
| 20260506231005 | 45 | 273 | 7.0 | 13.0 | 0.00 | 0.00 | 0.00 | 52 | 1015.8 |
| 20260506230914 | 45 | 327 | 5.0 | 12.0 | 0.00 | 0.00 | 0.00 | 53 | 1015.9 |
| 20260506230818 | 45 | 355 | 4.0 | 12.0 | 0.00 | 0.00 | 0.00 | 53 | 1015.8 |
| 20260506230722 | 45 | 341 | 6.0 | 12.0 | 0.00 | 0.00 | 0.00 | 53 | 1015.9 |
| 20260506230626 | 45 | 333 | 6.0 | 12.0 | 0.00 | 0.00 | 0.00 | 52 | 1015.9 |
| 20260506230549 | 45 | 340 | 8.0 | 12.0 | 0.00 | 0.00 | 0.00 | 52 | 1015.8 |
| 20260506230406 | 45 | 328 | 9.0 | 14.0 | 0.00 | 0.00 | 0.00 | 52 | 1015.8 |
| 20260506230330 | 45 | 329 | 8.0 | 14.0 | 0.00 | 0.00 | 0.00 | 52 | 1015.8 |
| 20260506230234 | 45 | 345 | 6.0 | 15.0 | 0.00 | 0.00 | 0.00 | 53 | 1015.8 |
| 20260506230120 | 45 | 341 | 5.0 | 15.0 | 0.00 | 0.00 | 0.00 | 54 | 1015.9 |
| 20260506230005 | 45 | 317 | 5.0 | 15.0 | 0.00 | 0.00 | 0.00 | 53 | 1015.8 |
| 20260506225929 | 45 | 325 | 6.0 | 15.0 | 0.00 | 0.00 | 0.00 | 53 | 1015.9 |
| 20260506225805 | 45 | 327 | 7.0 | 15.0 | 0.00 | 0.00 | 0.00 | 53 | 1015.8 |
| 20260506225709 | 45 | 12 | 7.0 | 15.0 | 0.00 | 0.00 | 0.00 | 53 | 1015.8 |
| 20260506225614 | 45 | 5 | 10.0 | 15.0 | 0.00 | 0.00 | 0.00 | 53 | 1015.8 |
| 20260506225541 | 45 | 322 | 10.0 | 15.0 | 0.00 | 0.00 | 0.00 | 53 | 1015.8 |
| 20260506225405 | 45 | 327 | 8.0 | 15.0 | 0.00 | 0.00 | 0.00 | 53 | 1015.8 |
| 20260506225310 | 45 | 304 | 7.0 | 13.0 | 0.00 | 0.00 | 0.00 | 53 | 1015.9 |
| 20260506225214 | 45 | 346 | 8.0 | 13.0 | 0.00 | 0.00 | 0.00 | 52 | 1015.9 |
| 20260506225117 | 45 | 5 | 7.0 | 13.0 | 0.00 | 0.00 | 0.00 | 53 | 1015.9 |
| 20260506225042 | 45 | 5 | 7.0 | 13.0 | 0.00 | 0.00 | 0.00 | 53 | 1015.9 |
| 20260506224908 | 45 | 311 | 9.0 | 13.0 | 0.00 | 0.00 | 0.00 | 52 | 1015.9 |
| 20260506224831 | 45 | 315 | 8.0 | 13.0 | 0.00 | 0.00 | 0.00 | 53 | 1015.9 |
| 20260506224735 | 45 | 329 | 6.0 | 13.0 | 0.00 | 0.00 | 0.00 | 52 | 1015.9 |
| 20260506224616 | 45 | 308 | 7.0 | 13.0 | 0.00 | 0.00 | 0.00 | 53 | 1015.9 |
| 20260506224521 | 45 | 345 | 8.0 | 13.0 | 0.00 | 0.00 | 0.00 | 52 | 1016.0 |
| 20260506224445 | 45 | 345 | 8.0 | 13.0 | 0.00 | 0.00 | 0.00 | 52 | 1016.0 |
| 20260506224309 | 45 | 347 | 6.0 | 13.0 | 0.00 | 0.00 | 0.00 | 53 | 1016.0 |
| 20260506224214 | 45 | 355 | 5.0 | 11.0 | 0.00 | 0.00 | 0.00 | 53 | 1015.9 |
| 20260506224122 | 45 | 5 | 5.0 | 11.0 | 0.00 | 0.00 | 0.00 | 53 | 1016.0 |
| 20260506224027 | 45 | 350 | 4.0 | 14.0 | 0.00 | 0.00 | 0.00 | 54 | 1016.1 |
| 20260506223908 | 45 | 334 | 5.0 | 14.0 | 0.00 | 0.00 | 0.00 | 54 | 1016.0 |
| 20260506223813 | 45 | 308 | 5.0 | 14.0 | 0.00 | 0.00 | 0.00 | 53 | 1016.0 |
| 20260506223717 | 45 | 355 | 5.0 | 14.0 | 0.00 | 0.00 | 0.00 | 53 | 1016.0 |
| 20260506223622 | 45 | 308 | 6.0 | 14.0 | 0.00 | 0.00 | 0.00 | 52 | 1016.1 |
| 20260506223526 | 45 | 360 | 8.0 | 14.0 | 0.00 | 0.00 | 0.00 | 52 | 1016.0 |
| 20260506223412 | 45 | 355 | 7.0 | 14.0 | 0.00 | 0.00 | 0.00 | 53 | 1016.1 |
| 20260506223317 | 45 | 5 | 7.0 | 14.0 | 0.00 | 0.00 | 0.00 | 53 | 1016.0 |
| 20260506223220 | 45 | 337 | 8.0 | 14.0 | 0.00 | 0.00 | 0.00 | 53 | 1016.0 |
| 20260506223125 | 45 | 316 | 8.0 | 13.0 | 0.00 | 0.00 | 0.00 | 53 | 1016.0 |
| 20260506223028 | 45 | 341 | 7.0 | 13.0 | 0.00 | 0.00 | 0.00 | 54 | 1016.0 |
| 20260506222906 | 45 | 329 | 3.0 | 12.0 | 0.00 | 0.00 | 0.00 | 54 | 1016.1 |
| 20260506222815 | 45 | 341 | 3.0 | 12.0 | 0.00 | 0.00 | 0.00 | 54 | 1016.0 |
| 20260506222720 | 45 | 355 | 3.0 | 12.0 | 0.00 | 0.00 | 0.00 | 54 | 1016.1 |
| 20260506222624 | 45 | 5 | 4.0 | 12.0 | 0.00 | 0.00 | 0.00 | 54 | 1016.1 |
| 20260506222508 | 45 | 34 | 7.0 | 12.0 | 0.00 | 0.00 | 0.00 | 53 | 1016.1 |
| 20260506222413 | 45 | 5 | 8.0 | 12.0 | 0.00 | 0.00 | 0.00 | 53 | 1016.2 |
| 20260506222316 | 45 | 328 | 8.0 | 12.0 | 0.00 | 0.00 | 0.00 | 54 | 1016.1 |
| 20260506222225 | 45 | 12 | 8.0 | 12.0 | 0.00 | 0.00 | 0.00 | 54 | 1016.2 |
| 20260506222108 | 45 | 303 | 7.0 | 12.0 | 0.00 | 0.00 | 0.00 | 53 | 1016.0 |
| 20260506222012 | 45 | 338 | 6.0 | 13.0 | 0.00 | 0.00 | 0.00 | 54 | 1016.1 |
| 20260506221917 | 45 | 296 | 7.0 | 13.0 | 0.00 | 0.00 | 0.00 | 54 | 1016.1 |
| 20260506221840 | 45 | 320 | 8.0 | 15.0 | 0.00 | 0.00 | 0.00 | 53 | 1016.1 |
| 20260506221724 | 45 | 360 | 6.0 | 15.0 | 0.00 | 0.00 | 0.00 | 54 | 1016.1 |
| 20260506221612 | 45 | 23 | 6.0 | 15.0 | 0.00 | 0.00 | 0.00 | 55 | 1016.2 |
| 20260506221517 | 45 | 342 | 6.0 | 15.0 | 0.00 | 0.00 | 0.00 | 54 | 1016.2 |
| 20260506221420 | 45 | 360 | 6.0 | 15.0 | 0.00 | 0.00 | 0.00 | 53 | 1016.1 |
| 20260506221324 | 44 | 5 | 7.0 | 15.0 | 0.00 | 0.00 | 0.00 | 53 | 1016.1 |
| 20260506221209 | 44 | 360 | 8.0 | 15.0 | 0.00 | 0.00 | 0.00 | 55 | 1016.1 |
| 20260506221133 | 44 | 329 | 10.0 | 15.0 | 0.00 | 0.00 | 0.00 | 53 | 1016.3 |
| 20260506221017 | 45 | 304 | 10.0 | 15.0 | 0.00 | 0.00 | 0.00 | 53 | 1016.2 |
| 20260506220905 | 45 | 339 | 8.0 | 15.0 | 0.00 | 0.00 | 0.00 | 54 | 1016.1 |
| 20260506220809 | 45 | 302 | 8.0 | 15.0 | 0.00 | 0.00 | 0.00 | 53 | 1016.2 |
| 20260506220732 | 45 | 317 | 9.0 | 15.0 | 0.00 | 0.00 | 0.00 | 53 | 1016.2 |
| 20260506220608 | 45 | 315 | 9.0 | 15.0 | 0.00 | 0.00 | 0.00 | 54 | 1016.2 |
| 20260506220513 | 45 | 321 | 6.0 | 11.0 | 0.00 | 0.00 | 0.00 | 55 | 1016.2 |
| 20260506220418 | 45 | 320 | 4.0 | 11.0 | 0.00 | 0.00 | 0.00 | 54 | 1016.2 |
| 20260506220306 | 45 | 296 | 5.0 | 11.0 | 0.00 | 0.00 | 0.00 | 53 | 1016.2 |
| 20260506220210 | 45 | 360 | 5.0 | 11.0 | 0.00 | 0.00 | 0.00 | 54 | 1016.2 |
| 20260506220112 | 45 | 306 | 4.0 | 11.0 | 0.00 | 0.00 | 0.00 | 56 | 1016.2 |
| 20260506220016 | 45 | 32 | 6.0 | 11.0 | 0.00 | 0.00 | 0.00 | 54 | 1016.2 |
| 20260506215940 | 45 | 15 | 8.0 | 11.0 | 0.00 | 0.00 | 0.00 | 54 | 1016.2 |
| 20260506215824 | 44 | 344 | 6.0 | 11.0 | 0.00 | 0.00 | 0.00 | 55 | 1016.3 |
| 20260506215711 | 44 | 26 | 4.0 | 10.0 | 0.00 | 0.00 | 0.00 | 56 | 1016.2 |
| 20260506215617 | 44 | 355 | 5.0 | 10.0 | 0.00 | 0.00 | 0.00 | 54 | 1016.3 |
| 20260506215521 | 44 | 348 | 5.0 | 10.0 | 0.00 | 0.00 | 0.00 | 54 | 1016.2 |
| 20260506215427 | 44 | 13 | 5.0 | 10.0 | 0.00 | 0.00 | 0.00 | 53 | 1016.3 |
| 20260506215351 | 44 | 5 | 7.0 | 10.0 | 0.00 | 0.00 | 0.00 | 54 | 1016.2 |
| 20260506215206 | 44 | 355 | 6.0 | 10.0 | 0.00 | 0.00 | 0.00 | 54 | 1016.2 |
| 20260506215114 | 44 | 349 | 5.0 | 10.0 | 0.00 | 0.00 | 0.00 | 55 | 1016.3 |
| 20260506215018 | 44 | 286 | 6.0 | 10.0 | 0.00 | 0.00 | 0.00 | 54 | 1016.3 |
| 20260506214922 | 44 | 25 | 5.0 | 11.0 | 0.00 | 0.00 | 0.00 | 55 | 1016.3 |
| 20260506214807 | 44 | 342 | 4.0 | 13.0 | 0.00 | 0.00 | 0.00 | 55 | 1016.2 |
| 20260506214732 | 44 | 315 | 4.0 | 13.0 | 0.00 | 0.00 | 0.00 | 55 | 1016.3 |
| 20260506214607 | 44 | 328 | 5.0 | 13.0 | 0.00 | 0.00 | 0.00 | 55 | 1016.2 |
| 20260506214515 | 44 | 287 | 6.0 | 13.0 | 0.00 | 0.00 | 0.00 | 55 | 1016.2 |
| 20260506214419 | 44 | 318 | 6.0 | 13.0 | 0.00 | 0.00 | 0.00 | 53 | 1016.2 |
| 20260506214323 | 44 | 360 | 7.0 | 13.0 | 0.00 | 0.00 | 0.00 | 54 | 1016.3 |
| 20260506214228 | 44 | 317 | 7.0 | 13.0 | 0.00 | 0.00 | 0.00 | 55 | 1016.3 |
| 20260506214130 | 44 | 306 | 7.0 | 13.0 | 0.00 | 0.00 | 0.00 | 54 | 1016.3 |
| 20260506214007 | 44 | 336 | 8.0 | 13.0 | 0.00 | 0.00 | 0.00 | 55 | 1016.3 |
| 20260506213932 | 44 | 340 | 9.0 | 13.0 | 0.00 | 0.00 | 0.00 | 54 | 1016.3 |
| 20260506213820 | 44 | 321 | 9.0 | 13.0 | 0.00 | 0.00 | 0.00 | 55 | 1016.2 |
| 20260506213705 | 44 | 355 | 9.0 | 13.0 | 0.00 | 0.00 | 0.00 | 54 | 1016.3 |
| 20260506213609 | 44 | 17 | 7.0 | 13.0 | 0.00 | 0.00 | 0.00 | 54 | 1016.4 |
| 20260506213533 | 44 | 349 | 3.0 | 13.0 | 0.00 | 0.00 | 0.00 | 55 | 1016.3 |
| 20260506213413 | 44 | 281 | 4.0 | 13.0 | 0.00 | 0.00 | 0.00 | 55 | 1016.3 |
| 20260506213318 | 44 | 346 | 8.0 | 13.0 | 0.00 | 0.00 | 0.00 | 54 | 1016.3 |
| 20260506213206 | 44 | 327 | 9.0 | 13.0 | 0.00 | 0.00 | 0.00 | 54 | 1016.3 |
| 20260506213129 | 44 | 290 | 7.0 | 12.0 | 0.00 | 0.00 | 0.00 | 55 | 1016.3 |
| 20260506213005 | 44 | 308 | 5.0 | 12.0 | 0.00 | 0.00 | 0.00 | 55 | 1016.3 |
| 20260506212930 | 44 | 279 | 5.0 | 13.0 | 0.00 | 0.00 | 0.00 | 55 | 1016.3 |
| 20260506212807 | 44 | 325 | 5.0 | 13.0 | 0.00 | 0.00 | 0.00 | 56 | 1016.3 |
| 20260506212711 | 44 | 304 | 5.0 | 13.0 | 0.00 | 0.00 | 0.00 | 56 | 1016.4 |
| 20260506212616 | 44 | 283 | 5.0 | 13.0 | 0.00 | 0.00 | 0.00 | 57 | 1016.4 |
| 20260506212524 | 44 | 355 | 4.0 | 13.0 | 0.00 | 0.00 | 0.00 | 57 | 1016.4 |
| 20260506212427 | 44 | 292 | 5.0 | 13.0 | 0.00 | 0.00 | 0.00 | 56 | 1016.4 |
| 20260506212351 | 44 | 323 | 5.0 | 13.0 | 0.00 | 0.00 | 0.00 | 56 | 1016.4 |
| 20260506212206 | 44 | 355 | 8.0 | 13.0 | 0.00 | 0.00 | 0.00 | 57 | 1016.4 |
| 20260506212110 | 44 | 292 | 9.0 | 13.0 | 0.00 | 0.00 | 0.00 | 55 | 1016.4 |
| 20260506212034 | 44 | 284 | 8.0 | 13.0 | 0.00 | 0.00 | 0.00 | 55 | 1016.3 |
| 20260506211917 | 44 | 325 | 7.0 | 13.0 | 0.00 | 0.00 | 0.00 | 57 | 1016.4 |
| 20260506211824 | 44 | 306 | 8.0 | 13.0 | 0.00 | 0.00 | 0.00 | 55 | 1016.4 |
| 20260506211728 | 44 | 315 | 8.0 | 13.0 | 0.00 | 0.00 | 0.00 | 55 | 1016.4 |
| 20260506211606 | 44 | 297 | 8.0 | 13.0 | 0.00 | 0.00 | 0.00 | 53 | 1016.4 |
| 20260506211528 | 44 | 306 | 8.0 | 13.0 | 0.00 | 0.00 | 0.00 | 53 | 1016.4 |
| 20260506211451 | 44 | 317 | 9.0 | 13.0 | 0.00 | 0.00 | 0.00 | 54 | 1016.4 |
| 20260506211307 | 44 | 342 | 9.0 | 13.0 | 0.00 | 0.00 | 0.00 | 55 | 1016.5 |
| 20260506211211 | 44 | 342 | 8.0 | 12.0 | 0.00 | 0.00 | 0.00 | 54 | 1016.4 |
| 20260506211139 | 44 | 342 | 8.0 | 12.0 | 0.00 | 0.00 | 0.00 | 54 | 1016.5 |
| 20260506211021 | 44 | 328 | 6.0 | 12.0 | 0.00 | 0.00 | 0.00 | 55 | 1016.4 |
| 20260506210926 | 44 | 299 | 5.0 | 12.0 | 0.00 | 0.00 | 0.00 | 57 | 1016.4 |
| 20260506210809 | 44 | 309 | 8.0 | 12.0 | 0.00 | 0.00 | 0.00 | 54 | 1016.4 |
| 20260506210713 | 44 | 314 | 9.0 | 12.0 | 0.00 | 0.00 | 0.00 | 55 | 1016.5 |
| 20260506210617 | 44 | 317 | 9.0 | 12.0 | 0.00 | 0.00 | 0.00 | 55 | 1016.4 |
| 20260506210505 | 44 | 300 | 8.0 | 14.0 | 0.00 | 0.00 | 0.00 | 56 | 1016.5 |
| 20260506210429 | 44 | 301 | 7.0 | 14.0 | 0.00 | 0.00 | 0.00 | 57 | 1016.4 |
| 20260506210306 | 44 | 286 | 6.0 | 14.0 | 0.00 | 0.00 | 0.00 | 56 | 1016.6 |
| 20260506210211 | 44 | 307 | 5.0 | 14.0 | 0.00 | 0.00 | 0.00 | 56 | 1016.6 |
| 20260506210114 | 44 | 333 | 7.0 | 14.0 | 0.00 | 0.00 | 0.00 | 57 | 1016.6 |
| 20260506210019 | 44 | 327 | 9.0 | 15.0 | 0.00 | 0.00 | 0.00 | 56 | 1016.6 |
| 20260506205923 | 44 | 294 | 8.0 | 15.0 | 0.00 | 0.00 | 0.00 | 55 | 1016.6 |
| 20260506205828 | 44 | 300 | 8.0 | 15.0 | 0.00 | 0.00 | 0.00 | 56 | 1016.6 |
| 20260506205705 | 44 | 287 | 10.0 | 15.0 | 0.00 | 0.00 | 0.00 | 55 | 1016.6 |
| 20260506205628 | 44 | 297 | 11.0 | 15.0 | 0.00 | 0.00 | 0.00 | 56 | 1016.7 |
| 20260506205505 | 44 | 313 | 8.0 | 15.0 | 0.00 | 0.00 | 0.00 | 56 | 1016.6 |
| 20260506205408 | 44 | 294 | 6.0 | 15.0 | 0.00 | 0.00 | 0.00 | 55 | 1016.6 |
| 20260506205311 | 44 | 332 | 7.0 | 15.0 | 0.00 | 0.00 | 0.00 | 55 | 1016.7 |
| 20260506205219 | 44 | 336 | 8.0 | 15.0 | 0.00 | 0.00 | 0.00 | 54 | 1016.7 |
| 20260506205122 | 44 | 321 | 6.0 | 14.0 | 0.00 | 0.00 | 0.00 | 54 | 1016.6 |
| 20260506205026 | 44 | 308 | 6.0 | 17.0 | 0.00 | 0.00 | 0.00 | 55 | 1016.7 |
| 20260506204908 | 44 | 299 | 7.0 | 17.0 | 0.00 | 0.00 | 0.00 | 54 | 1016.7 |
| 20260506204812 | 44 | 296 | 9.0 | 17.0 | 0.00 | 0.00 | 0.00 | 54 | 1016.7 |
| 20260506204736 | 44 | 355 | 8.0 | 17.0 | 0.00 | 0.00 | 0.00 | 54 | 1016.7 |
| 20260506204619 | 44 | 320 | 6.0 | 17.0 | 0.00 | 0.00 | 0.00 | 55 | 1016.6 |
| 20260506204528 | 44 | 300 | 7.0 | 17.0 | 0.00 | 0.00 | 0.00 | 55 | 1016.7 |
| 20260506204405 | 44 | 340 | 10.0 | 17.0 | 0.00 | 0.00 | 0.00 | 54 | 1016.7 |
| 20260506204309 | 44 | 360 | 11.0 | 17.0 | 0.00 | 0.00 | 0.00 | 54 | 1016.8 |
| 20260506204232 | 44 | 336 | 10.0 | 17.0 | 0.00 | 0.00 | 0.00 | 55 | 1016.7 |
| 20260506204134 | 44 | 339 | 9.0 | 15.0 | 0.00 | 0.00 | 0.00 | 57 | 1016.8 |
| 20260506204016 | 44 | 308 | 9.0 | 15.0 | 0.00 | 0.00 | 0.00 | 58 | 1016.8 |
| 20260506203919 | 44 | 301 | 9.0 | 18.0 | 0.00 | 0.00 | 0.00 | 57 | 1016.7 |
| 20260506203827 | 44 | 301 | 7.0 | 18.0 | 0.00 | 0.00 | 0.00 | 56 | 1016.8 |
| 20260506203711 | 44 | 346 | 4.0 | 18.0 | 0.00 | 0.00 | 0.00 | 57 | 1016.7 |
| 20260506203612 | 44 | 327 | 4.0 | 18.0 | 0.00 | 0.00 | 0.00 | 56 | 1016.6 |
| 20260506203516 | 44 | 355 | 6.0 | 18.0 | 0.00 | 0.00 | 0.00 | 56 | 1016.7 |
| 20260506203418 | 44 | 355 | 8.0 | 18.0 | 0.00 | 0.00 | 0.00 | 54 | 1016.7 |
| 20260506203322 | 44 | 315 | 10.0 | 18.0 | 0.00 | 0.00 | 0.00 | 54 | 1016.7 |
| 20260506203209 | 44 | 299 | 11.0 | 18.0 | 0.00 | 0.00 | 0.00 | 53 | 1016.7 |
| 20260506203132 | 44 | 302 | 11.0 | 18.0 | 0.00 | 0.00 | 0.00 | 54 | 1016.7 |
| 20260506203007 | 44 | 317 | 9.0 | 16.0 | 0.00 | 0.00 | 0.00 | 55 | 1016.7 |
| 20260506202930 | 44 | 326 | 8.0 | 16.0 | 0.00 | 0.00 | 0.00 | 56 | 1016.7 |
| 20260506202812 | 44 | 331 | 7.0 | 14.0 | 0.00 | 0.00 | 0.00 | 56 | 1016.7 |
| 20260506202714 | 44 | 338 | 8.0 | 14.0 | 0.00 | 0.00 | 0.00 | 55 | 1016.7 |
| 20260506202637 | 44 | 343 | 8.0 | 14.0 | 0.00 | 0.00 | 0.00 | 55 | 1016.7 |
| 20260506202520 | 44 | 5 | 7.0 | 14.0 | 0.00 | 0.00 | 0.00 | 56 | 1016.7 |
| 20260506202407 | 44 | 11 | 6.0 | 14.0 | 0.00 | 0.00 | 0.00 | 56 | 1016.7 |
| 20260506202330 | 44 | 355 | 6.0 | 14.0 | 0.00 | 0.00 | 0.00 | 56 | 1016.6 |
| 20260506202213 | 44 | 305 | 6.0 | 14.0 | 0.00 | 0.00 | 0.00 | 56 | 1016.6 |
| 20260506202115 | 44 | 299 | 7.0 | 14.0 | 0.00 | 0.00 | 0.00 | 55 | 1016.6 |
| 20260506202018 | 44 | 43 | 8.0 | 14.0 | 0.00 | 0.00 | 0.00 | 54 | 1016.7 |
| 20260506201942 | 44 | 313 | 6.0 | 12.0 | 0.00 | 0.00 | 0.00 | 54 | 1016.7 |
| 20260506201808 | 44 | 355 | 7.0 | 15.0 | 0.00 | 0.00 | 0.00 | 54 | 1016.7 |
| 20260506201731 | 44 | 333 | 9.0 | 15.0 | 0.00 | 0.00 | 0.00 | 55 | 1016.7 |
| 20260506201607 | 44 | 13 | 10.0 | 15.0 | 0.00 | 0.00 | 0.00 | 54 | 1016.7 |
| 20260506201510 | 44 | 344 | 8.0 | 15.0 | 0.00 | 0.00 | 0.00 | 54 | 1016.7 |
| 20260506201413 | 44 | 309 | 7.0 | 15.0 | 0.00 | 0.00 | 0.00 | 54 | 1016.6 |
| 20260506201316 | 44 | 336 | 7.0 | 15.0 | 0.00 | 0.00 | 0.00 | 55 | 1016.6 |
| 20260506201220 | 44 | 345 | 8.0 | 15.0 | 0.00 | 0.00 | 0.00 | 53 | 1016.7 |
| 20260506201106 | 44 | 10 | 9.0 | 15.0 | 0.00 | 0.00 | 0.00 | 53 | 1016.7 |
| 20260506201009 | 44 | 342 | 8.0 | 15.0 | 0.00 | 0.00 | 0.00 | 55 | 1016.7 |
| 20260506200912 | 44 | 5 | 7.0 | 12.0 | 0.00 | 0.00 | 0.00 | 55 | 1016.6 |
| 20260506200815 | 44 | 40 | 7.0 | 12.0 | 0.00 | 0.00 | 0.00 | 54 | 1016.7 |
| 20260506200716 | 44 | 347 | 7.0 | 12.0 | 0.00 | 0.00 | 0.00 | 55 | 1016.7 |
| 20260506200619 | 44 | 5 | 7.0 | 12.0 | 0.00 | 0.00 | 0.00 | 55 | 1016.6 |
| 20260506200507 | 44 | 323 | 9.0 | 12.0 | 0.00 | 0.00 | 0.00 | 56 | 1016.7 |
| 20260506200409 | 44 | 335 | 8.0 | 12.0 | 0.00 | 0.00 | 0.00 | 55 | 1016.7 |
| 20260506200313 | 44 | 36 | 7.0 | 11.0 | 0.00 | 0.00 | 0.00 | 55 | 1016.7 |
| 20260506200236 | 44 | 360 | 7.0 | 11.0 | 0.00 | 0.00 | 0.00 | 56 | 1016.7 |
| 20260506200118 | 44 | 360 | 6.0 | 11.0 | 0.00 | 0.00 | 0.00 | 56 | 1016.7 |
| 20260506200021 | 44 | 30 | 5.0 | 14.0 | 0.00 | 0.00 | 0.00 | 58 | 1016.7 |
| 20260506195908 | 44 | 26 | 7.0 | 14.0 | 0.00 | 0.00 | 0.00 | 55 | 1016.7 |
| 20260506195831 | 44 | 326 | 6.0 | 14.0 | 0.00 | 0.00 | 0.00 | 55 | 1016.7 |
| 20260506195707 | 44 | 334 | 3.0 | 14.0 | 0.00 | 0.00 | 0.00 | 58 | 1016.6 |
| 20260506195609 | 44 | 350 | 3.0 | 14.0 | 0.00 | 0.00 | 0.00 | 57 | 1016.7 |
| 20260506195512 | 44 | 314 | 4.0 | 14.0 | 0.00 | 0.00 | 0.00 | 57 | 1016.7 |
| 20260506195417 | 44 | 306 | 7.0 | 14.0 | 0.00 | 0.00 | 0.00 | 56 | 1016.7 |
| 20260506195320 | 44 | 322 | 9.0 | 14.0 | 0.00 | 0.00 | 0.00 | 54 | 1016.7 |
| 20260506195208 | 44 | 305 | 8.0 | 14.0 | 0.00 | 0.00 | 0.00 | 57 | 1016.7 |
| 20260506195132 | 44 | 315 | 6.0 | 11.0 | 0.00 | 0.00 | 0.00 | 55 | 1016.7 |
| 20260506195014 | 44 | 302 | 5.0 | 11.0 | 0.00 | 0.00 | 0.00 | 56 | 1016.7 |
| 20260506194916 | 44 | 300 | 7.0 | 11.0 | 0.00 | 0.00 | 0.00 | 56 | 1016.7 |
| 20260506194820 | 44 | 288 | 8.0 | 11.0 | 0.00 | 0.00 | 0.00 | 55 | 1016.7 |
| 20260506194722 | 44 | 355 | 7.0 | 11.0 | 0.00 | 0.00 | 0.00 | 55 | 1016.8 |
| 20260506194629 | 44 | 355 | 5.0 | 14.0 | 0.00 | 0.00 | 0.00 | 56 | 1016.7 |
| 20260506194504 | 44 | 334 | 6.0 | 14.0 | 0.00 | 0.00 | 0.00 | 58 | 1016.8 |
| 20260506194407 | 44 | 22 | 5.0 | 14.0 | 0.00 | 0.00 | 0.00 | 56 | 1016.8 |
| 20260506194332 | 44 | 304 | 6.0 | 14.0 | 0.00 | 0.00 | 0.00 | 57 | 1016.8 |
| 20260506194234 | 43 | 315 | 5.0 | 14.0 | 0.00 | 0.00 | 0.00 | 56 | 1016.7 |
| 20260506194136 | 43 | 340 | 4.0 | 14.0 | 0.00 | 0.00 | 0.00 | 56 | 1016.8 |
| 20260506194018 | 43 | 38 | 6.0 | 14.0 | 0.00 | 0.00 | 0.00 | 56 | 1016.7 |
| 20260506193941 | 43 | 36 | 7.0 | 14.0 | 0.00 | 0.00 | 0.00 | 55 | 1016.8 |
| 20260506193807 | 43 | 5 | 8.0 | 14.0 | 0.00 | 0.00 | 0.00 | 56 | 1016.8 |
| 20260506193711 | 43 | 43 | 9.0 | 14.0 | 0.00 | 0.00 | 0.00 | 54 | 1016.9 |
| 20260506193609 | 43 | 5 | 10.0 | 14.0 | 0.00 | 0.00 | 0.00 | 55 | 1016.9 |
| 20260506193513 | 43 | 31 | 9.0 | 14.0 | 0.00 | 0.00 | 0.00 | 55 | 1016.9 |
| 20260506193437 | 43 | 5 | 6.0 | 13.0 | 0.00 | 0.00 | 0.00 | 55 | 1016.8 |
| 20260506193318 | 43 | 360 | 3.0 | 13.0 | 0.00 | 0.00 | 0.00 | 56 | 1016.8 |
| 20260506193205 | 43 | 360 | 7.0 | 13.0 | 0.00 | 0.00 | 0.00 | 56 | 1016.9 |